<?xml version="1.0" encoding="UTF-8" standalone="no" ?>
<gpx xmlns="http://www.topografix.com/GPX/1/1" xmlns:xsi="http://www.w3.org/2001/XMLSchema-instance" xsi:schemaLocation="http://www.topografix.com/GPX/1/1 http://www.topografix.com/GPX/1/1/gpx.xsd" version="1.1" creator="VisuGPX - https://www.visugpx.com">
  <metadata>
    <name>Rando VTT Champ-le-Duc par l'Amicale Cyclo des Hautes Vosges</name>
    <desc><![CDATA[Belle rando avec de beaux points de vue]]></desc>
  </metadata>
  <trk>
    <name><![CDATA[Tracé actuel: 02 AVR 2018 08:56 RANDO VTT FAYS DEPART CHAMP LE DUC]]></name>
    <trkseg>
      <trkpt lat="48.19738" lon="6.73618">
        <ele>489.45</ele>
        <time>2018-04-02T06:56:32Z</time>
      </trkpt>
      <trkpt lat="48.19731" lon="6.73625">
        <ele>489.93</ele>
        <time>2018-04-02T06:56:36Z</time>
      </trkpt>
      <trkpt lat="48.19722" lon="6.73631">
        <ele>489.93</ele>
        <time>2018-04-02T06:56:42Z</time>
      </trkpt>
      <trkpt lat="48.19713" lon="6.73638">
        <ele>489.45</ele>
        <time>2018-04-02T06:56:47Z</time>
      </trkpt>
      <trkpt lat="48.19704" lon="6.73639">
        <ele>489.45</ele>
        <time>2018-04-02T06:56:52Z</time>
      </trkpt>
      <trkpt lat="48.19694" lon="6.73642">
        <ele>489.45</ele>
        <time>2018-04-02T06:56:56Z</time>
      </trkpt>
      <trkpt lat="48.19684" lon="6.73647">
        <ele>488.97</ele>
        <time>2018-04-02T06:57:01Z</time>
      </trkpt>
      <trkpt lat="48.19675" lon="6.73652">
        <ele>488.97</ele>
        <time>2018-04-02T06:57:06Z</time>
      </trkpt>
      <trkpt lat="48.19668" lon="6.73662">
        <ele>488.97</ele>
        <time>2018-04-02T06:57:11Z</time>
      </trkpt>
      <trkpt lat="48.19665" lon="6.73676">
        <ele>489.45</ele>
        <time>2018-04-02T06:57:17Z</time>
      </trkpt>
      <trkpt lat="48.19663" lon="6.7369">
        <ele>489.93</ele>
        <time>2018-04-02T06:57:22Z</time>
      </trkpt>
      <trkpt lat="48.19661" lon="6.73703">
        <ele>490.41</ele>
        <time>2018-04-02T06:57:27Z</time>
      </trkpt>
      <trkpt lat="48.1966" lon="6.73719">
        <ele>490.41</ele>
        <time>2018-04-02T06:57:32Z</time>
      </trkpt>
      <trkpt lat="48.19655" lon="6.73732">
        <ele>490.41</ele>
        <time>2018-04-02T06:57:36Z</time>
      </trkpt>
      <trkpt lat="48.19653" lon="6.73748">
        <ele>489.45</ele>
        <time>2018-04-02T06:57:40Z</time>
      </trkpt>
      <trkpt lat="48.19654" lon="6.73764">
        <ele>489.93</ele>
        <time>2018-04-02T06:57:43Z</time>
      </trkpt>
      <trkpt lat="48.19654" lon="6.7378">
        <ele>489.93</ele>
        <time>2018-04-02T06:57:48Z</time>
      </trkpt>
      <trkpt lat="48.19652" lon="6.73796">
        <ele>490.41</ele>
        <time>2018-04-02T06:57:53Z</time>
      </trkpt>
      <trkpt lat="48.19652" lon="6.7381">
        <ele>490.89</ele>
        <time>2018-04-02T06:57:58Z</time>
      </trkpt>
      <trkpt lat="48.19649" lon="6.73826">
        <ele>491.85</ele>
        <time>2018-04-02T06:58:04Z</time>
      </trkpt>
      <trkpt lat="48.19647" lon="6.7384">
        <ele>490.89</ele>
        <time>2018-04-02T06:58:10Z</time>
      </trkpt>
      <trkpt lat="48.19648" lon="6.73855">
        <ele>491.85</ele>
        <time>2018-04-02T06:58:16Z</time>
      </trkpt>
      <trkpt lat="48.19647" lon="6.73871">
        <ele>491.85</ele>
        <time>2018-04-02T06:58:22Z</time>
      </trkpt>
      <trkpt lat="48.19645" lon="6.73887">
        <ele>492.33</ele>
        <time>2018-04-02T06:58:27Z</time>
      </trkpt>
      <trkpt lat="48.19642" lon="6.73903">
        <ele>493.77</ele>
        <time>2018-04-02T06:58:33Z</time>
      </trkpt>
      <trkpt lat="48.19643" lon="6.7392">
        <ele>494.74</ele>
        <time>2018-04-02T06:58:38Z</time>
      </trkpt>
      <trkpt lat="48.19641" lon="6.73934">
        <ele>495.7</ele>
        <time>2018-04-02T06:58:44Z</time>
      </trkpt>
      <trkpt lat="48.19632" lon="6.73939">
        <ele>495.7</ele>
        <time>2018-04-02T06:58:49Z</time>
      </trkpt>
      <trkpt lat="48.19625" lon="6.73947">
        <ele>496.18</ele>
        <time>2018-04-02T06:58:54Z</time>
      </trkpt>
      <trkpt lat="48.19624" lon="6.73964">
        <ele>496.66</ele>
        <time>2018-04-02T06:59:00Z</time>
      </trkpt>
      <trkpt lat="48.19622" lon="6.73979">
        <ele>498.1</ele>
        <time>2018-04-02T06:59:08Z</time>
      </trkpt>
      <trkpt lat="48.19623" lon="6.73993">
        <ele>498.58</ele>
        <time>2018-04-02T06:59:14Z</time>
      </trkpt>
      <trkpt lat="48.19617" lon="6.74005">
        <ele>498.58</ele>
        <time>2018-04-02T06:59:20Z</time>
      </trkpt>
      <trkpt lat="48.19608" lon="6.74012">
        <ele>497.62</ele>
        <time>2018-04-02T06:59:25Z</time>
      </trkpt>
      <trkpt lat="48.19598" lon="6.7402">
        <ele>497.62</ele>
        <time>2018-04-02T06:59:29Z</time>
      </trkpt>
      <trkpt lat="48.19594" lon="6.74033">
        <ele>496.66</ele>
        <time>2018-04-02T06:59:34Z</time>
      </trkpt>
      <trkpt lat="48.19589" lon="6.74046">
        <ele>496.66</ele>
        <time>2018-04-02T06:59:39Z</time>
      </trkpt>
      <trkpt lat="48.19584" lon="6.7406">
        <ele>496.18</ele>
        <time>2018-04-02T06:59:44Z</time>
      </trkpt>
      <trkpt lat="48.19585" lon="6.74079">
        <ele>497.62</ele>
        <time>2018-04-02T06:59:51Z</time>
      </trkpt>
      <trkpt lat="48.19587" lon="6.74095">
        <ele>499.54</ele>
        <time>2018-04-02T06:59:58Z</time>
      </trkpt>
      <trkpt lat="48.19591" lon="6.7411">
        <ele>500.5</ele>
        <time>2018-04-02T07:00:05Z</time>
      </trkpt>
      <trkpt lat="48.19592" lon="6.74131">
        <ele>501.46</ele>
        <time>2018-04-02T07:00:15Z</time>
      </trkpt>
      <trkpt lat="48.19589" lon="6.74149">
        <ele>501.46</ele>
        <time>2018-04-02T07:00:22Z</time>
      </trkpt>
      <trkpt lat="48.19584" lon="6.74163">
        <ele>502.91</ele>
        <time>2018-04-02T07:00:29Z</time>
      </trkpt>
      <trkpt lat="48.19581" lon="6.74179">
        <ele>503.39</ele>
        <time>2018-04-02T07:00:37Z</time>
      </trkpt>
      <trkpt lat="48.19578" lon="6.74194">
        <ele>503.39</ele>
        <time>2018-04-02T07:00:44Z</time>
      </trkpt>
      <trkpt lat="48.19577" lon="6.7422">
        <ele>504.35</ele>
        <time>2018-04-02T07:00:54Z</time>
      </trkpt>
      <trkpt lat="48.1957" lon="6.74237">
        <ele>505.79</ele>
        <time>2018-04-02T07:01:00Z</time>
      </trkpt>
      <trkpt lat="48.19558" lon="6.74248">
        <ele>504.83</ele>
        <time>2018-04-02T07:01:06Z</time>
      </trkpt>
      <trkpt lat="48.19546" lon="6.74256">
        <ele>505.31</ele>
        <time>2018-04-02T07:01:12Z</time>
      </trkpt>
      <trkpt lat="48.19536" lon="6.74272">
        <ele>505.79</ele>
        <time>2018-04-02T07:01:19Z</time>
      </trkpt>
      <trkpt lat="48.19529" lon="6.74286">
        <ele>505.79</ele>
        <time>2018-04-02T07:01:24Z</time>
      </trkpt>
      <trkpt lat="48.19521" lon="6.74299">
        <ele>506.27</ele>
        <time>2018-04-02T07:01:29Z</time>
      </trkpt>
      <trkpt lat="48.19514" lon="6.74311">
        <ele>506.75</ele>
        <time>2018-04-02T07:01:34Z</time>
      </trkpt>
      <trkpt lat="48.19506" lon="6.74321">
        <ele>507.23</ele>
        <time>2018-04-02T07:01:39Z</time>
      </trkpt>
      <trkpt lat="48.19499" lon="6.74335">
        <ele>507.23</ele>
        <time>2018-04-02T07:01:44Z</time>
      </trkpt>
      <trkpt lat="48.19497" lon="6.74349">
        <ele>508.67</ele>
        <time>2018-04-02T07:01:52Z</time>
      </trkpt>
      <trkpt lat="48.19499" lon="6.74348">
        <ele>509.16</ele>
        <time>2018-04-02T07:02:01Z</time>
      </trkpt>
      <trkpt lat="48.19496" lon="6.74356">
        <ele>509.16</ele>
        <time>2018-04-02T07:02:11Z</time>
      </trkpt>
      <trkpt lat="48.19503" lon="6.74363">
        <ele>509.16</ele>
        <time>2018-04-02T07:02:20Z</time>
      </trkpt>
      <trkpt lat="48.195" lon="6.74353">
        <ele>508.67</ele>
        <time>2018-04-02T07:02:30Z</time>
      </trkpt>
      <trkpt lat="48.19493" lon="6.7436">
        <ele>508.67</ele>
        <time>2018-04-02T07:02:42Z</time>
      </trkpt>
      <trkpt lat="48.195" lon="6.74368">
        <ele>509.16</ele>
        <time>2018-04-02T07:02:50Z</time>
      </trkpt>
      <trkpt lat="48.19498" lon="6.74359">
        <ele>509.16</ele>
        <time>2018-04-02T07:02:57Z</time>
      </trkpt>
      <trkpt lat="48.19493" lon="6.74372">
        <ele>508.67</ele>
        <time>2018-04-02T07:03:03Z</time>
      </trkpt>
      <trkpt lat="48.19495" lon="6.74386">
        <ele>510.12</ele>
        <time>2018-04-02T07:03:08Z</time>
      </trkpt>
      <trkpt lat="48.19496" lon="6.74401">
        <ele>511.08</ele>
        <time>2018-04-02T07:03:14Z</time>
      </trkpt>
      <trkpt lat="48.19494" lon="6.74416">
        <ele>512.52</ele>
        <time>2018-04-02T07:03:20Z</time>
      </trkpt>
      <trkpt lat="48.1949" lon="6.7443">
        <ele>512.52</ele>
        <time>2018-04-02T07:03:26Z</time>
      </trkpt>
      <trkpt lat="48.19485" lon="6.74444">
        <ele>513</ele>
        <time>2018-04-02T07:03:32Z</time>
      </trkpt>
      <trkpt lat="48.19479" lon="6.7446">
        <ele>513.96</ele>
        <time>2018-04-02T07:03:39Z</time>
      </trkpt>
      <trkpt lat="48.19473" lon="6.74477">
        <ele>513.48</ele>
        <time>2018-04-02T07:03:45Z</time>
      </trkpt>
      <trkpt lat="48.19468" lon="6.74492">
        <ele>513</ele>
        <time>2018-04-02T07:03:50Z</time>
      </trkpt>
      <trkpt lat="48.19467" lon="6.7451">
        <ele>513.48</ele>
        <time>2018-04-02T07:03:55Z</time>
      </trkpt>
      <trkpt lat="48.19468" lon="6.74529">
        <ele>513.96</ele>
        <time>2018-04-02T07:04:01Z</time>
      </trkpt>
      <trkpt lat="48.1947" lon="6.74547">
        <ele>515.4</ele>
        <time>2018-04-02T07:04:08Z</time>
      </trkpt>
      <trkpt lat="48.19473" lon="6.74564">
        <ele>516.37</ele>
        <time>2018-04-02T07:04:15Z</time>
      </trkpt>
      <trkpt lat="48.19473" lon="6.74579">
        <ele>517.33</ele>
        <time>2018-04-02T07:04:21Z</time>
      </trkpt>
      <trkpt lat="48.19481" lon="6.74594">
        <ele>518.77</ele>
        <time>2018-04-02T07:04:28Z</time>
      </trkpt>
      <trkpt lat="48.19489" lon="6.74599">
        <ele>522.13</ele>
        <time>2018-04-02T07:04:38Z</time>
      </trkpt>
      <trkpt lat="48.1951" lon="6.74603">
        <ele>524.06</ele>
        <time>2018-04-02T07:04:51Z</time>
      </trkpt>
      <trkpt lat="48.19521" lon="6.74604">
        <ele>525.5</ele>
        <time>2018-04-02T07:04:58Z</time>
      </trkpt>
      <trkpt lat="48.19535" lon="6.74606">
        <ele>526.94</ele>
        <time>2018-04-02T07:05:04Z</time>
      </trkpt>
      <trkpt lat="48.19547" lon="6.74604">
        <ele>527.9</ele>
        <time>2018-04-02T07:05:12Z</time>
      </trkpt>
      <trkpt lat="48.19564" lon="6.74607">
        <ele>529.82</ele>
        <time>2018-04-02T07:05:27Z</time>
      </trkpt>
      <trkpt lat="48.19581" lon="6.74606">
        <ele>529.82</ele>
        <time>2018-04-02T07:05:37Z</time>
      </trkpt>
      <trkpt lat="48.19595" lon="6.74606">
        <ele>529.82</ele>
        <time>2018-04-02T07:05:44Z</time>
      </trkpt>
      <trkpt lat="48.19609" lon="6.74607">
        <ele>530.79</ele>
        <time>2018-04-02T07:05:53Z</time>
      </trkpt>
      <trkpt lat="48.19626" lon="6.74608">
        <ele>532.23</ele>
        <time>2018-04-02T07:06:01Z</time>
      </trkpt>
      <trkpt lat="48.19629" lon="6.74618">
        <ele>533.67</ele>
        <time>2018-04-02T07:06:11Z</time>
      </trkpt>
      <trkpt lat="48.19625" lon="6.74629">
        <ele>535.59</ele>
        <time>2018-04-02T07:06:20Z</time>
      </trkpt>
      <trkpt lat="48.19623" lon="6.74644">
        <ele>536.55</ele>
        <time>2018-04-02T07:06:29Z</time>
      </trkpt>
      <trkpt lat="48.19623" lon="6.74658">
        <ele>538.48</ele>
        <time>2018-04-02T07:06:38Z</time>
      </trkpt>
      <trkpt lat="48.19625" lon="6.74672">
        <ele>540.4</ele>
        <time>2018-04-02T07:06:48Z</time>
      </trkpt>
      <trkpt lat="48.19629" lon="6.74687">
        <ele>541.84</ele>
        <time>2018-04-02T07:07:06Z</time>
      </trkpt>
      <trkpt lat="48.19629" lon="6.74699">
        <ele>543.76</ele>
        <time>2018-04-02T07:07:29Z</time>
      </trkpt>
      <trkpt lat="48.19626" lon="6.74716">
        <ele>546.17</ele>
        <time>2018-04-02T07:07:45Z</time>
      </trkpt>
      <trkpt lat="48.19625" lon="6.74731">
        <ele>547.13</ele>
        <time>2018-04-02T07:08:24Z</time>
      </trkpt>
      <trkpt lat="48.19621" lon="6.74744">
        <ele>549.05</ele>
        <time>2018-04-02T07:08:38Z</time>
      </trkpt>
      <trkpt lat="48.19615" lon="6.74757">
        <ele>550.97</ele>
        <time>2018-04-02T07:08:45Z</time>
      </trkpt>
      <trkpt lat="48.1961" lon="6.7477">
        <ele>552.9</ele>
        <time>2018-04-02T07:08:52Z</time>
      </trkpt>
      <trkpt lat="48.19604" lon="6.74783">
        <ele>554.82</ele>
        <time>2018-04-02T07:09:00Z</time>
      </trkpt>
      <trkpt lat="48.19601" lon="6.74801">
        <ele>556.74</ele>
        <time>2018-04-02T07:09:08Z</time>
      </trkpt>
      <trkpt lat="48.196" lon="6.74819">
        <ele>558.66</ele>
        <time>2018-04-02T07:09:17Z</time>
      </trkpt>
      <trkpt lat="48.19599" lon="6.74829">
        <ele>559.62</ele>
        <time>2018-04-02T07:10:16Z</time>
      </trkpt>
      <trkpt lat="48.19589" lon="6.74834">
        <ele>560.11</ele>
        <time>2018-04-02T07:10:26Z</time>
      </trkpt>
      <trkpt lat="48.19578" lon="6.74838">
        <ele>559.62</ele>
        <time>2018-04-02T07:10:35Z</time>
      </trkpt>
      <trkpt lat="48.19567" lon="6.7484">
        <ele>560.11</ele>
        <time>2018-04-02T07:10:41Z</time>
      </trkpt>
      <trkpt lat="48.19554" lon="6.74843">
        <ele>560.11</ele>
        <time>2018-04-02T07:10:47Z</time>
      </trkpt>
      <trkpt lat="48.19541" lon="6.74848">
        <ele>560.11</ele>
        <time>2018-04-02T07:10:55Z</time>
      </trkpt>
      <trkpt lat="48.19531" lon="6.74857">
        <ele>559.14</ele>
        <time>2018-04-02T07:11:03Z</time>
      </trkpt>
      <trkpt lat="48.19524" lon="6.74875">
        <ele>558.18</ele>
        <time>2018-04-02T07:11:13Z</time>
      </trkpt>
      <trkpt lat="48.19513" lon="6.74882">
        <ele>557.7</ele>
        <time>2018-04-02T07:11:16Z</time>
      </trkpt>
      <trkpt lat="48.19489" lon="6.74895">
        <ele>557.7</ele>
        <time>2018-04-02T07:11:19Z</time>
      </trkpt>
      <trkpt lat="48.19475" lon="6.74887">
        <ele>557.22</ele>
        <time>2018-04-02T07:11:22Z</time>
      </trkpt>
      <trkpt lat="48.19469" lon="6.74872">
        <ele>556.26</ele>
        <time>2018-04-02T07:11:25Z</time>
      </trkpt>
      <trkpt lat="48.19465" lon="6.74855">
        <ele>555.78</ele>
        <time>2018-04-02T07:11:28Z</time>
      </trkpt>
      <trkpt lat="48.19463" lon="6.7484">
        <ele>556.26</ele>
        <time>2018-04-02T07:11:31Z</time>
      </trkpt>
      <trkpt lat="48.19461" lon="6.74827">
        <ele>555.78</ele>
        <time>2018-04-02T07:11:34Z</time>
      </trkpt>
      <trkpt lat="48.19457" lon="6.74811">
        <ele>555.3</ele>
        <time>2018-04-02T07:11:37Z</time>
      </trkpt>
      <trkpt lat="48.1945" lon="6.74795">
        <ele>555.78</ele>
        <time>2018-04-02T07:11:40Z</time>
      </trkpt>
      <trkpt lat="48.19443" lon="6.74779">
        <ele>555.3</ele>
        <time>2018-04-02T07:11:43Z</time>
      </trkpt>
      <trkpt lat="48.19436" lon="6.74764">
        <ele>554.34</ele>
        <time>2018-04-02T07:11:46Z</time>
      </trkpt>
      <trkpt lat="48.19427" lon="6.7475">
        <ele>554.34</ele>
        <time>2018-04-02T07:11:49Z</time>
      </trkpt>
      <trkpt lat="48.19418" lon="6.74738">
        <ele>553.38</ele>
        <time>2018-04-02T07:11:52Z</time>
      </trkpt>
      <trkpt lat="48.19407" lon="6.74726">
        <ele>552.9</ele>
        <time>2018-04-02T07:11:55Z</time>
      </trkpt>
      <trkpt lat="48.19396" lon="6.74718">
        <ele>552.41</ele>
        <time>2018-04-02T07:11:58Z</time>
      </trkpt>
      <trkpt lat="48.19386" lon="6.74712">
        <ele>552.41</ele>
        <time>2018-04-02T07:12:01Z</time>
      </trkpt>
      <trkpt lat="48.19373" lon="6.74705">
        <ele>552.41</ele>
        <time>2018-04-02T07:12:04Z</time>
      </trkpt>
      <trkpt lat="48.19359" lon="6.74698">
        <ele>551.93</ele>
        <time>2018-04-02T07:12:07Z</time>
      </trkpt>
      <trkpt lat="48.19349" lon="6.74694">
        <ele>552.41</ele>
        <time>2018-04-02T07:12:09Z</time>
      </trkpt>
      <trkpt lat="48.1934" lon="6.74691">
        <ele>553.38</ele>
        <time>2018-04-02T07:12:11Z</time>
      </trkpt>
      <trkpt lat="48.19326" lon="6.7469">
        <ele>553.38</ele>
        <time>2018-04-02T07:12:14Z</time>
      </trkpt>
      <trkpt lat="48.19312" lon="6.74692">
        <ele>553.38</ele>
        <time>2018-04-02T07:12:17Z</time>
      </trkpt>
      <trkpt lat="48.19301" lon="6.74697">
        <ele>553.38</ele>
        <time>2018-04-02T07:12:20Z</time>
      </trkpt>
      <trkpt lat="48.19288" lon="6.74701">
        <ele>552.9</ele>
        <time>2018-04-02T07:12:23Z</time>
      </trkpt>
      <trkpt lat="48.19277" lon="6.74709">
        <ele>552.9</ele>
        <time>2018-04-02T07:12:26Z</time>
      </trkpt>
      <trkpt lat="48.19264" lon="6.74716">
        <ele>553.38</ele>
        <time>2018-04-02T07:12:29Z</time>
      </trkpt>
      <trkpt lat="48.19254" lon="6.74725">
        <ele>552.9</ele>
        <time>2018-04-02T07:12:32Z</time>
      </trkpt>
      <trkpt lat="48.19244" lon="6.74733">
        <ele>552.9</ele>
        <time>2018-04-02T07:12:35Z</time>
      </trkpt>
      <trkpt lat="48.19234" lon="6.74742">
        <ele>552.41</ele>
        <time>2018-04-02T07:12:38Z</time>
      </trkpt>
      <trkpt lat="48.19225" lon="6.74753">
        <ele>552.41</ele>
        <time>2018-04-02T07:12:41Z</time>
      </trkpt>
      <trkpt lat="48.19216" lon="6.74764">
        <ele>552.41</ele>
        <time>2018-04-02T07:12:44Z</time>
      </trkpt>
      <trkpt lat="48.19205" lon="6.74775">
        <ele>551.45</ele>
        <time>2018-04-02T07:12:47Z</time>
      </trkpt>
      <trkpt lat="48.19196" lon="6.74788">
        <ele>551.93</ele>
        <time>2018-04-02T07:12:50Z</time>
      </trkpt>
      <trkpt lat="48.19189" lon="6.74804">
        <ele>551.93</ele>
        <time>2018-04-02T07:12:53Z</time>
      </trkpt>
      <trkpt lat="48.19184" lon="6.74821">
        <ele>551.93</ele>
        <time>2018-04-02T07:12:56Z</time>
      </trkpt>
      <trkpt lat="48.19179" lon="6.74835">
        <ele>552.41</ele>
        <time>2018-04-02T07:12:59Z</time>
      </trkpt>
      <trkpt lat="48.19174" lon="6.74852">
        <ele>552.41</ele>
        <time>2018-04-02T07:13:03Z</time>
      </trkpt>
      <trkpt lat="48.19168" lon="6.74866">
        <ele>552.41</ele>
        <time>2018-04-02T07:13:06Z</time>
      </trkpt>
      <trkpt lat="48.19163" lon="6.74881">
        <ele>552.9</ele>
        <time>2018-04-02T07:13:09Z</time>
      </trkpt>
      <trkpt lat="48.19161" lon="6.74897">
        <ele>552.9</ele>
        <time>2018-04-02T07:13:12Z</time>
      </trkpt>
      <trkpt lat="48.19161" lon="6.74914">
        <ele>552.9</ele>
        <time>2018-04-02T07:13:16Z</time>
      </trkpt>
      <trkpt lat="48.19165" lon="6.74927">
        <ele>552.9</ele>
        <time>2018-04-02T07:13:20Z</time>
      </trkpt>
      <trkpt lat="48.19168" lon="6.74942">
        <ele>553.38</ele>
        <time>2018-04-02T07:13:25Z</time>
      </trkpt>
      <trkpt lat="48.19171" lon="6.74959">
        <ele>552.41</ele>
        <time>2018-04-02T07:13:29Z</time>
      </trkpt>
      <trkpt lat="48.19172" lon="6.74977">
        <ele>552.41</ele>
        <time>2018-04-02T07:13:33Z</time>
      </trkpt>
      <trkpt lat="48.19171" lon="6.74994">
        <ele>552.41</ele>
        <time>2018-04-02T07:13:36Z</time>
      </trkpt>
      <trkpt lat="48.19169" lon="6.75011">
        <ele>552.41</ele>
        <time>2018-04-02T07:13:39Z</time>
      </trkpt>
      <trkpt lat="48.19167" lon="6.75027">
        <ele>551.93</ele>
        <time>2018-04-02T07:13:42Z</time>
      </trkpt>
      <trkpt lat="48.19164" lon="6.75042">
        <ele>552.41</ele>
        <time>2018-04-02T07:13:45Z</time>
      </trkpt>
      <trkpt lat="48.1916" lon="6.75057">
        <ele>553.38</ele>
        <time>2018-04-02T07:13:48Z</time>
      </trkpt>
      <trkpt lat="48.19157" lon="6.75074">
        <ele>554.34</ele>
        <time>2018-04-02T07:13:52Z</time>
      </trkpt>
      <trkpt lat="48.19154" lon="6.75091">
        <ele>555.3</ele>
        <time>2018-04-02T07:13:56Z</time>
      </trkpt>
      <trkpt lat="48.1915" lon="6.75105">
        <ele>555.78</ele>
        <time>2018-04-02T07:13:59Z</time>
      </trkpt>
      <trkpt lat="48.19146" lon="6.7512">
        <ele>556.74</ele>
        <time>2018-04-02T07:14:03Z</time>
      </trkpt>
      <trkpt lat="48.19144" lon="6.75138">
        <ele>558.18</ele>
        <time>2018-04-02T07:14:08Z</time>
      </trkpt>
      <trkpt lat="48.19142" lon="6.75155">
        <ele>559.14</ele>
        <time>2018-04-02T07:14:13Z</time>
      </trkpt>
      <trkpt lat="48.19141" lon="6.75171">
        <ele>559.62</ele>
        <time>2018-04-02T07:14:18Z</time>
      </trkpt>
      <trkpt lat="48.1914" lon="6.75188">
        <ele>560.11</ele>
        <time>2018-04-02T07:14:23Z</time>
      </trkpt>
      <trkpt lat="48.1914" lon="6.75203">
        <ele>561.07</ele>
        <time>2018-04-02T07:14:27Z</time>
      </trkpt>
      <trkpt lat="48.19141" lon="6.75218">
        <ele>561.55</ele>
        <time>2018-04-02T07:14:31Z</time>
      </trkpt>
      <trkpt lat="48.19141" lon="6.75235">
        <ele>562.51</ele>
        <time>2018-04-02T07:14:36Z</time>
      </trkpt>
      <trkpt lat="48.19143" lon="6.7525">
        <ele>562.03</ele>
        <time>2018-04-02T07:14:41Z</time>
      </trkpt>
      <trkpt lat="48.19144" lon="6.75264">
        <ele>563.47</ele>
        <time>2018-04-02T07:14:46Z</time>
      </trkpt>
      <trkpt lat="48.19145" lon="6.75279">
        <ele>564.43</ele>
        <time>2018-04-02T07:14:51Z</time>
      </trkpt>
      <trkpt lat="48.19145" lon="6.75293">
        <ele>565.39</ele>
        <time>2018-04-02T07:14:56Z</time>
      </trkpt>
      <trkpt lat="48.19146" lon="6.75307">
        <ele>567.32</ele>
        <time>2018-04-02T07:15:01Z</time>
      </trkpt>
      <trkpt lat="48.19149" lon="6.75321">
        <ele>568.76</ele>
        <time>2018-04-02T07:15:06Z</time>
      </trkpt>
      <trkpt lat="48.19151" lon="6.75335">
        <ele>569.24</ele>
        <time>2018-04-02T07:15:11Z</time>
      </trkpt>
      <trkpt lat="48.19153" lon="6.7535">
        <ele>569.72</ele>
        <time>2018-04-02T07:15:17Z</time>
      </trkpt>
      <trkpt lat="48.19156" lon="6.75364">
        <ele>571.16</ele>
        <time>2018-04-02T07:15:23Z</time>
      </trkpt>
      <trkpt lat="48.19158" lon="6.75378">
        <ele>571.64</ele>
        <time>2018-04-02T07:15:29Z</time>
      </trkpt>
      <trkpt lat="48.19159" lon="6.75393">
        <ele>572.12</ele>
        <time>2018-04-02T07:15:36Z</time>
      </trkpt>
      <trkpt lat="48.19162" lon="6.75405">
        <ele>572.6</ele>
        <time>2018-04-02T07:15:44Z</time>
      </trkpt>
      <trkpt lat="48.19167" lon="6.75415">
        <ele>572.12</ele>
        <time>2018-04-02T07:15:52Z</time>
      </trkpt>
      <trkpt lat="48.19174" lon="6.75427">
        <ele>572.6</ele>
        <time>2018-04-02T07:15:59Z</time>
      </trkpt>
      <trkpt lat="48.19181" lon="6.75437">
        <ele>574.04</ele>
        <time>2018-04-02T07:16:06Z</time>
      </trkpt>
      <trkpt lat="48.19189" lon="6.75445">
        <ele>575.97</ele>
        <time>2018-04-02T07:16:13Z</time>
      </trkpt>
      <trkpt lat="48.19197" lon="6.75453">
        <ele>577.89</ele>
        <time>2018-04-02T07:16:20Z</time>
      </trkpt>
      <trkpt lat="48.19206" lon="6.75461">
        <ele>578.85</ele>
        <time>2018-04-02T07:16:27Z</time>
      </trkpt>
      <trkpt lat="48.19215" lon="6.75467">
        <ele>580.29</ele>
        <time>2018-04-02T07:16:34Z</time>
      </trkpt>
      <trkpt lat="48.19225" lon="6.75474">
        <ele>581.25</ele>
        <time>2018-04-02T07:16:41Z</time>
      </trkpt>
      <trkpt lat="48.19233" lon="6.75482">
        <ele>582.7</ele>
        <time>2018-04-02T07:16:47Z</time>
      </trkpt>
      <trkpt lat="48.19241" lon="6.75489">
        <ele>583.66</ele>
        <time>2018-04-02T07:16:54Z</time>
      </trkpt>
      <trkpt lat="48.1925" lon="6.75496">
        <ele>584.62</ele>
        <time>2018-04-02T07:17:01Z</time>
      </trkpt>
      <trkpt lat="48.1926" lon="6.75498">
        <ele>585.1</ele>
        <time>2018-04-02T07:17:08Z</time>
      </trkpt>
      <trkpt lat="48.1927" lon="6.75503">
        <ele>586.54</ele>
        <time>2018-04-02T07:17:15Z</time>
      </trkpt>
      <trkpt lat="48.1928" lon="6.75509">
        <ele>587.98</ele>
        <time>2018-04-02T07:17:22Z</time>
      </trkpt>
      <trkpt lat="48.19288" lon="6.75514">
        <ele>588.95</ele>
        <time>2018-04-02T07:17:28Z</time>
      </trkpt>
      <trkpt lat="48.19298" lon="6.7552">
        <ele>590.39</ele>
        <time>2018-04-02T07:17:35Z</time>
      </trkpt>
      <trkpt lat="48.19307" lon="6.75525">
        <ele>590.87</ele>
        <time>2018-04-02T07:17:42Z</time>
      </trkpt>
      <trkpt lat="48.19315" lon="6.7553">
        <ele>592.79</ele>
        <time>2018-04-02T07:17:48Z</time>
      </trkpt>
      <trkpt lat="48.19324" lon="6.75536">
        <ele>594.23</ele>
        <time>2018-04-02T07:17:54Z</time>
      </trkpt>
      <trkpt lat="48.19332" lon="6.75541">
        <ele>595.19</ele>
        <time>2018-04-02T07:18:01Z</time>
      </trkpt>
      <trkpt lat="48.1934" lon="6.75547">
        <ele>597.6</ele>
        <time>2018-04-02T07:18:08Z</time>
      </trkpt>
      <trkpt lat="48.19346" lon="6.75559">
        <ele>599.52</ele>
        <time>2018-04-02T07:18:16Z</time>
      </trkpt>
      <trkpt lat="48.1935" lon="6.75573">
        <ele>600.48</ele>
        <time>2018-04-02T07:18:23Z</time>
      </trkpt>
      <trkpt lat="48.19349" lon="6.75587">
        <ele>602.4</ele>
        <time>2018-04-02T07:18:30Z</time>
      </trkpt>
      <trkpt lat="48.19351" lon="6.75603">
        <ele>602.88</ele>
        <time>2018-04-02T07:18:37Z</time>
      </trkpt>
      <trkpt lat="48.19353" lon="6.75617">
        <ele>604.33</ele>
        <time>2018-04-02T07:18:44Z</time>
      </trkpt>
      <trkpt lat="48.19355" lon="6.75631">
        <ele>606.25</ele>
        <time>2018-04-02T07:18:51Z</time>
      </trkpt>
      <trkpt lat="48.19358" lon="6.75645">
        <ele>607.21</ele>
        <time>2018-04-02T07:18:58Z</time>
      </trkpt>
      <trkpt lat="48.19359" lon="6.75659">
        <ele>607.21</ele>
        <time>2018-04-02T07:19:08Z</time>
      </trkpt>
      <trkpt lat="48.19365" lon="6.75658">
        <ele>607.69</ele>
        <time>2018-04-02T07:19:18Z</time>
      </trkpt>
      <trkpt lat="48.19364" lon="6.75644">
        <ele>607.69</ele>
        <time>2018-04-02T07:19:27Z</time>
      </trkpt>
      <trkpt lat="48.19359" lon="6.75653">
        <ele>606.73</ele>
        <time>2018-04-02T07:19:39Z</time>
      </trkpt>
      <trkpt lat="48.19366" lon="6.75655">
        <ele>607.69</ele>
        <time>2018-04-02T07:19:47Z</time>
      </trkpt>
      <trkpt lat="48.19363" lon="6.75644">
        <ele>606.73</ele>
        <time>2018-04-02T07:19:59Z</time>
      </trkpt>
      <trkpt lat="48.19363" lon="6.75659">
        <ele>607.21</ele>
        <time>2018-04-02T07:20:12Z</time>
      </trkpt>
      <trkpt lat="48.19367" lon="6.75648">
        <ele>607.69</ele>
        <time>2018-04-02T07:20:19Z</time>
      </trkpt>
      <trkpt lat="48.19362" lon="6.75655">
        <ele>606.73</ele>
        <time>2018-04-02T07:21:36Z</time>
      </trkpt>
      <trkpt lat="48.19363" lon="6.75669">
        <ele>607.21</ele>
        <time>2018-04-02T07:21:44Z</time>
      </trkpt>
      <trkpt lat="48.19364" lon="6.75683">
        <ele>606.73</ele>
        <time>2018-04-02T07:21:50Z</time>
      </trkpt>
      <trkpt lat="48.19365" lon="6.75698">
        <ele>606.73</ele>
        <time>2018-04-02T07:21:56Z</time>
      </trkpt>
      <trkpt lat="48.19367" lon="6.75713">
        <ele>606.73</ele>
        <time>2018-04-02T07:22:01Z</time>
      </trkpt>
      <trkpt lat="48.19366" lon="6.75727">
        <ele>607.21</ele>
        <time>2018-04-02T07:22:06Z</time>
      </trkpt>
      <trkpt lat="48.19365" lon="6.75741">
        <ele>607.69</ele>
        <time>2018-04-02T07:22:11Z</time>
      </trkpt>
      <trkpt lat="48.19363" lon="6.75759">
        <ele>607.21</ele>
        <time>2018-04-02T07:22:16Z</time>
      </trkpt>
      <trkpt lat="48.19359" lon="6.75774">
        <ele>607.21</ele>
        <time>2018-04-02T07:22:20Z</time>
      </trkpt>
      <trkpt lat="48.19355" lon="6.75789">
        <ele>607.69</ele>
        <time>2018-04-02T07:22:24Z</time>
      </trkpt>
      <trkpt lat="48.19348" lon="6.75806">
        <ele>606.25</ele>
        <time>2018-04-02T07:22:28Z</time>
      </trkpt>
      <trkpt lat="48.19343" lon="6.7582">
        <ele>606.25</ele>
        <time>2018-04-02T07:22:31Z</time>
      </trkpt>
      <trkpt lat="48.19338" lon="6.75834">
        <ele>605.77</ele>
        <time>2018-04-02T07:22:34Z</time>
      </trkpt>
      <trkpt lat="48.19333" lon="6.75848">
        <ele>605.29</ele>
        <time>2018-04-02T07:22:37Z</time>
      </trkpt>
      <trkpt lat="48.19329" lon="6.75865">
        <ele>605.29</ele>
        <time>2018-04-02T07:22:40Z</time>
      </trkpt>
      <trkpt lat="48.19327" lon="6.7588">
        <ele>605.29</ele>
        <time>2018-04-02T07:22:43Z</time>
      </trkpt>
      <trkpt lat="48.19326" lon="6.75896">
        <ele>605.77</ele>
        <time>2018-04-02T07:22:46Z</time>
      </trkpt>
      <trkpt lat="48.19325" lon="6.75914">
        <ele>604.81</ele>
        <time>2018-04-02T07:22:49Z</time>
      </trkpt>
      <trkpt lat="48.19325" lon="6.75934">
        <ele>604.81</ele>
        <time>2018-04-02T07:22:52Z</time>
      </trkpt>
      <trkpt lat="48.19325" lon="6.75948">
        <ele>603.36</ele>
        <time>2018-04-02T07:22:54Z</time>
      </trkpt>
      <trkpt lat="48.19325" lon="6.75962">
        <ele>602.4</ele>
        <time>2018-04-02T07:22:56Z</time>
      </trkpt>
      <trkpt lat="48.19327" lon="6.75977">
        <ele>601.92</ele>
        <time>2018-04-02T07:22:58Z</time>
      </trkpt>
      <trkpt lat="48.19328" lon="6.75993">
        <ele>601.44</ele>
        <time>2018-04-02T07:23:00Z</time>
      </trkpt>
      <trkpt lat="48.19331" lon="6.76006">
        <ele>601.44</ele>
        <time>2018-04-02T07:23:02Z</time>
      </trkpt>
      <trkpt lat="48.19334" lon="6.76024">
        <ele>601.44</ele>
        <time>2018-04-02T07:23:05Z</time>
      </trkpt>
      <trkpt lat="48.19334" lon="6.7604">
        <ele>600.96</ele>
        <time>2018-04-02T07:23:08Z</time>
      </trkpt>
      <trkpt lat="48.19335" lon="6.76055">
        <ele>599.52</ele>
        <time>2018-04-02T07:23:11Z</time>
      </trkpt>
      <trkpt lat="48.19337" lon="6.76069">
        <ele>598.08</ele>
        <time>2018-04-02T07:23:13Z</time>
      </trkpt>
      <trkpt lat="48.19341" lon="6.76085">
        <ele>597.12</ele>
        <time>2018-04-02T07:23:15Z</time>
      </trkpt>
      <trkpt lat="48.19345" lon="6.76103">
        <ele>596.15</ele>
        <time>2018-04-02T07:23:17Z</time>
      </trkpt>
      <trkpt lat="48.19349" lon="6.76122">
        <ele>594.71</ele>
        <time>2018-04-02T07:23:19Z</time>
      </trkpt>
      <trkpt lat="48.19352" lon="6.76144">
        <ele>592.79</ele>
        <time>2018-04-02T07:23:21Z</time>
      </trkpt>
      <trkpt lat="48.19359" lon="6.76168">
        <ele>591.35</ele>
        <time>2018-04-02T07:23:23Z</time>
      </trkpt>
      <trkpt lat="48.19366" lon="6.76192">
        <ele>589.43</ele>
        <time>2018-04-02T07:23:25Z</time>
      </trkpt>
      <trkpt lat="48.19375" lon="6.76216">
        <ele>587.02</ele>
        <time>2018-04-02T07:23:27Z</time>
      </trkpt>
      <trkpt lat="48.19382" lon="6.76239">
        <ele>586.06</ele>
        <time>2018-04-02T07:23:29Z</time>
      </trkpt>
      <trkpt lat="48.1939" lon="6.76259">
        <ele>584.62</ele>
        <time>2018-04-02T07:23:31Z</time>
      </trkpt>
      <trkpt lat="48.19401" lon="6.76278">
        <ele>581.25</ele>
        <time>2018-04-02T07:23:33Z</time>
      </trkpt>
      <trkpt lat="48.19414" lon="6.76294">
        <ele>579.81</ele>
        <time>2018-04-02T07:23:35Z</time>
      </trkpt>
      <trkpt lat="48.19429" lon="6.76309">
        <ele>577.41</ele>
        <time>2018-04-02T07:23:37Z</time>
      </trkpt>
      <trkpt lat="48.19437" lon="6.76317">
        <ele>577.41</ele>
        <time>2018-04-02T07:23:38Z</time>
      </trkpt>
      <trkpt lat="48.19444" lon="6.76327">
        <ele>575.97</ele>
        <time>2018-04-02T07:23:39Z</time>
      </trkpt>
      <trkpt lat="48.19451" lon="6.76337">
        <ele>575.01</ele>
        <time>2018-04-02T07:23:40Z</time>
      </trkpt>
      <trkpt lat="48.19458" lon="6.76347">
        <ele>573.56</ele>
        <time>2018-04-02T07:23:41Z</time>
      </trkpt>
      <trkpt lat="48.19467" lon="6.76364">
        <ele>572.12</ele>
        <time>2018-04-02T07:23:43Z</time>
      </trkpt>
      <trkpt lat="48.19475" lon="6.7638">
        <ele>571.16</ele>
        <time>2018-04-02T07:23:45Z</time>
      </trkpt>
      <trkpt lat="48.19484" lon="6.76398">
        <ele>569.72</ele>
        <time>2018-04-02T07:23:47Z</time>
      </trkpt>
      <trkpt lat="48.19489" lon="6.76416">
        <ele>568.28</ele>
        <time>2018-04-02T07:23:49Z</time>
      </trkpt>
      <trkpt lat="48.19488" lon="6.76432">
        <ele>567.32</ele>
        <time>2018-04-02T07:23:51Z</time>
      </trkpt>
      <trkpt lat="48.19486" lon="6.76447">
        <ele>564.43</ele>
        <time>2018-04-02T07:23:53Z</time>
      </trkpt>
      <trkpt lat="48.19485" lon="6.76469">
        <ele>562.99</ele>
        <time>2018-04-02T07:23:54Z</time>
      </trkpt>
      <trkpt lat="48.19485" lon="6.76496">
        <ele>560.11</ele>
        <time>2018-04-02T07:23:56Z</time>
      </trkpt>
      <trkpt lat="48.19485" lon="6.76522">
        <ele>558.66</ele>
        <time>2018-04-02T07:23:58Z</time>
      </trkpt>
      <trkpt lat="48.19481" lon="6.76546">
        <ele>556.74</ele>
        <time>2018-04-02T07:24:00Z</time>
      </trkpt>
      <trkpt lat="48.19478" lon="6.76569">
        <ele>554.34</ele>
        <time>2018-04-02T07:24:02Z</time>
      </trkpt>
      <trkpt lat="48.19479" lon="6.76594">
        <ele>552.41</ele>
        <time>2018-04-02T07:24:04Z</time>
      </trkpt>
      <trkpt lat="48.1948" lon="6.76617">
        <ele>550.49</ele>
        <time>2018-04-02T07:24:06Z</time>
      </trkpt>
      <trkpt lat="48.1948" lon="6.7664">
        <ele>548.57</ele>
        <time>2018-04-02T07:24:08Z</time>
      </trkpt>
      <trkpt lat="48.19475" lon="6.76661">
        <ele>545.69</ele>
        <time>2018-04-02T07:24:10Z</time>
      </trkpt>
      <trkpt lat="48.19466" lon="6.7668">
        <ele>544.72</ele>
        <time>2018-04-02T07:24:12Z</time>
      </trkpt>
      <trkpt lat="48.19462" lon="6.76697">
        <ele>543.28</ele>
        <time>2018-04-02T07:24:14Z</time>
      </trkpt>
      <trkpt lat="48.1946" lon="6.76713">
        <ele>541.84</ele>
        <time>2018-04-02T07:24:16Z</time>
      </trkpt>
      <trkpt lat="48.19459" lon="6.7673">
        <ele>539.92</ele>
        <time>2018-04-02T07:24:18Z</time>
      </trkpt>
      <trkpt lat="48.1946" lon="6.76749">
        <ele>537.51</ele>
        <time>2018-04-02T07:24:20Z</time>
      </trkpt>
      <trkpt lat="48.1946" lon="6.76767">
        <ele>536.07</ele>
        <time>2018-04-02T07:24:22Z</time>
      </trkpt>
      <trkpt lat="48.1946" lon="6.76786">
        <ele>535.11</ele>
        <time>2018-04-02T07:24:24Z</time>
      </trkpt>
      <trkpt lat="48.19457" lon="6.76799">
        <ele>533.67</ele>
        <time>2018-04-02T07:24:26Z</time>
      </trkpt>
      <trkpt lat="48.1945" lon="6.76791">
        <ele>533.19</ele>
        <time>2018-04-02T07:24:33Z</time>
      </trkpt>
      <trkpt lat="48.19443" lon="6.76777">
        <ele>532.71</ele>
        <time>2018-04-02T07:24:40Z</time>
      </trkpt>
      <trkpt lat="48.19433" lon="6.76774">
        <ele>530.3</ele>
        <time>2018-04-02T07:24:46Z</time>
      </trkpt>
      <trkpt lat="48.19424" lon="6.76795">
        <ele>526.94</ele>
        <time>2018-04-02T07:26:11Z</time>
      </trkpt>
      <trkpt lat="48.1942" lon="6.76812">
        <ele>525.98</ele>
        <time>2018-04-02T07:26:14Z</time>
      </trkpt>
      <trkpt lat="48.19418" lon="6.76827">
        <ele>524.06</ele>
        <time>2018-04-02T07:26:17Z</time>
      </trkpt>
      <trkpt lat="48.19412" lon="6.76846">
        <ele>521.65</ele>
        <time>2018-04-02T07:26:20Z</time>
      </trkpt>
      <trkpt lat="48.19407" lon="6.76861">
        <ele>518.77</ele>
        <time>2018-04-02T07:26:22Z</time>
      </trkpt>
      <trkpt lat="48.19404" lon="6.76878">
        <ele>516.37</ele>
        <time>2018-04-02T07:26:24Z</time>
      </trkpt>
      <trkpt lat="48.19402" lon="6.76896">
        <ele>514.44</ele>
        <time>2018-04-02T07:26:26Z</time>
      </trkpt>
      <trkpt lat="48.19398" lon="6.76911">
        <ele>513.48</ele>
        <time>2018-04-02T07:26:27Z</time>
      </trkpt>
      <trkpt lat="48.19391" lon="6.7693">
        <ele>512.04</ele>
        <time>2018-04-02T07:26:29Z</time>
      </trkpt>
      <trkpt lat="48.19377" lon="6.76949">
        <ele>510.6</ele>
        <time>2018-04-02T07:26:31Z</time>
      </trkpt>
      <trkpt lat="48.19362" lon="6.76964">
        <ele>508.67</ele>
        <time>2018-04-02T07:26:33Z</time>
      </trkpt>
      <trkpt lat="48.19345" lon="6.76977">
        <ele>506.75</ele>
        <time>2018-04-02T07:26:35Z</time>
      </trkpt>
      <trkpt lat="48.19328" lon="6.7699">
        <ele>504.35</ele>
        <time>2018-04-02T07:26:37Z</time>
      </trkpt>
      <trkpt lat="48.19318" lon="6.76997">
        <ele>503.39</ele>
        <time>2018-04-02T07:26:38Z</time>
      </trkpt>
      <trkpt lat="48.1931" lon="6.77004">
        <ele>501.95</ele>
        <time>2018-04-02T07:26:39Z</time>
      </trkpt>
      <trkpt lat="48.19294" lon="6.77016">
        <ele>500.5</ele>
        <time>2018-04-02T07:26:41Z</time>
      </trkpt>
      <trkpt lat="48.19281" lon="6.77026">
        <ele>498.58</ele>
        <time>2018-04-02T07:26:43Z</time>
      </trkpt>
      <trkpt lat="48.19269" lon="6.77033">
        <ele>496.66</ele>
        <time>2018-04-02T07:26:45Z</time>
      </trkpt>
      <trkpt lat="48.19256" lon="6.7704">
        <ele>495.7</ele>
        <time>2018-04-02T07:26:48Z</time>
      </trkpt>
      <trkpt lat="48.19247" lon="6.77044">
        <ele>494.26</ele>
        <time>2018-04-02T07:26:51Z</time>
      </trkpt>
      <trkpt lat="48.19238" lon="6.77056">
        <ele>493.29</ele>
        <time>2018-04-02T07:27:25Z</time>
      </trkpt>
      <trkpt lat="48.19246" lon="6.7707">
        <ele>492.33</ele>
        <time>2018-04-02T07:27:34Z</time>
      </trkpt>
      <trkpt lat="48.1925" lon="6.77082">
        <ele>492.81</ele>
        <time>2018-04-02T07:27:43Z</time>
      </trkpt>
      <trkpt lat="48.19258" lon="6.77093">
        <ele>492.81</ele>
        <time>2018-04-02T07:27:51Z</time>
      </trkpt>
      <trkpt lat="48.19265" lon="6.77102">
        <ele>492.81</ele>
        <time>2018-04-02T07:28:00Z</time>
      </trkpt>
      <trkpt lat="48.19278" lon="6.77112">
        <ele>494.26</ele>
        <time>2018-04-02T07:28:10Z</time>
      </trkpt>
      <trkpt lat="48.1928" lon="6.77126">
        <ele>493.29</ele>
        <time>2018-04-02T07:28:17Z</time>
      </trkpt>
      <trkpt lat="48.19281" lon="6.77143">
        <ele>491.85</ele>
        <time>2018-04-02T07:28:24Z</time>
      </trkpt>
      <trkpt lat="48.19286" lon="6.77154">
        <ele>491.85</ele>
        <time>2018-04-02T07:28:30Z</time>
      </trkpt>
      <trkpt lat="48.19297" lon="6.77149">
        <ele>492.81</ele>
        <time>2018-04-02T07:28:34Z</time>
      </trkpt>
      <trkpt lat="48.19308" lon="6.77145">
        <ele>494.26</ele>
        <time>2018-04-02T07:28:39Z</time>
      </trkpt>
      <trkpt lat="48.19318" lon="6.77141">
        <ele>494.26</ele>
        <time>2018-04-02T07:28:45Z</time>
      </trkpt>
      <trkpt lat="48.19328" lon="6.77139">
        <ele>495.22</ele>
        <time>2018-04-02T07:28:51Z</time>
      </trkpt>
      <trkpt lat="48.19335" lon="6.77145">
        <ele>496.18</ele>
        <time>2018-04-02T07:28:59Z</time>
      </trkpt>
      <trkpt lat="48.19335" lon="6.77151">
        <ele>497.62</ele>
        <time>2018-04-02T07:29:08Z</time>
      </trkpt>
      <trkpt lat="48.19347" lon="6.77162">
        <ele>499.54</ele>
        <time>2018-04-02T07:29:15Z</time>
      </trkpt>
      <trkpt lat="48.1936" lon="6.77173">
        <ele>500.5</ele>
        <time>2018-04-02T07:29:21Z</time>
      </trkpt>
      <trkpt lat="48.19368" lon="6.77186">
        <ele>500.02</ele>
        <time>2018-04-02T07:29:27Z</time>
      </trkpt>
      <trkpt lat="48.19375" lon="6.77198">
        <ele>500.02</ele>
        <time>2018-04-02T07:29:33Z</time>
      </trkpt>
      <trkpt lat="48.19385" lon="6.77197">
        <ele>500.5</ele>
        <time>2018-04-02T07:29:38Z</time>
      </trkpt>
      <trkpt lat="48.19394" lon="6.77199">
        <ele>500.5</ele>
        <time>2018-04-02T07:29:47Z</time>
      </trkpt>
      <trkpt lat="48.19403" lon="6.77211">
        <ele>500.5</ele>
        <time>2018-04-02T07:29:53Z</time>
      </trkpt>
      <trkpt lat="48.19411" lon="6.77224">
        <ele>500.5</ele>
        <time>2018-04-02T07:29:58Z</time>
      </trkpt>
      <trkpt lat="48.19416" lon="6.7724">
        <ele>499.06</ele>
        <time>2018-04-02T07:30:02Z</time>
      </trkpt>
      <trkpt lat="48.19421" lon="6.77255">
        <ele>498.58</ele>
        <time>2018-04-02T07:30:06Z</time>
      </trkpt>
      <trkpt lat="48.19427" lon="6.77272">
        <ele>498.58</ele>
        <time>2018-04-02T07:30:12Z</time>
      </trkpt>
      <trkpt lat="48.19433" lon="6.77288">
        <ele>496.66</ele>
        <time>2018-04-02T07:30:17Z</time>
      </trkpt>
      <trkpt lat="48.19441" lon="6.77302">
        <ele>495.7</ele>
        <time>2018-04-02T07:30:20Z</time>
      </trkpt>
      <trkpt lat="48.19449" lon="6.77317">
        <ele>494.26</ele>
        <time>2018-04-02T07:30:23Z</time>
      </trkpt>
      <trkpt lat="48.19455" lon="6.77331">
        <ele>492.81</ele>
        <time>2018-04-02T07:30:28Z</time>
      </trkpt>
      <trkpt lat="48.19464" lon="6.77337">
        <ele>492.33</ele>
        <time>2018-04-02T07:30:36Z</time>
      </trkpt>
      <trkpt lat="48.19476" lon="6.77331">
        <ele>492.81</ele>
        <time>2018-04-02T07:30:42Z</time>
      </trkpt>
      <trkpt lat="48.19487" lon="6.77327">
        <ele>491.37</ele>
        <time>2018-04-02T07:30:45Z</time>
      </trkpt>
      <trkpt lat="48.19497" lon="6.77327">
        <ele>490.89</ele>
        <time>2018-04-02T07:30:47Z</time>
      </trkpt>
      <trkpt lat="48.19509" lon="6.77324">
        <ele>491.37</ele>
        <time>2018-04-02T07:30:50Z</time>
      </trkpt>
      <trkpt lat="48.19519" lon="6.77312">
        <ele>493.77</ele>
        <time>2018-04-02T07:30:54Z</time>
      </trkpt>
      <trkpt lat="48.19529" lon="6.77307">
        <ele>496.18</ele>
        <time>2018-04-02T07:31:00Z</time>
      </trkpt>
      <trkpt lat="48.19542" lon="6.77315">
        <ele>497.14</ele>
        <time>2018-04-02T07:31:06Z</time>
      </trkpt>
      <trkpt lat="48.19553" lon="6.7732">
        <ele>498.1</ele>
        <time>2018-04-02T07:31:11Z</time>
      </trkpt>
      <trkpt lat="48.19564" lon="6.77327">
        <ele>498.1</ele>
        <time>2018-04-02T07:31:15Z</time>
      </trkpt>
      <trkpt lat="48.19572" lon="6.77334">
        <ele>498.58</ele>
        <time>2018-04-02T07:31:18Z</time>
      </trkpt>
      <trkpt lat="48.19581" lon="6.77339">
        <ele>499.06</ele>
        <time>2018-04-02T07:31:21Z</time>
      </trkpt>
      <trkpt lat="48.19592" lon="6.77346">
        <ele>500.5</ele>
        <time>2018-04-02T07:31:25Z</time>
      </trkpt>
      <trkpt lat="48.19601" lon="6.77352">
        <ele>500.02</ele>
        <time>2018-04-02T07:31:29Z</time>
      </trkpt>
      <trkpt lat="48.19612" lon="6.77357">
        <ele>500.5</ele>
        <time>2018-04-02T07:31:33Z</time>
      </trkpt>
      <trkpt lat="48.19623" lon="6.77363">
        <ele>499.54</ele>
        <time>2018-04-02T07:31:37Z</time>
      </trkpt>
      <trkpt lat="48.1963" lon="6.77372">
        <ele>497.62</ele>
        <time>2018-04-02T07:31:41Z</time>
      </trkpt>
      <trkpt lat="48.19638" lon="6.77378">
        <ele>495.7</ele>
        <time>2018-04-02T07:31:46Z</time>
      </trkpt>
      <trkpt lat="48.19648" lon="6.77383">
        <ele>495.7</ele>
        <time>2018-04-02T07:31:53Z</time>
      </trkpt>
      <trkpt lat="48.19656" lon="6.77387">
        <ele>495.22</ele>
        <time>2018-04-02T07:32:10Z</time>
      </trkpt>
      <trkpt lat="48.19667" lon="6.77388">
        <ele>496.18</ele>
        <time>2018-04-02T07:32:16Z</time>
      </trkpt>
      <trkpt lat="48.19677" lon="6.7739">
        <ele>496.66</ele>
        <time>2018-04-02T07:32:22Z</time>
      </trkpt>
      <trkpt lat="48.19686" lon="6.77391">
        <ele>497.62</ele>
        <time>2018-04-02T07:32:30Z</time>
      </trkpt>
      <trkpt lat="48.19697" lon="6.7739">
        <ele>498.1</ele>
        <time>2018-04-02T07:32:36Z</time>
      </trkpt>
      <trkpt lat="48.19707" lon="6.77389">
        <ele>499.06</ele>
        <time>2018-04-02T07:32:41Z</time>
      </trkpt>
      <trkpt lat="48.19716" lon="6.77391">
        <ele>499.54</ele>
        <time>2018-04-02T07:32:47Z</time>
      </trkpt>
      <trkpt lat="48.19727" lon="6.77394">
        <ele>499.54</ele>
        <time>2018-04-02T07:32:53Z</time>
      </trkpt>
      <trkpt lat="48.19735" lon="6.77392">
        <ele>500.02</ele>
        <time>2018-04-02T07:32:59Z</time>
      </trkpt>
      <trkpt lat="48.19746" lon="6.77391">
        <ele>500.02</ele>
        <time>2018-04-02T07:33:05Z</time>
      </trkpt>
      <trkpt lat="48.19757" lon="6.7739">
        <ele>500.02</ele>
        <time>2018-04-02T07:33:10Z</time>
      </trkpt>
      <trkpt lat="48.19764" lon="6.77382">
        <ele>501.46</ele>
        <time>2018-04-02T07:33:16Z</time>
      </trkpt>
      <trkpt lat="48.19775" lon="6.77376">
        <ele>502.43</ele>
        <time>2018-04-02T07:33:24Z</time>
      </trkpt>
      <trkpt lat="48.19783" lon="6.77367">
        <ele>504.35</ele>
        <time>2018-04-02T07:33:32Z</time>
      </trkpt>
      <trkpt lat="48.19788" lon="6.77353">
        <ele>506.75</ele>
        <time>2018-04-02T07:33:41Z</time>
      </trkpt>
      <trkpt lat="48.19793" lon="6.7734">
        <ele>508.67</ele>
        <time>2018-04-02T07:33:50Z</time>
      </trkpt>
      <trkpt lat="48.19797" lon="6.77327">
        <ele>510.6</ele>
        <time>2018-04-02T07:34:00Z</time>
      </trkpt>
      <trkpt lat="48.19802" lon="6.77312">
        <ele>512.52</ele>
        <time>2018-04-02T07:34:11Z</time>
      </trkpt>
      <trkpt lat="48.19809" lon="6.77299">
        <ele>514.92</ele>
        <time>2018-04-02T07:34:22Z</time>
      </trkpt>
      <trkpt lat="48.19817" lon="6.77287">
        <ele>515.88</ele>
        <time>2018-04-02T07:34:32Z</time>
      </trkpt>
      <trkpt lat="48.19829" lon="6.77278">
        <ele>517.33</ele>
        <time>2018-04-02T07:34:42Z</time>
      </trkpt>
      <trkpt lat="48.19837" lon="6.7727">
        <ele>518.77</ele>
        <time>2018-04-02T07:34:50Z</time>
      </trkpt>
      <trkpt lat="48.19845" lon="6.77262">
        <ele>520.21</ele>
        <time>2018-04-02T07:34:59Z</time>
      </trkpt>
      <trkpt lat="48.19854" lon="6.77257">
        <ele>522.13</ele>
        <time>2018-04-02T07:35:08Z</time>
      </trkpt>
      <trkpt lat="48.19861" lon="6.77249">
        <ele>524.06</ele>
        <time>2018-04-02T07:35:18Z</time>
      </trkpt>
      <trkpt lat="48.19868" lon="6.77239">
        <ele>525.5</ele>
        <time>2018-04-02T07:35:26Z</time>
      </trkpt>
      <trkpt lat="48.19877" lon="6.77234">
        <ele>527.42</ele>
        <time>2018-04-02T07:35:37Z</time>
      </trkpt>
      <trkpt lat="48.19886" lon="6.77229">
        <ele>528.86</ele>
        <time>2018-04-02T07:35:47Z</time>
      </trkpt>
      <trkpt lat="48.19891" lon="6.77227">
        <ele>530.3</ele>
        <time>2018-04-02T07:35:55Z</time>
      </trkpt>
      <trkpt lat="48.19901" lon="6.77226">
        <ele>530.79</ele>
        <time>2018-04-02T07:37:54Z</time>
      </trkpt>
      <trkpt lat="48.19909" lon="6.77231">
        <ele>531.27</ele>
        <time>2018-04-02T07:40:12Z</time>
      </trkpt>
      <trkpt lat="48.19919" lon="6.77241">
        <ele>532.71</ele>
        <time>2018-04-02T07:40:19Z</time>
      </trkpt>
      <trkpt lat="48.19927" lon="6.77255">
        <ele>536.55</ele>
        <time>2018-04-02T07:40:35Z</time>
      </trkpt>
      <trkpt lat="48.19943" lon="6.77264">
        <ele>538.96</ele>
        <time>2018-04-02T07:41:15Z</time>
      </trkpt>
      <trkpt lat="48.19945" lon="6.77271">
        <ele>538.48</ele>
        <time>2018-04-02T07:43:35Z</time>
      </trkpt>
      <trkpt lat="48.19951" lon="6.77288">
        <ele>538.48</ele>
        <time>2018-04-02T07:43:39Z</time>
      </trkpt>
      <trkpt lat="48.19956" lon="6.77304">
        <ele>537.03</ele>
        <time>2018-04-02T07:43:43Z</time>
      </trkpt>
      <trkpt lat="48.19956" lon="6.77323">
        <ele>535.11</ele>
        <time>2018-04-02T07:43:46Z</time>
      </trkpt>
      <trkpt lat="48.19955" lon="6.77338">
        <ele>532.71</ele>
        <time>2018-04-02T07:43:48Z</time>
      </trkpt>
      <trkpt lat="48.19955" lon="6.77354">
        <ele>530.79</ele>
        <time>2018-04-02T07:43:51Z</time>
      </trkpt>
      <trkpt lat="48.19959" lon="6.77369">
        <ele>529.34</ele>
        <time>2018-04-02T07:43:53Z</time>
      </trkpt>
      <trkpt lat="48.19968" lon="6.77374">
        <ele>529.34</ele>
        <time>2018-04-02T07:43:57Z</time>
      </trkpt>
      <trkpt lat="48.19983" lon="6.77389">
        <ele>529.82</ele>
        <time>2018-04-02T07:44:00Z</time>
      </trkpt>
      <trkpt lat="48.19992" lon="6.774">
        <ele>530.3</ele>
        <time>2018-04-02T07:44:03Z</time>
      </trkpt>
      <trkpt lat="48.20001" lon="6.77408">
        <ele>531.27</ele>
        <time>2018-04-02T07:44:06Z</time>
      </trkpt>
      <trkpt lat="48.20012" lon="6.77414">
        <ele>533.19</ele>
        <time>2018-04-02T07:44:10Z</time>
      </trkpt>
      <trkpt lat="48.20022" lon="6.77419">
        <ele>533.19</ele>
        <time>2018-04-02T07:44:14Z</time>
      </trkpt>
      <trkpt lat="48.20031" lon="6.77419">
        <ele>534.15</ele>
        <time>2018-04-02T07:44:18Z</time>
      </trkpt>
      <trkpt lat="48.20043" lon="6.77429">
        <ele>532.71</ele>
        <time>2018-04-02T07:44:21Z</time>
      </trkpt>
      <trkpt lat="48.20053" lon="6.77438">
        <ele>532.23</ele>
        <time>2018-04-02T07:44:23Z</time>
      </trkpt>
      <trkpt lat="48.20061" lon="6.7745">
        <ele>531.75</ele>
        <time>2018-04-02T07:44:25Z</time>
      </trkpt>
      <trkpt lat="48.20067" lon="6.77468">
        <ele>532.71</ele>
        <time>2018-04-02T07:44:28Z</time>
      </trkpt>
      <trkpt lat="48.20071" lon="6.77485">
        <ele>533.67</ele>
        <time>2018-04-02T07:44:31Z</time>
      </trkpt>
      <trkpt lat="48.20072" lon="6.77501">
        <ele>535.11</ele>
        <time>2018-04-02T07:44:34Z</time>
      </trkpt>
      <trkpt lat="48.20075" lon="6.77517">
        <ele>534.63</ele>
        <time>2018-04-02T07:44:38Z</time>
      </trkpt>
      <trkpt lat="48.20082" lon="6.7753">
        <ele>535.59</ele>
        <time>2018-04-02T07:44:41Z</time>
      </trkpt>
      <trkpt lat="48.2009" lon="6.7754">
        <ele>536.07</ele>
        <time>2018-04-02T07:44:47Z</time>
      </trkpt>
      <trkpt lat="48.20095" lon="6.77523">
        <ele>537.99</ele>
        <time>2018-04-02T07:44:57Z</time>
      </trkpt>
      <trkpt lat="48.20099" lon="6.77505">
        <ele>540.4</ele>
        <time>2018-04-02T07:45:07Z</time>
      </trkpt>
      <trkpt lat="48.20105" lon="6.77485">
        <ele>542.32</ele>
        <time>2018-04-02T07:45:17Z</time>
      </trkpt>
      <trkpt lat="48.20111" lon="6.77469">
        <ele>545.2</ele>
        <time>2018-04-02T07:45:27Z</time>
      </trkpt>
      <trkpt lat="48.20109" lon="6.77454">
        <ele>547.13</ele>
        <time>2018-04-02T07:45:35Z</time>
      </trkpt>
      <trkpt lat="48.20112" lon="6.77435">
        <ele>548.09</ele>
        <time>2018-04-02T07:45:42Z</time>
      </trkpt>
      <trkpt lat="48.20114" lon="6.77419">
        <ele>548.09</ele>
        <time>2018-04-02T07:45:49Z</time>
      </trkpt>
      <trkpt lat="48.20109" lon="6.77405">
        <ele>549.53</ele>
        <time>2018-04-02T07:45:57Z</time>
      </trkpt>
      <trkpt lat="48.20114" lon="6.77393">
        <ele>551.45</ele>
        <time>2018-04-02T07:46:10Z</time>
      </trkpt>
      <trkpt lat="48.20127" lon="6.77377">
        <ele>552.9</ele>
        <time>2018-04-02T07:46:19Z</time>
      </trkpt>
      <trkpt lat="48.2014" lon="6.77363">
        <ele>553.86</ele>
        <time>2018-04-02T07:46:31Z</time>
      </trkpt>
      <trkpt lat="48.20153" lon="6.77349">
        <ele>555.3</ele>
        <time>2018-04-02T07:46:39Z</time>
      </trkpt>
      <trkpt lat="48.20166" lon="6.77337">
        <ele>557.22</ele>
        <time>2018-04-02T07:46:50Z</time>
      </trkpt>
      <trkpt lat="48.2018" lon="6.77329">
        <ele>558.66</ele>
        <time>2018-04-02T07:47:00Z</time>
      </trkpt>
      <trkpt lat="48.20196" lon="6.77329">
        <ele>558.18</ele>
        <time>2018-04-02T07:47:07Z</time>
      </trkpt>
      <trkpt lat="48.20204" lon="6.77334">
        <ele>556.74</ele>
        <time>2018-04-02T07:47:10Z</time>
      </trkpt>
      <trkpt lat="48.20213" lon="6.77339">
        <ele>556.26</ele>
        <time>2018-04-02T07:47:14Z</time>
      </trkpt>
      <trkpt lat="48.20225" lon="6.77339">
        <ele>554.82</ele>
        <time>2018-04-02T07:47:17Z</time>
      </trkpt>
      <trkpt lat="48.20236" lon="6.77337">
        <ele>553.86</ele>
        <time>2018-04-02T07:47:20Z</time>
      </trkpt>
      <trkpt lat="48.20248" lon="6.77339">
        <ele>552.41</ele>
        <time>2018-04-02T07:47:23Z</time>
      </trkpt>
      <trkpt lat="48.20256" lon="6.77343">
        <ele>550.97</ele>
        <time>2018-04-02T07:47:27Z</time>
      </trkpt>
      <trkpt lat="48.20278" lon="6.77342">
        <ele>549.05</ele>
        <time>2018-04-02T07:47:40Z</time>
      </trkpt>
      <trkpt lat="48.20286" lon="6.77354">
        <ele>545.69</ele>
        <time>2018-04-02T07:47:45Z</time>
      </trkpt>
      <trkpt lat="48.20291" lon="6.77367">
        <ele>541.36</ele>
        <time>2018-04-02T07:47:49Z</time>
      </trkpt>
      <trkpt lat="48.20294" lon="6.77383">
        <ele>538.96</ele>
        <time>2018-04-02T07:47:52Z</time>
      </trkpt>
      <trkpt lat="48.20301" lon="6.774">
        <ele>537.03</ele>
        <time>2018-04-02T07:47:55Z</time>
      </trkpt>
      <trkpt lat="48.20306" lon="6.77418">
        <ele>533.67</ele>
        <time>2018-04-02T07:47:58Z</time>
      </trkpt>
      <trkpt lat="48.2031" lon="6.77432">
        <ele>532.71</ele>
        <time>2018-04-02T07:48:01Z</time>
      </trkpt>
      <trkpt lat="48.2032" lon="6.77439">
        <ele>529.82</ele>
        <time>2018-04-02T07:48:05Z</time>
      </trkpt>
      <trkpt lat="48.20331" lon="6.7745">
        <ele>528.38</ele>
        <time>2018-04-02T07:48:08Z</time>
      </trkpt>
      <trkpt lat="48.20342" lon="6.77457">
        <ele>526.94</ele>
        <time>2018-04-02T07:48:11Z</time>
      </trkpt>
      <trkpt lat="48.20352" lon="6.77461">
        <ele>525.5</ele>
        <time>2018-04-02T07:48:14Z</time>
      </trkpt>
      <trkpt lat="48.20362" lon="6.77456">
        <ele>524.06</ele>
        <time>2018-04-02T07:48:19Z</time>
      </trkpt>
      <trkpt lat="48.20371" lon="6.77447">
        <ele>524.06</ele>
        <time>2018-04-02T07:48:23Z</time>
      </trkpt>
      <trkpt lat="48.20381" lon="6.7744">
        <ele>523.58</ele>
        <time>2018-04-02T07:48:30Z</time>
      </trkpt>
      <trkpt lat="48.20393" lon="6.77433">
        <ele>524.06</ele>
        <time>2018-04-02T07:48:36Z</time>
      </trkpt>
      <trkpt lat="48.20406" lon="6.77432">
        <ele>524.54</ele>
        <time>2018-04-02T07:48:41Z</time>
      </trkpt>
      <trkpt lat="48.20417" lon="6.77437">
        <ele>525.5</ele>
        <time>2018-04-02T07:48:46Z</time>
      </trkpt>
      <trkpt lat="48.20424" lon="6.77449">
        <ele>525.98</ele>
        <time>2018-04-02T07:48:51Z</time>
      </trkpt>
      <trkpt lat="48.20427" lon="6.77464">
        <ele>526.46</ele>
        <time>2018-04-02T07:48:57Z</time>
      </trkpt>
      <trkpt lat="48.20432" lon="6.77478">
        <ele>528.38</ele>
        <time>2018-04-02T07:49:03Z</time>
      </trkpt>
      <trkpt lat="48.2044" lon="6.7749">
        <ele>529.34</ele>
        <time>2018-04-02T07:49:09Z</time>
      </trkpt>
      <trkpt lat="48.20447" lon="6.775">
        <ele>530.79</ele>
        <time>2018-04-02T07:49:14Z</time>
      </trkpt>
      <trkpt lat="48.20454" lon="6.77509">
        <ele>531.75</ele>
        <time>2018-04-02T07:49:21Z</time>
      </trkpt>
      <trkpt lat="48.20462" lon="6.77519">
        <ele>532.71</ele>
        <time>2018-04-02T07:49:26Z</time>
      </trkpt>
      <trkpt lat="48.2047" lon="6.77532">
        <ele>533.67</ele>
        <time>2018-04-02T07:49:31Z</time>
      </trkpt>
      <trkpt lat="48.20475" lon="6.77546">
        <ele>534.15</ele>
        <time>2018-04-02T07:49:36Z</time>
      </trkpt>
      <trkpt lat="48.2048" lon="6.7756">
        <ele>534.63</ele>
        <time>2018-04-02T07:49:41Z</time>
      </trkpt>
      <trkpt lat="48.20485" lon="6.77574">
        <ele>534.63</ele>
        <time>2018-04-02T07:49:45Z</time>
      </trkpt>
      <trkpt lat="48.20489" lon="6.77586">
        <ele>534.63</ele>
        <time>2018-04-02T07:49:49Z</time>
      </trkpt>
      <trkpt lat="48.20492" lon="6.776">
        <ele>534.63</ele>
        <time>2018-04-02T07:49:53Z</time>
      </trkpt>
      <trkpt lat="48.20492" lon="6.77616">
        <ele>533.67</ele>
        <time>2018-04-02T07:49:57Z</time>
      </trkpt>
      <trkpt lat="48.20492" lon="6.77632">
        <ele>533.19</ele>
        <time>2018-04-02T07:50:00Z</time>
      </trkpt>
      <trkpt lat="48.20493" lon="6.77647">
        <ele>532.23</ele>
        <time>2018-04-02T07:50:03Z</time>
      </trkpt>
      <trkpt lat="48.20494" lon="6.77664">
        <ele>532.23</ele>
        <time>2018-04-02T07:50:05Z</time>
      </trkpt>
      <trkpt lat="48.20495" lon="6.77679">
        <ele>531.27</ele>
        <time>2018-04-02T07:50:07Z</time>
      </trkpt>
      <trkpt lat="48.20497" lon="6.77696">
        <ele>531.27</ele>
        <time>2018-04-02T07:50:10Z</time>
      </trkpt>
      <trkpt lat="48.205" lon="6.77717">
        <ele>531.27</ele>
        <time>2018-04-02T07:50:13Z</time>
      </trkpt>
      <trkpt lat="48.20503" lon="6.77737">
        <ele>529.82</ele>
        <time>2018-04-02T07:50:16Z</time>
      </trkpt>
      <trkpt lat="48.20505" lon="6.77751">
        <ele>528.86</ele>
        <time>2018-04-02T07:50:18Z</time>
      </trkpt>
      <trkpt lat="48.20507" lon="6.77767">
        <ele>528.38</ele>
        <time>2018-04-02T07:50:20Z</time>
      </trkpt>
      <trkpt lat="48.20512" lon="6.77782">
        <ele>528.38</ele>
        <time>2018-04-02T07:50:22Z</time>
      </trkpt>
      <trkpt lat="48.20517" lon="6.77796">
        <ele>527.42</ele>
        <time>2018-04-02T07:50:24Z</time>
      </trkpt>
      <trkpt lat="48.20525" lon="6.77811">
        <ele>526.46</ele>
        <time>2018-04-02T07:50:27Z</time>
      </trkpt>
      <trkpt lat="48.20533" lon="6.77825">
        <ele>525.02</ele>
        <time>2018-04-02T07:50:30Z</time>
      </trkpt>
      <trkpt lat="48.20539" lon="6.77837">
        <ele>524.06</ele>
        <time>2018-04-02T07:50:32Z</time>
      </trkpt>
      <trkpt lat="48.20547" lon="6.7785">
        <ele>522.61</ele>
        <time>2018-04-02T07:50:34Z</time>
      </trkpt>
      <trkpt lat="48.20555" lon="6.77863">
        <ele>521.65</ele>
        <time>2018-04-02T07:50:36Z</time>
      </trkpt>
      <trkpt lat="48.20561" lon="6.77878">
        <ele>520.69</ele>
        <time>2018-04-02T07:50:38Z</time>
      </trkpt>
      <trkpt lat="48.20566" lon="6.7789">
        <ele>519.25</ele>
        <time>2018-04-02T07:50:40Z</time>
      </trkpt>
      <trkpt lat="48.20567" lon="6.77909">
        <ele>518.77</ele>
        <time>2018-04-02T07:50:43Z</time>
      </trkpt>
      <trkpt lat="48.20569" lon="6.77925">
        <ele>517.81</ele>
        <time>2018-04-02T07:50:46Z</time>
      </trkpt>
      <trkpt lat="48.20573" lon="6.77941">
        <ele>519.25</ele>
        <time>2018-04-02T07:50:50Z</time>
      </trkpt>
      <trkpt lat="48.20575" lon="6.77959">
        <ele>520.69</ele>
        <time>2018-04-02T07:50:56Z</time>
      </trkpt>
      <trkpt lat="48.2058" lon="6.7798">
        <ele>520.21</ele>
        <time>2018-04-02T07:51:01Z</time>
      </trkpt>
      <trkpt lat="48.20586" lon="6.77996">
        <ele>520.21</ele>
        <time>2018-04-02T07:51:05Z</time>
      </trkpt>
      <trkpt lat="48.20593" lon="6.7801">
        <ele>520.21</ele>
        <time>2018-04-02T07:51:09Z</time>
      </trkpt>
      <trkpt lat="48.206" lon="6.78021">
        <ele>519.73</ele>
        <time>2018-04-02T07:51:13Z</time>
      </trkpt>
      <trkpt lat="48.20608" lon="6.78027">
        <ele>518.77</ele>
        <time>2018-04-02T07:51:16Z</time>
      </trkpt>
      <trkpt lat="48.20617" lon="6.7803">
        <ele>517.33</ele>
        <time>2018-04-02T07:51:19Z</time>
      </trkpt>
      <trkpt lat="48.20628" lon="6.78032">
        <ele>515.4</ele>
        <time>2018-04-02T07:51:23Z</time>
      </trkpt>
      <trkpt lat="48.20641" lon="6.78032">
        <ele>516.37</ele>
        <time>2018-04-02T07:51:26Z</time>
      </trkpt>
      <trkpt lat="48.20655" lon="6.7803">
        <ele>516.37</ele>
        <time>2018-04-02T07:51:30Z</time>
      </trkpt>
      <trkpt lat="48.20669" lon="6.7804">
        <ele>516.85</ele>
        <time>2018-04-02T07:51:34Z</time>
      </trkpt>
      <trkpt lat="48.20674" lon="6.78052">
        <ele>516.37</ele>
        <time>2018-04-02T07:51:38Z</time>
      </trkpt>
      <trkpt lat="48.20671" lon="6.78064">
        <ele>515.4</ele>
        <time>2018-04-02T07:51:42Z</time>
      </trkpt>
      <trkpt lat="48.20664" lon="6.78079">
        <ele>514.44</ele>
        <time>2018-04-02T07:51:46Z</time>
      </trkpt>
      <trkpt lat="48.20658" lon="6.78096">
        <ele>513.96</ele>
        <time>2018-04-02T07:51:50Z</time>
      </trkpt>
      <trkpt lat="48.20652" lon="6.78109">
        <ele>512.52</ele>
        <time>2018-04-02T07:51:54Z</time>
      </trkpt>
      <trkpt lat="48.20651" lon="6.78132">
        <ele>511.56</ele>
        <time>2018-04-02T07:51:56Z</time>
      </trkpt>
      <trkpt lat="48.20653" lon="6.78148">
        <ele>511.56</ele>
        <time>2018-04-02T07:51:58Z</time>
      </trkpt>
      <trkpt lat="48.2066" lon="6.78172">
        <ele>512.52</ele>
        <time>2018-04-02T07:52:02Z</time>
      </trkpt>
      <trkpt lat="48.20666" lon="6.78188">
        <ele>512.52</ele>
        <time>2018-04-02T07:52:06Z</time>
      </trkpt>
      <trkpt lat="48.20674" lon="6.78201">
        <ele>513.96</ele>
        <time>2018-04-02T07:52:11Z</time>
      </trkpt>
      <trkpt lat="48.20679" lon="6.78215">
        <ele>514.44</ele>
        <time>2018-04-02T07:52:17Z</time>
      </trkpt>
      <trkpt lat="48.20686" lon="6.78224">
        <ele>514.92</ele>
        <time>2018-04-02T07:52:23Z</time>
      </trkpt>
      <trkpt lat="48.20694" lon="6.78235">
        <ele>515.4</ele>
        <time>2018-04-02T07:52:28Z</time>
      </trkpt>
      <trkpt lat="48.20704" lon="6.78242">
        <ele>516.85</ele>
        <time>2018-04-02T07:52:33Z</time>
      </trkpt>
      <trkpt lat="48.20712" lon="6.78252">
        <ele>517.33</ele>
        <time>2018-04-02T07:52:38Z</time>
      </trkpt>
      <trkpt lat="48.20722" lon="6.78259">
        <ele>518.77</ele>
        <time>2018-04-02T07:52:44Z</time>
      </trkpt>
      <trkpt lat="48.20731" lon="6.78267">
        <ele>519.25</ele>
        <time>2018-04-02T07:52:50Z</time>
      </trkpt>
      <trkpt lat="48.20741" lon="6.78272">
        <ele>519.25</ele>
        <time>2018-04-02T07:52:55Z</time>
      </trkpt>
      <trkpt lat="48.20753" lon="6.78273">
        <ele>518.77</ele>
        <time>2018-04-02T07:53:02Z</time>
      </trkpt>
      <trkpt lat="48.20766" lon="6.78276">
        <ele>519.73</ele>
        <time>2018-04-02T07:53:11Z</time>
      </trkpt>
      <trkpt lat="48.20778" lon="6.78279">
        <ele>520.21</ele>
        <time>2018-04-02T07:53:21Z</time>
      </trkpt>
      <trkpt lat="48.2079" lon="6.78279">
        <ele>521.65</ele>
        <time>2018-04-02T07:53:27Z</time>
      </trkpt>
      <trkpt lat="48.208" lon="6.78285">
        <ele>523.09</ele>
        <time>2018-04-02T07:53:37Z</time>
      </trkpt>
      <trkpt lat="48.20818" lon="6.78278">
        <ele>524.06</ele>
        <time>2018-04-02T07:53:45Z</time>
      </trkpt>
      <trkpt lat="48.20834" lon="6.78264">
        <ele>525.5</ele>
        <time>2018-04-02T07:53:55Z</time>
      </trkpt>
      <trkpt lat="48.20846" lon="6.78255">
        <ele>525.5</ele>
        <time>2018-04-02T07:54:02Z</time>
      </trkpt>
      <trkpt lat="48.20859" lon="6.78249">
        <ele>526.46</ele>
        <time>2018-04-02T07:54:10Z</time>
      </trkpt>
      <trkpt lat="48.2087" lon="6.78251">
        <ele>526.94</ele>
        <time>2018-04-02T07:54:22Z</time>
      </trkpt>
      <trkpt lat="48.20883" lon="6.78248">
        <ele>527.9</ele>
        <time>2018-04-02T07:54:30Z</time>
      </trkpt>
      <trkpt lat="48.20895" lon="6.78243">
        <ele>528.86</ele>
        <time>2018-04-02T07:54:37Z</time>
      </trkpt>
      <trkpt lat="48.20908" lon="6.7824">
        <ele>529.34</ele>
        <time>2018-04-02T07:54:43Z</time>
      </trkpt>
      <trkpt lat="48.20925" lon="6.78243">
        <ele>529.82</ele>
        <time>2018-04-02T07:54:51Z</time>
      </trkpt>
      <trkpt lat="48.20937" lon="6.78253">
        <ele>529.34</ele>
        <time>2018-04-02T07:54:57Z</time>
      </trkpt>
      <trkpt lat="48.20951" lon="6.78264">
        <ele>528.86</ele>
        <time>2018-04-02T07:55:08Z</time>
      </trkpt>
      <trkpt lat="48.2096" lon="6.7826">
        <ele>528.86</ele>
        <time>2018-04-02T07:55:23Z</time>
      </trkpt>
      <trkpt lat="48.20969" lon="6.7826">
        <ele>529.34</ele>
        <time>2018-04-02T08:00:13Z</time>
      </trkpt>
      <trkpt lat="48.20957" lon="6.78279">
        <ele>528.38</ele>
        <time>2018-04-02T08:00:18Z</time>
      </trkpt>
      <trkpt lat="48.20948" lon="6.78286">
        <ele>525.98</ele>
        <time>2018-04-02T08:00:21Z</time>
      </trkpt>
      <trkpt lat="48.20938" lon="6.78295">
        <ele>525.02</ele>
        <time>2018-04-02T08:00:24Z</time>
      </trkpt>
      <trkpt lat="48.20929" lon="6.783">
        <ele>523.58</ele>
        <time>2018-04-02T08:00:27Z</time>
      </trkpt>
      <trkpt lat="48.20919" lon="6.78309">
        <ele>522.13</ele>
        <time>2018-04-02T08:00:30Z</time>
      </trkpt>
      <trkpt lat="48.20909" lon="6.78315">
        <ele>521.17</ele>
        <time>2018-04-02T08:00:33Z</time>
      </trkpt>
      <trkpt lat="48.20894" lon="6.78327">
        <ele>520.69</ele>
        <time>2018-04-02T08:00:36Z</time>
      </trkpt>
      <trkpt lat="48.2088" lon="6.78334">
        <ele>519.73</ele>
        <time>2018-04-02T08:00:39Z</time>
      </trkpt>
      <trkpt lat="48.20871" lon="6.78339">
        <ele>519.25</ele>
        <time>2018-04-02T08:00:42Z</time>
      </trkpt>
      <trkpt lat="48.20859" lon="6.78343">
        <ele>517.81</ele>
        <time>2018-04-02T08:00:45Z</time>
      </trkpt>
      <trkpt lat="48.20847" lon="6.78352">
        <ele>516.37</ele>
        <time>2018-04-02T08:00:48Z</time>
      </trkpt>
      <trkpt lat="48.20837" lon="6.7836">
        <ele>515.88</ele>
        <time>2018-04-02T08:00:51Z</time>
      </trkpt>
      <trkpt lat="48.20825" lon="6.78371">
        <ele>517.33</ele>
        <time>2018-04-02T08:00:55Z</time>
      </trkpt>
      <trkpt lat="48.20816" lon="6.78379">
        <ele>517.33</ele>
        <time>2018-04-02T08:00:58Z</time>
      </trkpt>
      <trkpt lat="48.20802" lon="6.78388">
        <ele>517.81</ele>
        <time>2018-04-02T08:01:02Z</time>
      </trkpt>
      <trkpt lat="48.20791" lon="6.78397">
        <ele>517.81</ele>
        <time>2018-04-02T08:01:05Z</time>
      </trkpt>
      <trkpt lat="48.20785" lon="6.78407">
        <ele>516.85</ele>
        <time>2018-04-02T08:01:10Z</time>
      </trkpt>
      <trkpt lat="48.20777" lon="6.78424">
        <ele>515.4</ele>
        <time>2018-04-02T08:01:15Z</time>
      </trkpt>
      <trkpt lat="48.20751" lon="6.78455">
        <ele>514.44</ele>
        <time>2018-04-02T08:01:17Z</time>
      </trkpt>
      <trkpt lat="48.20736" lon="6.78474">
        <ele>513.96</ele>
        <time>2018-04-02T08:01:19Z</time>
      </trkpt>
      <trkpt lat="48.20726" lon="6.78488">
        <ele>513.48</ele>
        <time>2018-04-02T08:01:21Z</time>
      </trkpt>
      <trkpt lat="48.20717" lon="6.78499">
        <ele>513</ele>
        <time>2018-04-02T08:01:23Z</time>
      </trkpt>
      <trkpt lat="48.2071" lon="6.7851">
        <ele>512.52</ele>
        <time>2018-04-02T08:01:25Z</time>
      </trkpt>
      <trkpt lat="48.20702" lon="6.78524">
        <ele>512.04</ele>
        <time>2018-04-02T08:01:27Z</time>
      </trkpt>
      <trkpt lat="48.20695" lon="6.78538">
        <ele>511.08</ele>
        <time>2018-04-02T08:01:29Z</time>
      </trkpt>
      <trkpt lat="48.20689" lon="6.78553">
        <ele>509.16</ele>
        <time>2018-04-02T08:01:31Z</time>
      </trkpt>
      <trkpt lat="48.20685" lon="6.78569">
        <ele>508.19</ele>
        <time>2018-04-02T08:01:33Z</time>
      </trkpt>
      <trkpt lat="48.2068" lon="6.78585">
        <ele>507.23</ele>
        <time>2018-04-02T08:01:35Z</time>
      </trkpt>
      <trkpt lat="48.20676" lon="6.786">
        <ele>507.23</ele>
        <time>2018-04-02T08:01:37Z</time>
      </trkpt>
      <trkpt lat="48.20674" lon="6.78617">
        <ele>508.19</ele>
        <time>2018-04-02T08:01:40Z</time>
      </trkpt>
      <trkpt lat="48.20674" lon="6.78633">
        <ele>508.67</ele>
        <time>2018-04-02T08:01:43Z</time>
      </trkpt>
      <trkpt lat="48.20673" lon="6.78652">
        <ele>508.67</ele>
        <time>2018-04-02T08:01:46Z</time>
      </trkpt>
      <trkpt lat="48.20677" lon="6.78669">
        <ele>509.64</ele>
        <time>2018-04-02T08:01:49Z</time>
      </trkpt>
      <trkpt lat="48.20684" lon="6.78685">
        <ele>511.08</ele>
        <time>2018-04-02T08:01:52Z</time>
      </trkpt>
      <trkpt lat="48.20688" lon="6.78703">
        <ele>512.04</ele>
        <time>2018-04-02T08:01:56Z</time>
      </trkpt>
      <trkpt lat="48.20694" lon="6.7872">
        <ele>513.48</ele>
        <time>2018-04-02T08:02:00Z</time>
      </trkpt>
      <trkpt lat="48.20699" lon="6.78735">
        <ele>514.92</ele>
        <time>2018-04-02T08:02:04Z</time>
      </trkpt>
      <trkpt lat="48.20704" lon="6.7875">
        <ele>515.88</ele>
        <time>2018-04-02T08:02:09Z</time>
      </trkpt>
      <trkpt lat="48.20708" lon="6.78765">
        <ele>517.33</ele>
        <time>2018-04-02T08:02:15Z</time>
      </trkpt>
      <trkpt lat="48.20712" lon="6.7878">
        <ele>518.77</ele>
        <time>2018-04-02T08:02:21Z</time>
      </trkpt>
      <trkpt lat="48.2071" lon="6.78801">
        <ele>520.21</ele>
        <time>2018-04-02T08:02:28Z</time>
      </trkpt>
      <trkpt lat="48.20709" lon="6.7882">
        <ele>521.17</ele>
        <time>2018-04-02T08:02:35Z</time>
      </trkpt>
      <trkpt lat="48.20706" lon="6.78835">
        <ele>521.65</ele>
        <time>2018-04-02T08:02:42Z</time>
      </trkpt>
      <trkpt lat="48.20703" lon="6.78849">
        <ele>521.65</ele>
        <time>2018-04-02T08:02:50Z</time>
      </trkpt>
      <trkpt lat="48.20707" lon="6.78841">
        <ele>521.65</ele>
        <time>2018-04-02T08:02:58Z</time>
      </trkpt>
      <trkpt lat="48.2071" lon="6.78824">
        <ele>521.17</ele>
        <time>2018-04-02T08:03:08Z</time>
      </trkpt>
      <trkpt lat="48.20716" lon="6.78812">
        <ele>521.65</ele>
        <time>2018-04-02T08:03:17Z</time>
      </trkpt>
      <trkpt lat="48.20724" lon="6.78802">
        <ele>522.61</ele>
        <time>2018-04-02T08:03:27Z</time>
      </trkpt>
      <trkpt lat="48.20734" lon="6.78799">
        <ele>525.02</ele>
        <time>2018-04-02T08:03:34Z</time>
      </trkpt>
      <trkpt lat="48.20753" lon="6.78794">
        <ele>529.82</ele>
        <time>2018-04-02T08:04:00Z</time>
      </trkpt>
      <trkpt lat="48.20764" lon="6.78805">
        <ele>531.75</ele>
        <time>2018-04-02T08:04:17Z</time>
      </trkpt>
      <trkpt lat="48.20773" lon="6.78821">
        <ele>533.67</ele>
        <time>2018-04-02T08:04:26Z</time>
      </trkpt>
      <trkpt lat="48.20781" lon="6.78835">
        <ele>534.15</ele>
        <time>2018-04-02T08:04:33Z</time>
      </trkpt>
      <trkpt lat="48.20789" lon="6.7885">
        <ele>535.59</ele>
        <time>2018-04-02T08:04:40Z</time>
      </trkpt>
      <trkpt lat="48.20795" lon="6.78867">
        <ele>536.07</ele>
        <time>2018-04-02T08:04:48Z</time>
      </trkpt>
      <trkpt lat="48.20801" lon="6.7888">
        <ele>536.07</ele>
        <time>2018-04-02T08:04:54Z</time>
      </trkpt>
      <trkpt lat="48.20809" lon="6.78897">
        <ele>537.51</ele>
        <time>2018-04-02T08:05:02Z</time>
      </trkpt>
      <trkpt lat="48.20817" lon="6.7891">
        <ele>538.48</ele>
        <time>2018-04-02T08:05:10Z</time>
      </trkpt>
      <trkpt lat="48.20833" lon="6.7892">
        <ele>539.92</ele>
        <time>2018-04-02T08:05:18Z</time>
      </trkpt>
      <trkpt lat="48.20835" lon="6.78908">
        <ele>541.36</ele>
        <time>2018-04-02T08:05:25Z</time>
      </trkpt>
      <trkpt lat="48.2083" lon="6.78895">
        <ele>542.32</ele>
        <time>2018-04-02T08:05:33Z</time>
      </trkpt>
      <trkpt lat="48.20826" lon="6.78881">
        <ele>543.76</ele>
        <time>2018-04-02T08:05:40Z</time>
      </trkpt>
      <trkpt lat="48.20822" lon="6.78867">
        <ele>545.2</ele>
        <time>2018-04-02T08:05:48Z</time>
      </trkpt>
      <trkpt lat="48.20818" lon="6.78856">
        <ele>545.69</ele>
        <time>2018-04-02T08:05:56Z</time>
      </trkpt>
      <trkpt lat="48.20815" lon="6.78838">
        <ele>547.13</ele>
        <time>2018-04-02T08:06:05Z</time>
      </trkpt>
      <trkpt lat="48.20811" lon="6.78821">
        <ele>548.57</ele>
        <time>2018-04-02T08:06:12Z</time>
      </trkpt>
      <trkpt lat="48.20805" lon="6.78806">
        <ele>550.01</ele>
        <time>2018-04-02T08:06:19Z</time>
      </trkpt>
      <trkpt lat="48.20801" lon="6.78792">
        <ele>550.01</ele>
        <time>2018-04-02T08:06:25Z</time>
      </trkpt>
      <trkpt lat="48.20796" lon="6.78778">
        <ele>550.97</ele>
        <time>2018-04-02T08:06:32Z</time>
      </trkpt>
      <trkpt lat="48.20794" lon="6.7876">
        <ele>551.93</ele>
        <time>2018-04-02T08:06:39Z</time>
      </trkpt>
      <trkpt lat="48.20792" lon="6.78743">
        <ele>553.86</ele>
        <time>2018-04-02T08:06:46Z</time>
      </trkpt>
      <trkpt lat="48.2079" lon="6.78725">
        <ele>554.82</ele>
        <time>2018-04-02T08:06:53Z</time>
      </trkpt>
      <trkpt lat="48.20788" lon="6.78705">
        <ele>555.78</ele>
        <time>2018-04-02T08:07:01Z</time>
      </trkpt>
      <trkpt lat="48.20792" lon="6.78685">
        <ele>556.74</ele>
        <time>2018-04-02T08:07:11Z</time>
      </trkpt>
      <trkpt lat="48.20796" lon="6.78665">
        <ele>558.66</ele>
        <time>2018-04-02T08:07:19Z</time>
      </trkpt>
      <trkpt lat="48.20799" lon="6.7865">
        <ele>559.14</ele>
        <time>2018-04-02T08:07:26Z</time>
      </trkpt>
      <trkpt lat="48.20803" lon="6.78636">
        <ele>560.11</ele>
        <time>2018-04-02T08:07:33Z</time>
      </trkpt>
      <trkpt lat="48.20807" lon="6.78619">
        <ele>561.07</ele>
        <time>2018-04-02T08:07:40Z</time>
      </trkpt>
      <trkpt lat="48.20812" lon="6.78604">
        <ele>562.03</ele>
        <time>2018-04-02T08:07:47Z</time>
      </trkpt>
      <trkpt lat="48.20817" lon="6.78589">
        <ele>562.99</ele>
        <time>2018-04-02T08:07:53Z</time>
      </trkpt>
      <trkpt lat="48.20823" lon="6.78578">
        <ele>562.99</ele>
        <time>2018-04-02T08:07:58Z</time>
      </trkpt>
      <trkpt lat="48.2083" lon="6.78565">
        <ele>564.43</ele>
        <time>2018-04-02T08:08:04Z</time>
      </trkpt>
      <trkpt lat="48.20838" lon="6.78555">
        <ele>565.39</ele>
        <time>2018-04-02T08:08:10Z</time>
      </trkpt>
      <trkpt lat="48.20845" lon="6.78546">
        <ele>567.32</ele>
        <time>2018-04-02T08:08:16Z</time>
      </trkpt>
      <trkpt lat="48.20854" lon="6.78537">
        <ele>567.32</ele>
        <time>2018-04-02T08:08:22Z</time>
      </trkpt>
      <trkpt lat="48.20864" lon="6.78528">
        <ele>569.24</ele>
        <time>2018-04-02T08:08:28Z</time>
      </trkpt>
      <trkpt lat="48.20874" lon="6.78521">
        <ele>570.2</ele>
        <time>2018-04-02T08:08:34Z</time>
      </trkpt>
      <trkpt lat="48.20881" lon="6.78516">
        <ele>570.68</ele>
        <time>2018-04-02T08:08:42Z</time>
      </trkpt>
      <trkpt lat="48.2089" lon="6.78512">
        <ele>572.12</ele>
        <time>2018-04-02T08:08:49Z</time>
      </trkpt>
      <trkpt lat="48.20901" lon="6.78511">
        <ele>573.56</ele>
        <time>2018-04-02T08:08:58Z</time>
      </trkpt>
      <trkpt lat="48.20914" lon="6.78504">
        <ele>574.53</ele>
        <time>2018-04-02T08:09:07Z</time>
      </trkpt>
      <trkpt lat="48.20926" lon="6.78499">
        <ele>575.49</ele>
        <time>2018-04-02T08:09:13Z</time>
      </trkpt>
      <trkpt lat="48.20936" lon="6.78499">
        <ele>575.97</ele>
        <time>2018-04-02T08:09:18Z</time>
      </trkpt>
      <trkpt lat="48.20948" lon="6.78495">
        <ele>577.89</ele>
        <time>2018-04-02T08:09:27Z</time>
      </trkpt>
      <trkpt lat="48.20962" lon="6.78495">
        <ele>578.85</ele>
        <time>2018-04-02T08:09:34Z</time>
      </trkpt>
      <trkpt lat="48.20975" lon="6.78494">
        <ele>579.33</ele>
        <time>2018-04-02T08:09:41Z</time>
      </trkpt>
      <trkpt lat="48.20986" lon="6.78494">
        <ele>580.29</ele>
        <time>2018-04-02T08:09:47Z</time>
      </trkpt>
      <trkpt lat="48.20998" lon="6.78496">
        <ele>581.73</ele>
        <time>2018-04-02T08:09:53Z</time>
      </trkpt>
      <trkpt lat="48.21008" lon="6.78497">
        <ele>582.22</ele>
        <time>2018-04-02T08:09:59Z</time>
      </trkpt>
      <trkpt lat="48.21021" lon="6.78498">
        <ele>583.18</ele>
        <time>2018-04-02T08:10:07Z</time>
      </trkpt>
      <trkpt lat="48.21032" lon="6.78496">
        <ele>584.14</ele>
        <time>2018-04-02T08:10:12Z</time>
      </trkpt>
      <trkpt lat="48.21043" lon="6.78496">
        <ele>585.1</ele>
        <time>2018-04-02T08:10:18Z</time>
      </trkpt>
      <trkpt lat="48.21052" lon="6.78492">
        <ele>586.54</ele>
        <time>2018-04-02T08:10:24Z</time>
      </trkpt>
      <trkpt lat="48.21064" lon="6.7849">
        <ele>587.02</ele>
        <time>2018-04-02T08:10:31Z</time>
      </trkpt>
      <trkpt lat="48.21075" lon="6.78485">
        <ele>588.95</ele>
        <time>2018-04-02T08:10:38Z</time>
      </trkpt>
      <trkpt lat="48.21084" lon="6.78475">
        <ele>589.91</ele>
        <time>2018-04-02T08:10:46Z</time>
      </trkpt>
      <trkpt lat="48.21092" lon="6.78461">
        <ele>590.39</ele>
        <time>2018-04-02T08:10:54Z</time>
      </trkpt>
      <trkpt lat="48.21099" lon="6.78445">
        <ele>591.35</ele>
        <time>2018-04-02T08:11:02Z</time>
      </trkpt>
      <trkpt lat="48.21099" lon="6.78429">
        <ele>592.31</ele>
        <time>2018-04-02T08:11:09Z</time>
      </trkpt>
      <trkpt lat="48.21105" lon="6.78415">
        <ele>593.27</ele>
        <time>2018-04-02T08:11:16Z</time>
      </trkpt>
      <trkpt lat="48.21102" lon="6.78398">
        <ele>594.23</ele>
        <time>2018-04-02T08:11:22Z</time>
      </trkpt>
      <trkpt lat="48.21103" lon="6.78379">
        <ele>595.19</ele>
        <time>2018-04-02T08:11:28Z</time>
      </trkpt>
      <trkpt lat="48.21108" lon="6.78362">
        <ele>596.64</ele>
        <time>2018-04-02T08:11:35Z</time>
      </trkpt>
      <trkpt lat="48.21117" lon="6.78355">
        <ele>597.6</ele>
        <time>2018-04-02T08:11:45Z</time>
      </trkpt>
      <trkpt lat="48.21124" lon="6.78364">
        <ele>599.52</ele>
        <time>2018-04-02T08:11:52Z</time>
      </trkpt>
      <trkpt lat="48.21124" lon="6.78378">
        <ele>600</ele>
        <time>2018-04-02T08:11:59Z</time>
      </trkpt>
      <trkpt lat="48.21122" lon="6.78392">
        <ele>600.48</ele>
        <time>2018-04-02T08:12:06Z</time>
      </trkpt>
      <trkpt lat="48.2112" lon="6.78406">
        <ele>601.44</ele>
        <time>2018-04-02T08:12:14Z</time>
      </trkpt>
      <trkpt lat="48.2112" lon="6.78417">
        <ele>600.96</ele>
        <time>2018-04-02T08:12:50Z</time>
      </trkpt>
      <trkpt lat="48.2112" lon="6.78432">
        <ele>600.96</ele>
        <time>2018-04-02T08:12:58Z</time>
      </trkpt>
      <trkpt lat="48.21119" lon="6.78449">
        <ele>601.44</ele>
        <time>2018-04-02T08:13:05Z</time>
      </trkpt>
      <trkpt lat="48.21118" lon="6.78465">
        <ele>601.92</ele>
        <time>2018-04-02T08:13:11Z</time>
      </trkpt>
      <trkpt lat="48.21115" lon="6.78481">
        <ele>601.92</ele>
        <time>2018-04-02T08:13:17Z</time>
      </trkpt>
      <trkpt lat="48.2111" lon="6.78495">
        <ele>602.88</ele>
        <time>2018-04-02T08:13:22Z</time>
      </trkpt>
      <trkpt lat="48.21106" lon="6.78511">
        <ele>602.88</ele>
        <time>2018-04-02T08:13:28Z</time>
      </trkpt>
      <trkpt lat="48.211" lon="6.78524">
        <ele>604.33</ele>
        <time>2018-04-02T08:13:34Z</time>
      </trkpt>
      <trkpt lat="48.21093" lon="6.78534">
        <ele>605.77</ele>
        <time>2018-04-02T08:13:40Z</time>
      </trkpt>
      <trkpt lat="48.21084" lon="6.78545">
        <ele>607.69</ele>
        <time>2018-04-02T08:13:49Z</time>
      </trkpt>
      <trkpt lat="48.21084" lon="6.78565">
        <ele>609.13</ele>
        <time>2018-04-02T08:13:56Z</time>
      </trkpt>
      <trkpt lat="48.21091" lon="6.78577">
        <ele>611.06</ele>
        <time>2018-04-02T08:14:02Z</time>
      </trkpt>
      <trkpt lat="48.21101" lon="6.78574">
        <ele>612.02</ele>
        <time>2018-04-02T08:14:09Z</time>
      </trkpt>
      <trkpt lat="48.21108" lon="6.78566">
        <ele>613.46</ele>
        <time>2018-04-02T08:14:15Z</time>
      </trkpt>
      <trkpt lat="48.21114" lon="6.78555">
        <ele>614.42</ele>
        <time>2018-04-02T08:14:22Z</time>
      </trkpt>
      <trkpt lat="48.21124" lon="6.78542">
        <ele>615.86</ele>
        <time>2018-04-02T08:14:33Z</time>
      </trkpt>
      <trkpt lat="48.21133" lon="6.78529">
        <ele>617.3</ele>
        <time>2018-04-02T08:14:42Z</time>
      </trkpt>
      <trkpt lat="48.2114" lon="6.78519">
        <ele>617.78</ele>
        <time>2018-04-02T08:14:48Z</time>
      </trkpt>
      <trkpt lat="48.21149" lon="6.78505">
        <ele>619.23</ele>
        <time>2018-04-02T08:14:56Z</time>
      </trkpt>
      <trkpt lat="48.21154" lon="6.78489">
        <ele>620.19</ele>
        <time>2018-04-02T08:15:02Z</time>
      </trkpt>
      <trkpt lat="48.21159" lon="6.78474">
        <ele>621.15</ele>
        <time>2018-04-02T08:15:08Z</time>
      </trkpt>
      <trkpt lat="48.21163" lon="6.78458">
        <ele>622.11</ele>
        <time>2018-04-02T08:15:15Z</time>
      </trkpt>
      <trkpt lat="48.21167" lon="6.78445">
        <ele>623.07</ele>
        <time>2018-04-02T08:15:22Z</time>
      </trkpt>
      <trkpt lat="48.21171" lon="6.7843">
        <ele>624.03</ele>
        <time>2018-04-02T08:15:28Z</time>
      </trkpt>
      <trkpt lat="48.21176" lon="6.7841">
        <ele>624.51</ele>
        <time>2018-04-02T08:15:36Z</time>
      </trkpt>
      <trkpt lat="48.2118" lon="6.78395">
        <ele>625.47</ele>
        <time>2018-04-02T08:15:42Z</time>
      </trkpt>
      <trkpt lat="48.21186" lon="6.78379">
        <ele>626.44</ele>
        <time>2018-04-02T08:15:49Z</time>
      </trkpt>
      <trkpt lat="48.21192" lon="6.78365">
        <ele>627.88</ele>
        <time>2018-04-02T08:15:55Z</time>
      </trkpt>
      <trkpt lat="48.21197" lon="6.78351">
        <ele>628.84</ele>
        <time>2018-04-02T08:16:02Z</time>
      </trkpt>
      <trkpt lat="48.21203" lon="6.78335">
        <ele>629.8</ele>
        <time>2018-04-02T08:16:10Z</time>
      </trkpt>
      <trkpt lat="48.21209" lon="6.78322">
        <ele>632.2</ele>
        <time>2018-04-02T08:16:20Z</time>
      </trkpt>
      <trkpt lat="48.21219" lon="6.78315">
        <ele>632.68</ele>
        <time>2018-04-02T08:16:26Z</time>
      </trkpt>
      <trkpt lat="48.2123" lon="6.78307">
        <ele>633.65</ele>
        <time>2018-04-02T08:16:37Z</time>
      </trkpt>
      <trkpt lat="48.21243" lon="6.78305">
        <ele>634.61</ele>
        <time>2018-04-02T08:16:45Z</time>
      </trkpt>
      <trkpt lat="48.21249" lon="6.78315">
        <ele>636.05</ele>
        <time>2018-04-02T08:16:52Z</time>
      </trkpt>
      <trkpt lat="48.21252" lon="6.78328">
        <ele>636.53</ele>
        <time>2018-04-02T08:16:58Z</time>
      </trkpt>
      <trkpt lat="48.21253" lon="6.78343">
        <ele>637.49</ele>
        <time>2018-04-02T08:17:05Z</time>
      </trkpt>
      <trkpt lat="48.21251" lon="6.78358">
        <ele>638.45</ele>
        <time>2018-04-02T08:17:11Z</time>
      </trkpt>
      <trkpt lat="48.21247" lon="6.78373">
        <ele>639.41</ele>
        <time>2018-04-02T08:17:17Z</time>
      </trkpt>
      <trkpt lat="48.21244" lon="6.78388">
        <ele>639.89</ele>
        <time>2018-04-02T08:17:23Z</time>
      </trkpt>
      <trkpt lat="48.21241" lon="6.78405">
        <ele>639.89</ele>
        <time>2018-04-02T08:17:29Z</time>
      </trkpt>
      <trkpt lat="48.21239" lon="6.78421">
        <ele>640.86</ele>
        <time>2018-04-02T08:17:34Z</time>
      </trkpt>
      <trkpt lat="48.21239" lon="6.78439">
        <ele>640.38</ele>
        <time>2018-04-02T08:17:41Z</time>
      </trkpt>
      <trkpt lat="48.21239" lon="6.78456">
        <ele>640.86</ele>
        <time>2018-04-02T08:17:47Z</time>
      </trkpt>
      <trkpt lat="48.21238" lon="6.78475">
        <ele>640.38</ele>
        <time>2018-04-02T08:17:52Z</time>
      </trkpt>
      <trkpt lat="48.21238" lon="6.78492">
        <ele>641.34</ele>
        <time>2018-04-02T08:17:57Z</time>
      </trkpt>
      <trkpt lat="48.21237" lon="6.78506">
        <ele>640.86</ele>
        <time>2018-04-02T08:18:01Z</time>
      </trkpt>
      <trkpt lat="48.21237" lon="6.78519">
        <ele>640.86</ele>
        <time>2018-04-02T08:18:05Z</time>
      </trkpt>
      <trkpt lat="48.21239" lon="6.78535">
        <ele>641.34</ele>
        <time>2018-04-02T08:18:09Z</time>
      </trkpt>
      <trkpt lat="48.21242" lon="6.78551">
        <ele>641.82</ele>
        <time>2018-04-02T08:18:14Z</time>
      </trkpt>
      <trkpt lat="48.21246" lon="6.78564">
        <ele>641.82</ele>
        <time>2018-04-02T08:18:18Z</time>
      </trkpt>
      <trkpt lat="48.21254" lon="6.78577">
        <ele>642.78</ele>
        <time>2018-04-02T08:18:23Z</time>
      </trkpt>
      <trkpt lat="48.21262" lon="6.78588">
        <ele>642.78</ele>
        <time>2018-04-02T08:18:28Z</time>
      </trkpt>
      <trkpt lat="48.21273" lon="6.78594">
        <ele>643.26</ele>
        <time>2018-04-02T08:18:34Z</time>
      </trkpt>
      <trkpt lat="48.21284" lon="6.78601">
        <ele>642.3</ele>
        <time>2018-04-02T08:18:40Z</time>
      </trkpt>
      <trkpt lat="48.21295" lon="6.78605">
        <ele>641.82</ele>
        <time>2018-04-02T08:18:46Z</time>
      </trkpt>
      <trkpt lat="48.21305" lon="6.78608">
        <ele>641.82</ele>
        <time>2018-04-02T08:18:53Z</time>
      </trkpt>
      <trkpt lat="48.21306" lon="6.78606">
        <ele>641.34</ele>
        <time>2018-04-02T08:23:25Z</time>
      </trkpt>
      <trkpt lat="48.21317" lon="6.78604">
        <ele>640.38</ele>
        <time>2018-04-02T08:23:30Z</time>
      </trkpt>
      <trkpt lat="48.21327" lon="6.78602">
        <ele>640.86</ele>
        <time>2018-04-02T08:23:34Z</time>
      </trkpt>
      <trkpt lat="48.21338" lon="6.78597">
        <ele>639.89</ele>
        <time>2018-04-02T08:23:43Z</time>
      </trkpt>
      <trkpt lat="48.21354" lon="6.78601">
        <ele>640.86</ele>
        <time>2018-04-02T08:23:47Z</time>
      </trkpt>
      <trkpt lat="48.21365" lon="6.78603">
        <ele>641.34</ele>
        <time>2018-04-02T08:23:51Z</time>
      </trkpt>
      <trkpt lat="48.21379" lon="6.78607">
        <ele>641.34</ele>
        <time>2018-04-02T08:23:55Z</time>
      </trkpt>
      <trkpt lat="48.21391" lon="6.7861">
        <ele>641.34</ele>
        <time>2018-04-02T08:23:59Z</time>
      </trkpt>
      <trkpt lat="48.21403" lon="6.78613">
        <ele>641.34</ele>
        <time>2018-04-02T08:24:02Z</time>
      </trkpt>
      <trkpt lat="48.21414" lon="6.78616">
        <ele>642.3</ele>
        <time>2018-04-02T08:24:05Z</time>
      </trkpt>
      <trkpt lat="48.21424" lon="6.78621">
        <ele>642.78</ele>
        <time>2018-04-02T08:24:08Z</time>
      </trkpt>
      <trkpt lat="48.21435" lon="6.78625">
        <ele>642.3</ele>
        <time>2018-04-02T08:24:11Z</time>
      </trkpt>
      <trkpt lat="48.21447" lon="6.78628">
        <ele>642.78</ele>
        <time>2018-04-02T08:24:14Z</time>
      </trkpt>
      <trkpt lat="48.21458" lon="6.78631">
        <ele>642.78</ele>
        <time>2018-04-02T08:24:17Z</time>
      </trkpt>
      <trkpt lat="48.21468" lon="6.78633">
        <ele>643.26</ele>
        <time>2018-04-02T08:24:20Z</time>
      </trkpt>
      <trkpt lat="48.2148" lon="6.78635">
        <ele>642.78</ele>
        <time>2018-04-02T08:24:24Z</time>
      </trkpt>
      <trkpt lat="48.21493" lon="6.78633">
        <ele>643.26</ele>
        <time>2018-04-02T08:24:28Z</time>
      </trkpt>
      <trkpt lat="48.21507" lon="6.78631">
        <ele>643.26</ele>
        <time>2018-04-02T08:24:32Z</time>
      </trkpt>
      <trkpt lat="48.21517" lon="6.78633">
        <ele>643.74</ele>
        <time>2018-04-02T08:24:35Z</time>
      </trkpt>
      <trkpt lat="48.21527" lon="6.78635">
        <ele>643.74</ele>
        <time>2018-04-02T08:24:38Z</time>
      </trkpt>
      <trkpt lat="48.21537" lon="6.78639">
        <ele>643.74</ele>
        <time>2018-04-02T08:24:41Z</time>
      </trkpt>
      <trkpt lat="48.21548" lon="6.78644">
        <ele>644.22</ele>
        <time>2018-04-02T08:24:45Z</time>
      </trkpt>
      <trkpt lat="48.21557" lon="6.7865">
        <ele>643.74</ele>
        <time>2018-04-02T08:24:48Z</time>
      </trkpt>
      <trkpt lat="48.21565" lon="6.78658">
        <ele>644.22</ele>
        <time>2018-04-02T08:24:51Z</time>
      </trkpt>
      <trkpt lat="48.21574" lon="6.78665">
        <ele>644.22</ele>
        <time>2018-04-02T08:24:54Z</time>
      </trkpt>
      <trkpt lat="48.21582" lon="6.78672">
        <ele>644.22</ele>
        <time>2018-04-02T08:24:57Z</time>
      </trkpt>
      <trkpt lat="48.2159" lon="6.7868">
        <ele>643.74</ele>
        <time>2018-04-02T08:25:00Z</time>
      </trkpt>
      <trkpt lat="48.21598" lon="6.78689">
        <ele>643.26</ele>
        <time>2018-04-02T08:25:03Z</time>
      </trkpt>
      <trkpt lat="48.21608" lon="6.78697">
        <ele>643.74</ele>
        <time>2018-04-02T08:25:06Z</time>
      </trkpt>
      <trkpt lat="48.21616" lon="6.78709">
        <ele>643.26</ele>
        <time>2018-04-02T08:25:09Z</time>
      </trkpt>
      <trkpt lat="48.21623" lon="6.78722">
        <ele>642.78</ele>
        <time>2018-04-02T08:25:12Z</time>
      </trkpt>
      <trkpt lat="48.2163" lon="6.78736">
        <ele>642.3</ele>
        <time>2018-04-02T08:25:15Z</time>
      </trkpt>
      <trkpt lat="48.21638" lon="6.78752">
        <ele>641.34</ele>
        <time>2018-04-02T08:25:18Z</time>
      </trkpt>
      <trkpt lat="48.21643" lon="6.78763">
        <ele>641.34</ele>
        <time>2018-04-02T08:25:20Z</time>
      </trkpt>
      <trkpt lat="48.21651" lon="6.78779">
        <ele>640.38</ele>
        <time>2018-04-02T08:25:23Z</time>
      </trkpt>
      <trkpt lat="48.21656" lon="6.78791">
        <ele>640.38</ele>
        <time>2018-04-02T08:25:25Z</time>
      </trkpt>
      <trkpt lat="48.21662" lon="6.78803">
        <ele>639.89</ele>
        <time>2018-04-02T08:25:27Z</time>
      </trkpt>
      <trkpt lat="48.21671" lon="6.78818">
        <ele>639.41</ele>
        <time>2018-04-02T08:25:30Z</time>
      </trkpt>
      <trkpt lat="48.21679" lon="6.78829">
        <ele>639.89</ele>
        <time>2018-04-02T08:25:32Z</time>
      </trkpt>
      <trkpt lat="48.21686" lon="6.78839">
        <ele>639.41</ele>
        <time>2018-04-02T08:25:34Z</time>
      </trkpt>
      <trkpt lat="48.21696" lon="6.78853">
        <ele>639.41</ele>
        <time>2018-04-02T08:25:37Z</time>
      </trkpt>
      <trkpt lat="48.21707" lon="6.78865">
        <ele>638.93</ele>
        <time>2018-04-02T08:25:40Z</time>
      </trkpt>
      <trkpt lat="48.21718" lon="6.78876">
        <ele>638.93</ele>
        <time>2018-04-02T08:25:43Z</time>
      </trkpt>
      <trkpt lat="48.21727" lon="6.78888">
        <ele>638.93</ele>
        <time>2018-04-02T08:25:46Z</time>
      </trkpt>
      <trkpt lat="48.21735" lon="6.78896">
        <ele>638.45</ele>
        <time>2018-04-02T08:25:49Z</time>
      </trkpt>
      <trkpt lat="48.21746" lon="6.78906">
        <ele>638.45</ele>
        <time>2018-04-02T08:25:53Z</time>
      </trkpt>
      <trkpt lat="48.21757" lon="6.78918">
        <ele>637.97</ele>
        <time>2018-04-02T08:25:56Z</time>
      </trkpt>
      <trkpt lat="48.21764" lon="6.78929">
        <ele>637.97</ele>
        <time>2018-04-02T08:25:58Z</time>
      </trkpt>
      <trkpt lat="48.21772" lon="6.78942">
        <ele>637.97</ele>
        <time>2018-04-02T08:26:01Z</time>
      </trkpt>
      <trkpt lat="48.21781" lon="6.78957">
        <ele>637.01</ele>
        <time>2018-04-02T08:26:04Z</time>
      </trkpt>
      <trkpt lat="48.21788" lon="6.78973">
        <ele>636.53</ele>
        <time>2018-04-02T08:26:07Z</time>
      </trkpt>
      <trkpt lat="48.21793" lon="6.78986">
        <ele>636.05</ele>
        <time>2018-04-02T08:26:09Z</time>
      </trkpt>
      <trkpt lat="48.21799" lon="6.78999">
        <ele>635.09</ele>
        <time>2018-04-02T08:26:11Z</time>
      </trkpt>
      <trkpt lat="48.21806" lon="6.79011">
        <ele>635.09</ele>
        <time>2018-04-02T08:26:13Z</time>
      </trkpt>
      <trkpt lat="48.21813" lon="6.79022">
        <ele>635.09</ele>
        <time>2018-04-02T08:26:15Z</time>
      </trkpt>
      <trkpt lat="48.21822" lon="6.79035">
        <ele>634.61</ele>
        <time>2018-04-02T08:26:18Z</time>
      </trkpt>
      <trkpt lat="48.21829" lon="6.79049">
        <ele>634.61</ele>
        <time>2018-04-02T08:26:21Z</time>
      </trkpt>
      <trkpt lat="48.21837" lon="6.79063">
        <ele>635.09</ele>
        <time>2018-04-02T08:26:24Z</time>
      </trkpt>
      <trkpt lat="48.21847" lon="6.79075">
        <ele>635.09</ele>
        <time>2018-04-02T08:26:27Z</time>
      </trkpt>
      <trkpt lat="48.21857" lon="6.79085">
        <ele>635.57</ele>
        <time>2018-04-02T08:26:30Z</time>
      </trkpt>
      <trkpt lat="48.21869" lon="6.79092">
        <ele>636.05</ele>
        <time>2018-04-02T08:26:33Z</time>
      </trkpt>
      <trkpt lat="48.21881" lon="6.79096">
        <ele>635.57</ele>
        <time>2018-04-02T08:26:36Z</time>
      </trkpt>
      <trkpt lat="48.21894" lon="6.79098">
        <ele>634.61</ele>
        <time>2018-04-02T08:26:39Z</time>
      </trkpt>
      <trkpt lat="48.21904" lon="6.79098">
        <ele>633.65</ele>
        <time>2018-04-02T08:26:41Z</time>
      </trkpt>
      <trkpt lat="48.21915" lon="6.79099">
        <ele>633.17</ele>
        <time>2018-04-02T08:26:43Z</time>
      </trkpt>
      <trkpt lat="48.21925" lon="6.79098">
        <ele>632.68</ele>
        <time>2018-04-02T08:26:45Z</time>
      </trkpt>
      <trkpt lat="48.21934" lon="6.79097">
        <ele>632.2</ele>
        <time>2018-04-02T08:26:47Z</time>
      </trkpt>
      <trkpt lat="48.21944" lon="6.79098">
        <ele>631.24</ele>
        <time>2018-04-02T08:26:51Z</time>
      </trkpt>
      <trkpt lat="48.21955" lon="6.79098">
        <ele>630.76</ele>
        <time>2018-04-02T08:27:09Z</time>
      </trkpt>
      <trkpt lat="48.21954" lon="6.79095">
        <ele>630.28</ele>
        <time>2018-04-02T08:27:46Z</time>
      </trkpt>
      <trkpt lat="48.21953" lon="6.79112">
        <ele>630.28</ele>
        <time>2018-04-02T08:30:10Z</time>
      </trkpt>
      <trkpt lat="48.21956" lon="6.7911">
        <ele>629.32</ele>
        <time>2018-04-02T08:32:12Z</time>
      </trkpt>
      <trkpt lat="48.21958" lon="6.79103">
        <ele>628.84</ele>
        <time>2018-04-02T08:34:35Z</time>
      </trkpt>
      <trkpt lat="48.21955" lon="6.79096">
        <ele>628.84</ele>
        <time>2018-04-02T08:35:20Z</time>
      </trkpt>
      <trkpt lat="48.21958" lon="6.79086">
        <ele>627.4</ele>
        <time>2018-04-02T08:37:16Z</time>
      </trkpt>
      <trkpt lat="48.21957" lon="6.79069">
        <ele>624.51</ele>
        <time>2018-04-02T08:37:22Z</time>
      </trkpt>
      <trkpt lat="48.21956" lon="6.79051">
        <ele>620.67</ele>
        <time>2018-04-02T08:37:29Z</time>
      </trkpt>
      <trkpt lat="48.21952" lon="6.79033">
        <ele>618.26</ele>
        <time>2018-04-02T08:37:44Z</time>
      </trkpt>
      <trkpt lat="48.21949" lon="6.79016">
        <ele>615.86</ele>
        <time>2018-04-02T08:37:49Z</time>
      </trkpt>
      <trkpt lat="48.21945" lon="6.78998">
        <ele>612.5</ele>
        <time>2018-04-02T08:37:54Z</time>
      </trkpt>
      <trkpt lat="48.2194" lon="6.7898">
        <ele>609.61</ele>
        <time>2018-04-02T08:38:01Z</time>
      </trkpt>
      <trkpt lat="48.21936" lon="6.78965">
        <ele>607.21</ele>
        <time>2018-04-02T08:38:07Z</time>
      </trkpt>
      <trkpt lat="48.21929" lon="6.78948">
        <ele>603.36</ele>
        <time>2018-04-02T08:38:12Z</time>
      </trkpt>
      <trkpt lat="48.21926" lon="6.7893">
        <ele>600.96</ele>
        <time>2018-04-02T08:38:17Z</time>
      </trkpt>
      <trkpt lat="48.2192" lon="6.78912">
        <ele>599.04</ele>
        <time>2018-04-02T08:38:21Z</time>
      </trkpt>
      <trkpt lat="48.21916" lon="6.78897">
        <ele>597.12</ele>
        <time>2018-04-02T08:38:25Z</time>
      </trkpt>
      <trkpt lat="48.21912" lon="6.78884">
        <ele>595.67</ele>
        <time>2018-04-02T08:38:28Z</time>
      </trkpt>
      <trkpt lat="48.21909" lon="6.78868">
        <ele>592.79</ele>
        <time>2018-04-02T08:38:33Z</time>
      </trkpt>
      <trkpt lat="48.21902" lon="6.78852">
        <ele>589.91</ele>
        <time>2018-04-02T08:38:39Z</time>
      </trkpt>
      <trkpt lat="48.219" lon="6.78835">
        <ele>587.98</ele>
        <time>2018-04-02T08:38:45Z</time>
      </trkpt>
      <trkpt lat="48.21896" lon="6.7882">
        <ele>583.18</ele>
        <time>2018-04-02T08:39:15Z</time>
      </trkpt>
      <trkpt lat="48.21897" lon="6.78787">
        <ele>577.89</ele>
        <time>2018-04-02T08:39:40Z</time>
      </trkpt>
      <trkpt lat="48.21897" lon="6.78772">
        <ele>575.97</ele>
        <time>2018-04-02T08:40:12Z</time>
      </trkpt>
      <trkpt lat="48.219" lon="6.78755">
        <ele>575.49</ele>
        <time>2018-04-02T08:40:15Z</time>
      </trkpt>
      <trkpt lat="48.21898" lon="6.78736">
        <ele>575.97</ele>
        <time>2018-04-02T08:40:21Z</time>
      </trkpt>
      <trkpt lat="48.21894" lon="6.78722">
        <ele>577.89</ele>
        <time>2018-04-02T08:40:25Z</time>
      </trkpt>
      <trkpt lat="48.21891" lon="6.78704">
        <ele>579.33</ele>
        <time>2018-04-02T08:40:29Z</time>
      </trkpt>
      <trkpt lat="48.21885" lon="6.78689">
        <ele>581.25</ele>
        <time>2018-04-02T08:40:33Z</time>
      </trkpt>
      <trkpt lat="48.2188" lon="6.78673">
        <ele>582.22</ele>
        <time>2018-04-02T08:40:37Z</time>
      </trkpt>
      <trkpt lat="48.21874" lon="6.78656">
        <ele>583.18</ele>
        <time>2018-04-02T08:40:41Z</time>
      </trkpt>
      <trkpt lat="48.21865" lon="6.78641">
        <ele>585.1</ele>
        <time>2018-04-02T08:40:45Z</time>
      </trkpt>
      <trkpt lat="48.21857" lon="6.78626">
        <ele>585.58</ele>
        <time>2018-04-02T08:40:49Z</time>
      </trkpt>
      <trkpt lat="48.21853" lon="6.78611">
        <ele>586.06</ele>
        <time>2018-04-02T08:40:53Z</time>
      </trkpt>
      <trkpt lat="48.21848" lon="6.78594">
        <ele>586.54</ele>
        <time>2018-04-02T08:40:57Z</time>
      </trkpt>
      <trkpt lat="48.2184" lon="6.7858">
        <ele>587.02</ele>
        <time>2018-04-02T08:41:01Z</time>
      </trkpt>
      <trkpt lat="48.21829" lon="6.78569">
        <ele>587.5</ele>
        <time>2018-04-02T08:41:05Z</time>
      </trkpt>
      <trkpt lat="48.21819" lon="6.78561">
        <ele>587.02</ele>
        <time>2018-04-02T08:41:08Z</time>
      </trkpt>
      <trkpt lat="48.21807" lon="6.78554">
        <ele>587.5</ele>
        <time>2018-04-02T08:41:11Z</time>
      </trkpt>
      <trkpt lat="48.21796" lon="6.78548">
        <ele>587.5</ele>
        <time>2018-04-02T08:41:15Z</time>
      </trkpt>
      <trkpt lat="48.21785" lon="6.78543">
        <ele>587.5</ele>
        <time>2018-04-02T08:41:32Z</time>
      </trkpt>
      <trkpt lat="48.21772" lon="6.78534">
        <ele>588.46</ele>
        <time>2018-04-02T08:41:41Z</time>
      </trkpt>
      <trkpt lat="48.2176" lon="6.78533">
        <ele>589.43</ele>
        <time>2018-04-02T08:41:45Z</time>
      </trkpt>
      <trkpt lat="48.21746" lon="6.78529">
        <ele>589.91</ele>
        <time>2018-04-02T08:41:49Z</time>
      </trkpt>
      <trkpt lat="48.21733" lon="6.78523">
        <ele>590.87</ele>
        <time>2018-04-02T08:41:52Z</time>
      </trkpt>
      <trkpt lat="48.21722" lon="6.78521">
        <ele>591.35</ele>
        <time>2018-04-02T08:41:55Z</time>
      </trkpt>
      <trkpt lat="48.21709" lon="6.78523">
        <ele>591.83</ele>
        <time>2018-04-02T08:41:59Z</time>
      </trkpt>
      <trkpt lat="48.21697" lon="6.78523">
        <ele>591.35</ele>
        <time>2018-04-02T08:42:06Z</time>
      </trkpt>
      <trkpt lat="48.21683" lon="6.78519">
        <ele>592.31</ele>
        <time>2018-04-02T08:42:12Z</time>
      </trkpt>
      <trkpt lat="48.21663" lon="6.7851">
        <ele>593.75</ele>
        <time>2018-04-02T08:42:17Z</time>
      </trkpt>
      <trkpt lat="48.21654" lon="6.78506">
        <ele>593.75</ele>
        <time>2018-04-02T08:42:21Z</time>
      </trkpt>
      <trkpt lat="48.21643" lon="6.78495">
        <ele>593.27</ele>
        <time>2018-04-02T08:42:26Z</time>
      </trkpt>
      <trkpt lat="48.21632" lon="6.78485">
        <ele>593.75</ele>
        <time>2018-04-02T08:42:29Z</time>
      </trkpt>
      <trkpt lat="48.21621" lon="6.78474">
        <ele>593.75</ele>
        <time>2018-04-02T08:42:33Z</time>
      </trkpt>
      <trkpt lat="48.21612" lon="6.78465">
        <ele>593.75</ele>
        <time>2018-04-02T08:42:40Z</time>
      </trkpt>
      <trkpt lat="48.21606" lon="6.78455">
        <ele>594.71</ele>
        <time>2018-04-02T08:43:30Z</time>
      </trkpt>
      <trkpt lat="48.216" lon="6.78443">
        <ele>594.71</ele>
        <time>2018-04-02T08:43:40Z</time>
      </trkpt>
      <trkpt lat="48.21593" lon="6.78432">
        <ele>594.71</ele>
        <time>2018-04-02T08:43:46Z</time>
      </trkpt>
      <trkpt lat="48.21586" lon="6.78418">
        <ele>595.19</ele>
        <time>2018-04-02T08:43:52Z</time>
      </trkpt>
      <trkpt lat="48.21579" lon="6.78405">
        <ele>596.15</ele>
        <time>2018-04-02T08:43:57Z</time>
      </trkpt>
      <trkpt lat="48.21573" lon="6.78392">
        <ele>597.12</ele>
        <time>2018-04-02T08:44:02Z</time>
      </trkpt>
      <trkpt lat="48.21566" lon="6.78381">
        <ele>598.08</ele>
        <time>2018-04-02T08:44:07Z</time>
      </trkpt>
      <trkpt lat="48.21558" lon="6.78372">
        <ele>599.52</ele>
        <time>2018-04-02T08:44:14Z</time>
      </trkpt>
      <trkpt lat="48.21548" lon="6.7836">
        <ele>600.96</ele>
        <time>2018-04-02T08:44:21Z</time>
      </trkpt>
      <trkpt lat="48.2154" lon="6.78346">
        <ele>601.92</ele>
        <time>2018-04-02T08:44:28Z</time>
      </trkpt>
      <trkpt lat="48.21532" lon="6.78335">
        <ele>603.36</ele>
        <time>2018-04-02T08:44:34Z</time>
      </trkpt>
      <trkpt lat="48.21523" lon="6.78321">
        <ele>604.33</ele>
        <time>2018-04-02T08:44:41Z</time>
      </trkpt>
      <trkpt lat="48.21515" lon="6.78308">
        <ele>605.77</ele>
        <time>2018-04-02T08:44:47Z</time>
      </trkpt>
      <trkpt lat="48.21507" lon="6.78297">
        <ele>606.73</ele>
        <time>2018-04-02T08:44:53Z</time>
      </trkpt>
      <trkpt lat="48.21499" lon="6.78283">
        <ele>608.17</ele>
        <time>2018-04-02T08:45:00Z</time>
      </trkpt>
      <trkpt lat="48.21492" lon="6.78267">
        <ele>609.61</ele>
        <time>2018-04-02T08:45:08Z</time>
      </trkpt>
      <trkpt lat="48.21486" lon="6.78252">
        <ele>611.06</ele>
        <time>2018-04-02T08:45:16Z</time>
      </trkpt>
      <trkpt lat="48.2148" lon="6.78236">
        <ele>612.02</ele>
        <time>2018-04-02T08:45:23Z</time>
      </trkpt>
      <trkpt lat="48.21473" lon="6.78222">
        <ele>613.46</ele>
        <time>2018-04-02T08:45:29Z</time>
      </trkpt>
      <trkpt lat="48.21469" lon="6.78203">
        <ele>615.86</ele>
        <time>2018-04-02T08:45:36Z</time>
      </trkpt>
      <trkpt lat="48.21464" lon="6.78189">
        <ele>615.86</ele>
        <time>2018-04-02T08:45:42Z</time>
      </trkpt>
      <trkpt lat="48.21462" lon="6.78171">
        <ele>616.82</ele>
        <time>2018-04-02T08:45:50Z</time>
      </trkpt>
      <trkpt lat="48.2146" lon="6.78152">
        <ele>617.78</ele>
        <time>2018-04-02T08:45:58Z</time>
      </trkpt>
      <trkpt lat="48.21457" lon="6.78132">
        <ele>618.26</ele>
        <time>2018-04-02T08:46:05Z</time>
      </trkpt>
      <trkpt lat="48.21459" lon="6.78114">
        <ele>619.23</ele>
        <time>2018-04-02T08:46:11Z</time>
      </trkpt>
      <trkpt lat="48.2146" lon="6.78094">
        <ele>620.19</ele>
        <time>2018-04-02T08:46:18Z</time>
      </trkpt>
      <trkpt lat="48.21464" lon="6.78083">
        <ele>621.15</ele>
        <time>2018-04-02T08:46:26Z</time>
      </trkpt>
      <trkpt lat="48.21462" lon="6.78063">
        <ele>621.63</ele>
        <time>2018-04-02T08:46:33Z</time>
      </trkpt>
      <trkpt lat="48.21461" lon="6.78047">
        <ele>622.11</ele>
        <time>2018-04-02T08:46:39Z</time>
      </trkpt>
      <trkpt lat="48.21462" lon="6.78029">
        <ele>623.07</ele>
        <time>2018-04-02T08:46:46Z</time>
      </trkpt>
      <trkpt lat="48.21457" lon="6.78006">
        <ele>622.59</ele>
        <time>2018-04-02T08:46:53Z</time>
      </trkpt>
      <trkpt lat="48.21452" lon="6.77986">
        <ele>623.07</ele>
        <time>2018-04-02T08:47:00Z</time>
      </trkpt>
      <trkpt lat="48.21441" lon="6.77973">
        <ele>622.59</ele>
        <time>2018-04-02T08:47:09Z</time>
      </trkpt>
      <trkpt lat="48.21433" lon="6.77958">
        <ele>622.11</ele>
        <time>2018-04-02T08:48:30Z</time>
      </trkpt>
      <trkpt lat="48.21425" lon="6.77948">
        <ele>622.11</ele>
        <time>2018-04-02T08:48:39Z</time>
      </trkpt>
      <trkpt lat="48.21414" lon="6.77935">
        <ele>621.63</ele>
        <time>2018-04-02T08:48:44Z</time>
      </trkpt>
      <trkpt lat="48.21406" lon="6.77924">
        <ele>621.15</ele>
        <time>2018-04-02T08:48:47Z</time>
      </trkpt>
      <trkpt lat="48.21395" lon="6.77913">
        <ele>620.19</ele>
        <time>2018-04-02T08:48:50Z</time>
      </trkpt>
      <trkpt lat="48.21386" lon="6.77904">
        <ele>620.19</ele>
        <time>2018-04-02T08:48:52Z</time>
      </trkpt>
      <trkpt lat="48.21378" lon="6.77897">
        <ele>620.19</ele>
        <time>2018-04-02T08:48:54Z</time>
      </trkpt>
      <trkpt lat="48.21366" lon="6.77889">
        <ele>619.71</ele>
        <time>2018-04-02T08:48:57Z</time>
      </trkpt>
      <trkpt lat="48.21358" lon="6.77881">
        <ele>619.71</ele>
        <time>2018-04-02T08:48:59Z</time>
      </trkpt>
      <trkpt lat="48.2135" lon="6.77873">
        <ele>620.19</ele>
        <time>2018-04-02T08:49:01Z</time>
      </trkpt>
      <trkpt lat="48.21341" lon="6.77867">
        <ele>620.19</ele>
        <time>2018-04-02T08:49:03Z</time>
      </trkpt>
      <trkpt lat="48.21333" lon="6.77859">
        <ele>620.67</ele>
        <time>2018-04-02T08:49:05Z</time>
      </trkpt>
      <trkpt lat="48.21324" lon="6.77849">
        <ele>620.19</ele>
        <time>2018-04-02T08:49:07Z</time>
      </trkpt>
      <trkpt lat="48.21313" lon="6.77839">
        <ele>619.71</ele>
        <time>2018-04-02T08:49:09Z</time>
      </trkpt>
      <trkpt lat="48.21301" lon="6.77827">
        <ele>618.26</ele>
        <time>2018-04-02T08:49:11Z</time>
      </trkpt>
      <trkpt lat="48.21289" lon="6.77814">
        <ele>616.82</ele>
        <time>2018-04-02T08:49:13Z</time>
      </trkpt>
      <trkpt lat="48.21275" lon="6.77798">
        <ele>616.34</ele>
        <time>2018-04-02T08:49:15Z</time>
      </trkpt>
      <trkpt lat="48.21261" lon="6.77779">
        <ele>615.38</ele>
        <time>2018-04-02T08:49:17Z</time>
      </trkpt>
      <trkpt lat="48.21247" lon="6.77759">
        <ele>615.38</ele>
        <time>2018-04-02T08:49:19Z</time>
      </trkpt>
      <trkpt lat="48.21234" lon="6.7774">
        <ele>614.9</ele>
        <time>2018-04-02T08:49:21Z</time>
      </trkpt>
      <trkpt lat="48.21222" lon="6.77722">
        <ele>614.9</ele>
        <time>2018-04-02T08:49:23Z</time>
      </trkpt>
      <trkpt lat="48.21212" lon="6.77706">
        <ele>615.38</ele>
        <time>2018-04-02T08:49:25Z</time>
      </trkpt>
      <trkpt lat="48.21203" lon="6.77691">
        <ele>615.86</ele>
        <time>2018-04-02T08:49:27Z</time>
      </trkpt>
      <trkpt lat="48.21195" lon="6.77677">
        <ele>615.86</ele>
        <time>2018-04-02T08:49:29Z</time>
      </trkpt>
      <trkpt lat="48.21189" lon="6.77663">
        <ele>615.86</ele>
        <time>2018-04-02T08:49:31Z</time>
      </trkpt>
      <trkpt lat="48.21182" lon="6.77651">
        <ele>616.82</ele>
        <time>2018-04-02T08:49:33Z</time>
      </trkpt>
      <trkpt lat="48.21176" lon="6.7764">
        <ele>616.82</ele>
        <time>2018-04-02T08:49:35Z</time>
      </trkpt>
      <trkpt lat="48.21167" lon="6.77624">
        <ele>617.3</ele>
        <time>2018-04-02T08:49:38Z</time>
      </trkpt>
      <trkpt lat="48.2116" lon="6.7761">
        <ele>617.3</ele>
        <time>2018-04-02T08:49:41Z</time>
      </trkpt>
      <trkpt lat="48.21154" lon="6.77595">
        <ele>617.78</ele>
        <time>2018-04-02T08:49:44Z</time>
      </trkpt>
      <trkpt lat="48.21147" lon="6.7758">
        <ele>617.78</ele>
        <time>2018-04-02T08:49:47Z</time>
      </trkpt>
      <trkpt lat="48.2114" lon="6.77569">
        <ele>618.75</ele>
        <time>2018-04-02T08:49:50Z</time>
      </trkpt>
      <trkpt lat="48.21134" lon="6.77557">
        <ele>618.26</ele>
        <time>2018-04-02T08:49:53Z</time>
      </trkpt>
      <trkpt lat="48.21125" lon="6.77543">
        <ele>618.75</ele>
        <time>2018-04-02T08:49:56Z</time>
      </trkpt>
      <trkpt lat="48.21117" lon="6.77529">
        <ele>619.71</ele>
        <time>2018-04-02T08:49:59Z</time>
      </trkpt>
      <trkpt lat="48.2111" lon="6.77518">
        <ele>620.19</ele>
        <time>2018-04-02T08:50:02Z</time>
      </trkpt>
      <trkpt lat="48.21104" lon="6.77506">
        <ele>620.67</ele>
        <time>2018-04-02T08:50:05Z</time>
      </trkpt>
      <trkpt lat="48.21096" lon="6.77493">
        <ele>621.15</ele>
        <time>2018-04-02T08:50:08Z</time>
      </trkpt>
      <trkpt lat="48.21089" lon="6.77481">
        <ele>620.67</ele>
        <time>2018-04-02T08:50:11Z</time>
      </trkpt>
      <trkpt lat="48.21082" lon="6.77468">
        <ele>620.67</ele>
        <time>2018-04-02T08:50:14Z</time>
      </trkpt>
      <trkpt lat="48.21075" lon="6.77456">
        <ele>621.15</ele>
        <time>2018-04-02T08:50:17Z</time>
      </trkpt>
      <trkpt lat="48.21067" lon="6.77445">
        <ele>621.15</ele>
        <time>2018-04-02T08:50:20Z</time>
      </trkpt>
      <trkpt lat="48.2106" lon="6.77434">
        <ele>621.63</ele>
        <time>2018-04-02T08:50:23Z</time>
      </trkpt>
      <trkpt lat="48.21051" lon="6.77421">
        <ele>622.59</ele>
        <time>2018-04-02T08:50:27Z</time>
      </trkpt>
      <trkpt lat="48.21045" lon="6.77411">
        <ele>622.59</ele>
        <time>2018-04-02T08:50:30Z</time>
      </trkpt>
      <trkpt lat="48.21037" lon="6.77399">
        <ele>622.59</ele>
        <time>2018-04-02T08:50:33Z</time>
      </trkpt>
      <trkpt lat="48.21028" lon="6.77388">
        <ele>623.07</ele>
        <time>2018-04-02T08:50:36Z</time>
      </trkpt>
      <trkpt lat="48.21019" lon="6.77375">
        <ele>622.59</ele>
        <time>2018-04-02T08:50:39Z</time>
      </trkpt>
      <trkpt lat="48.21013" lon="6.77363">
        <ele>623.07</ele>
        <time>2018-04-02T08:50:42Z</time>
      </trkpt>
      <trkpt lat="48.21004" lon="6.77354">
        <ele>623.55</ele>
        <time>2018-04-02T08:50:45Z</time>
      </trkpt>
      <trkpt lat="48.20994" lon="6.77343">
        <ele>622.59</ele>
        <time>2018-04-02T08:50:48Z</time>
      </trkpt>
      <trkpt lat="48.20985" lon="6.77332">
        <ele>622.59</ele>
        <time>2018-04-02T08:50:51Z</time>
      </trkpt>
      <trkpt lat="48.20975" lon="6.77322">
        <ele>622.59</ele>
        <time>2018-04-02T08:50:54Z</time>
      </trkpt>
      <trkpt lat="48.20964" lon="6.77315">
        <ele>622.11</ele>
        <time>2018-04-02T08:50:57Z</time>
      </trkpt>
      <trkpt lat="48.20953" lon="6.77308">
        <ele>621.63</ele>
        <time>2018-04-02T08:51:00Z</time>
      </trkpt>
      <trkpt lat="48.20944" lon="6.77303">
        <ele>621.15</ele>
        <time>2018-04-02T08:51:03Z</time>
      </trkpt>
      <trkpt lat="48.20932" lon="6.77297">
        <ele>621.15</ele>
        <time>2018-04-02T08:51:06Z</time>
      </trkpt>
      <trkpt lat="48.20919" lon="6.77289">
        <ele>621.15</ele>
        <time>2018-04-02T08:51:09Z</time>
      </trkpt>
      <trkpt lat="48.20911" lon="6.77283">
        <ele>620.67</ele>
        <time>2018-04-02T08:51:11Z</time>
      </trkpt>
      <trkpt lat="48.20902" lon="6.77276">
        <ele>620.67</ele>
        <time>2018-04-02T08:51:13Z</time>
      </trkpt>
      <trkpt lat="48.20894" lon="6.77271">
        <ele>620.67</ele>
        <time>2018-04-02T08:51:15Z</time>
      </trkpt>
      <trkpt lat="48.20885" lon="6.77265">
        <ele>620.67</ele>
        <time>2018-04-02T08:51:17Z</time>
      </trkpt>
      <trkpt lat="48.20873" lon="6.77256">
        <ele>621.15</ele>
        <time>2018-04-02T08:51:20Z</time>
      </trkpt>
      <trkpt lat="48.20864" lon="6.77248">
        <ele>622.11</ele>
        <time>2018-04-02T08:51:23Z</time>
      </trkpt>
      <trkpt lat="48.20853" lon="6.77241">
        <ele>621.63</ele>
        <time>2018-04-02T08:51:27Z</time>
      </trkpt>
      <trkpt lat="48.20843" lon="6.77237">
        <ele>622.11</ele>
        <time>2018-04-02T08:51:30Z</time>
      </trkpt>
      <trkpt lat="48.20833" lon="6.77232">
        <ele>622.11</ele>
        <time>2018-04-02T08:51:33Z</time>
      </trkpt>
      <trkpt lat="48.20824" lon="6.77226">
        <ele>622.11</ele>
        <time>2018-04-02T08:51:36Z</time>
      </trkpt>
      <trkpt lat="48.20812" lon="6.7722">
        <ele>622.59</ele>
        <time>2018-04-02T08:51:40Z</time>
      </trkpt>
      <trkpt lat="48.20799" lon="6.77215">
        <ele>623.07</ele>
        <time>2018-04-02T08:51:44Z</time>
      </trkpt>
      <trkpt lat="48.20787" lon="6.7721">
        <ele>623.07</ele>
        <time>2018-04-02T08:51:48Z</time>
      </trkpt>
      <trkpt lat="48.20775" lon="6.77206">
        <ele>623.07</ele>
        <time>2018-04-02T08:51:52Z</time>
      </trkpt>
      <trkpt lat="48.20763" lon="6.77202">
        <ele>624.03</ele>
        <time>2018-04-02T08:51:56Z</time>
      </trkpt>
      <trkpt lat="48.20752" lon="6.77198">
        <ele>624.51</ele>
        <time>2018-04-02T08:52:00Z</time>
      </trkpt>
      <trkpt lat="48.2074" lon="6.77192">
        <ele>624.99</ele>
        <time>2018-04-02T08:52:04Z</time>
      </trkpt>
      <trkpt lat="48.20729" lon="6.77185">
        <ele>625.47</ele>
        <time>2018-04-02T08:52:08Z</time>
      </trkpt>
      <trkpt lat="48.20717" lon="6.7718">
        <ele>626.92</ele>
        <time>2018-04-02T08:52:13Z</time>
      </trkpt>
      <trkpt lat="48.20706" lon="6.77175">
        <ele>626.92</ele>
        <time>2018-04-02T08:52:17Z</time>
      </trkpt>
      <trkpt lat="48.20696" lon="6.7717">
        <ele>627.88</ele>
        <time>2018-04-02T08:52:21Z</time>
      </trkpt>
      <trkpt lat="48.20685" lon="6.77165">
        <ele>629.32</ele>
        <time>2018-04-02T08:52:27Z</time>
      </trkpt>
      <trkpt lat="48.20674" lon="6.77159">
        <ele>629.8</ele>
        <time>2018-04-02T08:52:35Z</time>
      </trkpt>
      <trkpt lat="48.20665" lon="6.77156">
        <ele>629.8</ele>
        <time>2018-04-02T08:52:43Z</time>
      </trkpt>
      <trkpt lat="48.20673" lon="6.77159">
        <ele>629.32</ele>
        <time>2018-04-02T08:52:49Z</time>
      </trkpt>
      <trkpt lat="48.20681" lon="6.77162">
        <ele>628.36</ele>
        <time>2018-04-02T08:53:02Z</time>
      </trkpt>
      <trkpt lat="48.20673" lon="6.77159">
        <ele>628.36</ele>
        <time>2018-04-02T08:53:10Z</time>
      </trkpt>
      <trkpt lat="48.20664" lon="6.77157">
        <ele>629.32</ele>
        <time>2018-04-02T08:53:18Z</time>
      </trkpt>
      <trkpt lat="48.20666" lon="6.77165">
        <ele>629.8</ele>
        <time>2018-04-02T08:53:28Z</time>
      </trkpt>
      <trkpt lat="48.20661" lon="6.77159">
        <ele>629.32</ele>
        <time>2018-04-02T08:54:13Z</time>
      </trkpt>
      <trkpt lat="48.20651" lon="6.77149">
        <ele>628.84</ele>
        <time>2018-04-02T08:54:21Z</time>
      </trkpt>
      <trkpt lat="48.20653" lon="6.77156">
        <ele>628.84</ele>
        <time>2018-04-02T08:54:37Z</time>
      </trkpt>
      <trkpt lat="48.20662" lon="6.77164">
        <ele>629.32</ele>
        <time>2018-04-02T08:54:50Z</time>
      </trkpt>
      <trkpt lat="48.2067" lon="6.77172">
        <ele>629.8</ele>
        <time>2018-04-02T08:54:59Z</time>
      </trkpt>
      <trkpt lat="48.20675" lon="6.77186">
        <ele>629.32</ele>
        <time>2018-04-02T08:55:06Z</time>
      </trkpt>
      <trkpt lat="48.20678" lon="6.772">
        <ele>630.28</ele>
        <time>2018-04-02T08:55:13Z</time>
      </trkpt>
      <trkpt lat="48.20681" lon="6.77216">
        <ele>630.76</ele>
        <time>2018-04-02T08:55:19Z</time>
      </trkpt>
      <trkpt lat="48.20683" lon="6.77233">
        <ele>631.24</ele>
        <time>2018-04-02T08:55:25Z</time>
      </trkpt>
      <trkpt lat="48.20688" lon="6.77248">
        <ele>632.2</ele>
        <time>2018-04-02T08:55:30Z</time>
      </trkpt>
      <trkpt lat="48.20692" lon="6.7726">
        <ele>632.2</ele>
        <time>2018-04-02T08:55:34Z</time>
      </trkpt>
      <trkpt lat="48.20696" lon="6.77273">
        <ele>632.68</ele>
        <time>2018-04-02T08:55:38Z</time>
      </trkpt>
      <trkpt lat="48.20701" lon="6.77289">
        <ele>633.65</ele>
        <time>2018-04-02T08:55:43Z</time>
      </trkpt>
      <trkpt lat="48.20707" lon="6.77303">
        <ele>634.13</ele>
        <time>2018-04-02T08:55:48Z</time>
      </trkpt>
      <trkpt lat="48.20712" lon="6.77316">
        <ele>634.13</ele>
        <time>2018-04-02T08:55:52Z</time>
      </trkpt>
      <trkpt lat="48.20716" lon="6.77329">
        <ele>635.57</ele>
        <time>2018-04-02T08:55:56Z</time>
      </trkpt>
      <trkpt lat="48.20722" lon="6.77341">
        <ele>635.09</ele>
        <time>2018-04-02T08:56:00Z</time>
      </trkpt>
      <trkpt lat="48.20727" lon="6.77355">
        <ele>636.05</ele>
        <time>2018-04-02T08:56:04Z</time>
      </trkpt>
      <trkpt lat="48.20732" lon="6.77368">
        <ele>636.53</ele>
        <time>2018-04-02T08:56:08Z</time>
      </trkpt>
      <trkpt lat="48.20739" lon="6.7738">
        <ele>637.01</ele>
        <time>2018-04-02T08:56:12Z</time>
      </trkpt>
      <trkpt lat="48.20743" lon="6.77392">
        <ele>637.97</ele>
        <time>2018-04-02T08:56:16Z</time>
      </trkpt>
      <trkpt lat="48.20751" lon="6.77403">
        <ele>638.45</ele>
        <time>2018-04-02T08:56:21Z</time>
      </trkpt>
      <trkpt lat="48.20754" lon="6.77422">
        <ele>638.93</ele>
        <time>2018-04-02T08:56:26Z</time>
      </trkpt>
      <trkpt lat="48.20756" lon="6.77438">
        <ele>639.41</ele>
        <time>2018-04-02T08:56:30Z</time>
      </trkpt>
      <trkpt lat="48.20762" lon="6.77454">
        <ele>639.89</ele>
        <time>2018-04-02T08:56:34Z</time>
      </trkpt>
      <trkpt lat="48.20767" lon="6.7747">
        <ele>640.38</ele>
        <time>2018-04-02T08:56:38Z</time>
      </trkpt>
      <trkpt lat="48.20771" lon="6.77486">
        <ele>640.86</ele>
        <time>2018-04-02T08:56:42Z</time>
      </trkpt>
      <trkpt lat="48.20774" lon="6.77502">
        <ele>641.34</ele>
        <time>2018-04-02T08:56:46Z</time>
      </trkpt>
      <trkpt lat="48.20776" lon="6.77517">
        <ele>641.82</ele>
        <time>2018-04-02T08:56:50Z</time>
      </trkpt>
      <trkpt lat="48.20779" lon="6.77534">
        <ele>642.3</ele>
        <time>2018-04-02T08:56:54Z</time>
      </trkpt>
      <trkpt lat="48.2078" lon="6.77549">
        <ele>643.26</ele>
        <time>2018-04-02T08:56:58Z</time>
      </trkpt>
      <trkpt lat="48.20782" lon="6.77566">
        <ele>643.26</ele>
        <time>2018-04-02T08:57:02Z</time>
      </trkpt>
      <trkpt lat="48.20783" lon="6.77582">
        <ele>644.22</ele>
        <time>2018-04-02T08:57:06Z</time>
      </trkpt>
      <trkpt lat="48.20785" lon="6.77597">
        <ele>644.7</ele>
        <time>2018-04-02T08:57:10Z</time>
      </trkpt>
      <trkpt lat="48.20787" lon="6.77613">
        <ele>644.22</ele>
        <time>2018-04-02T08:57:14Z</time>
      </trkpt>
      <trkpt lat="48.20787" lon="6.77631">
        <ele>643.74</ele>
        <time>2018-04-02T08:57:18Z</time>
      </trkpt>
      <trkpt lat="48.20787" lon="6.77646">
        <ele>643.74</ele>
        <time>2018-04-02T08:57:21Z</time>
      </trkpt>
      <trkpt lat="48.20785" lon="6.7766">
        <ele>642.78</ele>
        <time>2018-04-02T08:57:24Z</time>
      </trkpt>
      <trkpt lat="48.20782" lon="6.77676">
        <ele>642.78</ele>
        <time>2018-04-02T08:57:27Z</time>
      </trkpt>
      <trkpt lat="48.20782" lon="6.77691">
        <ele>641.82</ele>
        <time>2018-04-02T08:57:29Z</time>
      </trkpt>
      <trkpt lat="48.20785" lon="6.77705">
        <ele>641.82</ele>
        <time>2018-04-02T08:57:31Z</time>
      </trkpt>
      <trkpt lat="48.20788" lon="6.7772">
        <ele>640.86</ele>
        <time>2018-04-02T08:57:33Z</time>
      </trkpt>
      <trkpt lat="48.20792" lon="6.77735">
        <ele>640.38</ele>
        <time>2018-04-02T08:57:35Z</time>
      </trkpt>
      <trkpt lat="48.20797" lon="6.77748">
        <ele>639.89</ele>
        <time>2018-04-02T08:57:38Z</time>
      </trkpt>
      <trkpt lat="48.20802" lon="6.77762">
        <ele>638.93</ele>
        <time>2018-04-02T08:57:42Z</time>
      </trkpt>
      <trkpt lat="48.20798" lon="6.77777">
        <ele>637.49</ele>
        <time>2018-04-02T08:57:45Z</time>
      </trkpt>
      <trkpt lat="48.20796" lon="6.77785">
        <ele>637.49</ele>
        <time>2018-04-02T08:58:16Z</time>
      </trkpt>
      <trkpt lat="48.20795" lon="6.77786">
        <ele>637.01</ele>
        <time>2018-04-02T08:59:14Z</time>
      </trkpt>
      <trkpt lat="48.20789" lon="6.7779">
        <ele>636.53</ele>
        <time>2018-04-02T09:00:17Z</time>
      </trkpt>
      <trkpt lat="48.20799" lon="6.77784">
        <ele>635.57</ele>
        <time>2018-04-02T09:00:43Z</time>
      </trkpt>
      <trkpt lat="48.2081" lon="6.77773">
        <ele>637.49</ele>
        <time>2018-04-02T09:01:02Z</time>
      </trkpt>
      <trkpt lat="48.20823" lon="6.77779">
        <ele>637.01</ele>
        <time>2018-04-02T09:01:12Z</time>
      </trkpt>
      <trkpt lat="48.20833" lon="6.77788">
        <ele>637.01</ele>
        <time>2018-04-02T09:01:16Z</time>
      </trkpt>
      <trkpt lat="48.20839" lon="6.778">
        <ele>636.05</ele>
        <time>2018-04-02T09:01:21Z</time>
      </trkpt>
      <trkpt lat="48.2085" lon="6.77812">
        <ele>636.05</ele>
        <time>2018-04-02T09:01:28Z</time>
      </trkpt>
      <trkpt lat="48.20847" lon="6.77804">
        <ele>636.53</ele>
        <time>2018-04-02T09:01:41Z</time>
      </trkpt>
      <trkpt lat="48.20852" lon="6.77801">
        <ele>636.53</ele>
        <time>2018-04-02T09:01:54Z</time>
      </trkpt>
      <trkpt lat="48.20862" lon="6.77793">
        <ele>637.97</ele>
        <time>2018-04-02T09:02:01Z</time>
      </trkpt>
      <trkpt lat="48.2087" lon="6.77775">
        <ele>641.34</ele>
        <time>2018-04-02T09:02:12Z</time>
      </trkpt>
      <trkpt lat="48.20872" lon="6.77755">
        <ele>643.74</ele>
        <time>2018-04-02T09:02:26Z</time>
      </trkpt>
      <trkpt lat="48.20871" lon="6.77732">
        <ele>646.14</ele>
        <time>2018-04-02T09:02:39Z</time>
      </trkpt>
      <trkpt lat="48.20876" lon="6.77721">
        <ele>648.55</ele>
        <time>2018-04-02T09:02:47Z</time>
      </trkpt>
      <trkpt lat="48.20883" lon="6.77707">
        <ele>650.95</ele>
        <time>2018-04-02T09:02:57Z</time>
      </trkpt>
      <trkpt lat="48.20894" lon="6.77697">
        <ele>652.87</ele>
        <time>2018-04-02T09:03:07Z</time>
      </trkpt>
      <trkpt lat="48.20904" lon="6.7769">
        <ele>655.76</ele>
        <time>2018-04-02T09:03:18Z</time>
      </trkpt>
      <trkpt lat="48.20919" lon="6.77682">
        <ele>658.16</ele>
        <time>2018-04-02T09:03:28Z</time>
      </trkpt>
      <trkpt lat="48.20931" lon="6.77674">
        <ele>660.56</ele>
        <time>2018-04-02T09:03:40Z</time>
      </trkpt>
      <trkpt lat="48.20943" lon="6.77658">
        <ele>662.97</ele>
        <time>2018-04-02T09:03:50Z</time>
      </trkpt>
      <trkpt lat="48.20952" lon="6.77643">
        <ele>662.97</ele>
        <time>2018-04-02T09:03:58Z</time>
      </trkpt>
      <trkpt lat="48.20961" lon="6.77635">
        <ele>662.97</ele>
        <time>2018-04-02T09:04:03Z</time>
      </trkpt>
      <trkpt lat="48.20972" lon="6.7763">
        <ele>662.01</ele>
        <time>2018-04-02T09:04:07Z</time>
      </trkpt>
      <trkpt lat="48.20982" lon="6.77623">
        <ele>660.56</ele>
        <time>2018-04-02T09:04:11Z</time>
      </trkpt>
      <trkpt lat="48.20992" lon="6.77617">
        <ele>659.6</ele>
        <time>2018-04-02T09:04:15Z</time>
      </trkpt>
      <trkpt lat="48.21002" lon="6.7762">
        <ele>659.6</ele>
        <time>2018-04-02T09:04:19Z</time>
      </trkpt>
      <trkpt lat="48.21015" lon="6.77628">
        <ele>658.64</ele>
        <time>2018-04-02T09:04:23Z</time>
      </trkpt>
      <trkpt lat="48.21026" lon="6.77634">
        <ele>658.16</ele>
        <time>2018-04-02T09:04:26Z</time>
      </trkpt>
      <trkpt lat="48.21036" lon="6.77647">
        <ele>658.64</ele>
        <time>2018-04-02T09:04:30Z</time>
      </trkpt>
      <trkpt lat="48.21043" lon="6.77662">
        <ele>657.68</ele>
        <time>2018-04-02T09:04:34Z</time>
      </trkpt>
      <trkpt lat="48.21046" lon="6.77675">
        <ele>657.68</ele>
        <time>2018-04-02T09:04:37Z</time>
      </trkpt>
      <trkpt lat="48.21052" lon="6.7769">
        <ele>658.16</ele>
        <time>2018-04-02T09:04:39Z</time>
      </trkpt>
      <trkpt lat="48.21058" lon="6.77703">
        <ele>657.68</ele>
        <time>2018-04-02T09:04:41Z</time>
      </trkpt>
      <trkpt lat="48.21081" lon="6.77731">
        <ele>658.16</ele>
        <time>2018-04-02T09:04:44Z</time>
      </trkpt>
      <trkpt lat="48.21091" lon="6.77747">
        <ele>657.68</ele>
        <time>2018-04-02T09:04:47Z</time>
      </trkpt>
      <trkpt lat="48.211" lon="6.77762">
        <ele>657.2</ele>
        <time>2018-04-02T09:04:50Z</time>
      </trkpt>
      <trkpt lat="48.21108" lon="6.77782">
        <ele>657.68</ele>
        <time>2018-04-02T09:04:53Z</time>
      </trkpt>
      <trkpt lat="48.21118" lon="6.77802">
        <ele>657.68</ele>
        <time>2018-04-02T09:04:56Z</time>
      </trkpt>
      <trkpt lat="48.21127" lon="6.77822">
        <ele>657.2</ele>
        <time>2018-04-02T09:04:59Z</time>
      </trkpt>
      <trkpt lat="48.21133" lon="6.77841">
        <ele>658.16</ele>
        <time>2018-04-02T09:05:03Z</time>
      </trkpt>
      <trkpt lat="48.21135" lon="6.77854">
        <ele>659.6</ele>
        <time>2018-04-02T09:05:11Z</time>
      </trkpt>
      <trkpt lat="48.21144" lon="6.77873">
        <ele>660.56</ele>
        <time>2018-04-02T09:05:18Z</time>
      </trkpt>
      <trkpt lat="48.21157" lon="6.77893">
        <ele>661.52</ele>
        <time>2018-04-02T09:05:24Z</time>
      </trkpt>
      <trkpt lat="48.2117" lon="6.77915">
        <ele>662.01</ele>
        <time>2018-04-02T09:05:30Z</time>
      </trkpt>
      <trkpt lat="48.21187" lon="6.77932">
        <ele>662.49</ele>
        <time>2018-04-02T09:05:39Z</time>
      </trkpt>
      <trkpt lat="48.212" lon="6.77949">
        <ele>662.49</ele>
        <time>2018-04-02T09:05:45Z</time>
      </trkpt>
      <trkpt lat="48.2121" lon="6.77961">
        <ele>661.52</ele>
        <time>2018-04-02T09:05:49Z</time>
      </trkpt>
      <trkpt lat="48.21218" lon="6.77974">
        <ele>662.49</ele>
        <time>2018-04-02T09:05:54Z</time>
      </trkpt>
      <trkpt lat="48.21228" lon="6.77979">
        <ele>662.01</ele>
        <time>2018-04-02T09:05:58Z</time>
      </trkpt>
      <trkpt lat="48.21243" lon="6.77983">
        <ele>661.04</ele>
        <time>2018-04-02T09:06:01Z</time>
      </trkpt>
      <trkpt lat="48.21255" lon="6.7799">
        <ele>660.56</ele>
        <time>2018-04-02T09:06:04Z</time>
      </trkpt>
      <trkpt lat="48.2126" lon="6.78004">
        <ele>660.56</ele>
        <time>2018-04-02T09:06:07Z</time>
      </trkpt>
      <trkpt lat="48.21271" lon="6.78024">
        <ele>659.6</ele>
        <time>2018-04-02T09:06:10Z</time>
      </trkpt>
      <trkpt lat="48.2128" lon="6.78035">
        <ele>658.16</ele>
        <time>2018-04-02T09:06:12Z</time>
      </trkpt>
      <trkpt lat="48.2129" lon="6.78048">
        <ele>658.16</ele>
        <time>2018-04-02T09:06:14Z</time>
      </trkpt>
      <trkpt lat="48.21297" lon="6.78067">
        <ele>657.68</ele>
        <time>2018-04-02T09:06:17Z</time>
      </trkpt>
      <trkpt lat="48.21306" lon="6.78087">
        <ele>657.2</ele>
        <time>2018-04-02T09:06:20Z</time>
      </trkpt>
      <trkpt lat="48.21314" lon="6.781">
        <ele>657.2</ele>
        <time>2018-04-02T09:06:22Z</time>
      </trkpt>
      <trkpt lat="48.21324" lon="6.78117">
        <ele>656.72</ele>
        <time>2018-04-02T09:06:25Z</time>
      </trkpt>
      <trkpt lat="48.21335" lon="6.78133">
        <ele>656.72</ele>
        <time>2018-04-02T09:06:28Z</time>
      </trkpt>
      <trkpt lat="48.21351" lon="6.7815">
        <ele>656.72</ele>
        <time>2018-04-02T09:06:32Z</time>
      </trkpt>
      <trkpt lat="48.21351" lon="6.78165">
        <ele>657.2</ele>
        <time>2018-04-02T09:06:36Z</time>
      </trkpt>
      <trkpt lat="48.21343" lon="6.78175">
        <ele>657.2</ele>
        <time>2018-04-02T09:06:39Z</time>
      </trkpt>
      <trkpt lat="48.21352" lon="6.78196">
        <ele>656.72</ele>
        <time>2018-04-02T09:06:44Z</time>
      </trkpt>
      <trkpt lat="48.2136" lon="6.78209">
        <ele>656.72</ele>
        <time>2018-04-02T09:06:49Z</time>
      </trkpt>
      <trkpt lat="48.21367" lon="6.78225">
        <ele>656.72</ele>
        <time>2018-04-02T09:06:54Z</time>
      </trkpt>
      <trkpt lat="48.21377" lon="6.78252">
        <ele>657.68</ele>
        <time>2018-04-02T09:06:59Z</time>
      </trkpt>
      <trkpt lat="48.21383" lon="6.7827">
        <ele>657.68</ele>
        <time>2018-04-02T09:07:03Z</time>
      </trkpt>
      <trkpt lat="48.21393" lon="6.78287">
        <ele>657.68</ele>
        <time>2018-04-02T09:07:07Z</time>
      </trkpt>
      <trkpt lat="48.21401" lon="6.78301">
        <ele>657.2</ele>
        <time>2018-04-02T09:07:10Z</time>
      </trkpt>
      <trkpt lat="48.21407" lon="6.78314">
        <ele>656.72</ele>
        <time>2018-04-02T09:07:13Z</time>
      </trkpt>
      <trkpt lat="48.21411" lon="6.78334">
        <ele>656.72</ele>
        <time>2018-04-02T09:07:18Z</time>
      </trkpt>
      <trkpt lat="48.21416" lon="6.78356">
        <ele>655.76</ele>
        <time>2018-04-02T09:07:24Z</time>
      </trkpt>
      <trkpt lat="48.21418" lon="6.78374">
        <ele>655.76</ele>
        <time>2018-04-02T09:07:33Z</time>
      </trkpt>
      <trkpt lat="48.21417" lon="6.78391">
        <ele>655.28</ele>
        <time>2018-04-02T09:07:45Z</time>
      </trkpt>
      <trkpt lat="48.21423" lon="6.78403">
        <ele>655.76</ele>
        <time>2018-04-02T09:07:51Z</time>
      </trkpt>
      <trkpt lat="48.21429" lon="6.78416">
        <ele>654.31</ele>
        <time>2018-04-02T09:07:55Z</time>
      </trkpt>
      <trkpt lat="48.21435" lon="6.78429">
        <ele>655.28</ele>
        <time>2018-04-02T09:07:58Z</time>
      </trkpt>
      <trkpt lat="48.21441" lon="6.78444">
        <ele>654.31</ele>
        <time>2018-04-02T09:08:01Z</time>
      </trkpt>
      <trkpt lat="48.21447" lon="6.78456">
        <ele>654.8</ele>
        <time>2018-04-02T09:08:04Z</time>
      </trkpt>
      <trkpt lat="48.21453" lon="6.7847">
        <ele>653.35</ele>
        <time>2018-04-02T09:08:07Z</time>
      </trkpt>
      <trkpt lat="48.21461" lon="6.78484">
        <ele>652.87</ele>
        <time>2018-04-02T09:08:10Z</time>
      </trkpt>
      <trkpt lat="48.21469" lon="6.78502">
        <ele>651.91</ele>
        <time>2018-04-02T09:08:13Z</time>
      </trkpt>
      <trkpt lat="48.21478" lon="6.78515">
        <ele>650.95</ele>
        <time>2018-04-02T09:08:15Z</time>
      </trkpt>
      <trkpt lat="48.21485" lon="6.78529">
        <ele>650.95</ele>
        <time>2018-04-02T09:08:17Z</time>
      </trkpt>
      <trkpt lat="48.21493" lon="6.78539">
        <ele>649.99</ele>
        <time>2018-04-02T09:08:19Z</time>
      </trkpt>
      <trkpt lat="48.21502" lon="6.78548">
        <ele>649.51</ele>
        <time>2018-04-02T09:08:21Z</time>
      </trkpt>
      <trkpt lat="48.2151" lon="6.78558">
        <ele>647.59</ele>
        <time>2018-04-02T09:08:24Z</time>
      </trkpt>
      <trkpt lat="48.2152" lon="6.78572">
        <ele>646.14</ele>
        <time>2018-04-02T09:08:29Z</time>
      </trkpt>
      <trkpt lat="48.21531" lon="6.78583">
        <ele>646.14</ele>
        <time>2018-04-02T09:08:35Z</time>
      </trkpt>
      <trkpt lat="48.21538" lon="6.78596">
        <ele>644.7</ele>
        <time>2018-04-02T09:08:39Z</time>
      </trkpt>
      <trkpt lat="48.21548" lon="6.78606">
        <ele>643.26</ele>
        <time>2018-04-02T09:08:42Z</time>
      </trkpt>
      <trkpt lat="48.21556" lon="6.78614">
        <ele>641.82</ele>
        <time>2018-04-02T09:08:44Z</time>
      </trkpt>
      <trkpt lat="48.21564" lon="6.78623">
        <ele>640.86</ele>
        <time>2018-04-02T09:08:46Z</time>
      </trkpt>
      <trkpt lat="48.21575" lon="6.78633">
        <ele>639.89</ele>
        <time>2018-04-02T09:08:49Z</time>
      </trkpt>
      <trkpt lat="48.21583" lon="6.78644">
        <ele>639.89</ele>
        <time>2018-04-02T09:08:52Z</time>
      </trkpt>
      <trkpt lat="48.2159" lon="6.78655">
        <ele>638.93</ele>
        <time>2018-04-02T09:08:56Z</time>
      </trkpt>
      <trkpt lat="48.21598" lon="6.78665">
        <ele>637.97</ele>
        <time>2018-04-02T09:08:59Z</time>
      </trkpt>
      <trkpt lat="48.21606" lon="6.78678">
        <ele>637.49</ele>
        <time>2018-04-02T09:09:04Z</time>
      </trkpt>
      <trkpt lat="48.21609" lon="6.78694">
        <ele>636.53</ele>
        <time>2018-04-02T09:09:10Z</time>
      </trkpt>
      <trkpt lat="48.21618" lon="6.78711">
        <ele>637.01</ele>
        <time>2018-04-02T09:09:20Z</time>
      </trkpt>
      <trkpt lat="48.21625" lon="6.78721">
        <ele>636.53</ele>
        <time>2018-04-02T09:09:32Z</time>
      </trkpt>
      <trkpt lat="48.2163" lon="6.78734">
        <ele>636.05</ele>
        <time>2018-04-02T09:09:40Z</time>
      </trkpt>
      <trkpt lat="48.21634" lon="6.7875">
        <ele>635.57</ele>
        <time>2018-04-02T09:09:45Z</time>
      </trkpt>
      <trkpt lat="48.21642" lon="6.78764">
        <ele>634.61</ele>
        <time>2018-04-02T09:09:48Z</time>
      </trkpt>
      <trkpt lat="48.21649" lon="6.78779">
        <ele>634.13</ele>
        <time>2018-04-02T09:09:51Z</time>
      </trkpt>
      <trkpt lat="48.21655" lon="6.78795">
        <ele>634.13</ele>
        <time>2018-04-02T09:09:54Z</time>
      </trkpt>
      <trkpt lat="48.21661" lon="6.7881">
        <ele>634.13</ele>
        <time>2018-04-02T09:09:57Z</time>
      </trkpt>
      <trkpt lat="48.21671" lon="6.78826">
        <ele>633.65</ele>
        <time>2018-04-02T09:10:00Z</time>
      </trkpt>
      <trkpt lat="48.2168" lon="6.78839">
        <ele>633.65</ele>
        <time>2018-04-02T09:10:03Z</time>
      </trkpt>
      <trkpt lat="48.21686" lon="6.78851">
        <ele>633.65</ele>
        <time>2018-04-02T09:10:06Z</time>
      </trkpt>
      <trkpt lat="48.21693" lon="6.78859">
        <ele>633.17</ele>
        <time>2018-04-02T09:10:08Z</time>
      </trkpt>
      <trkpt lat="48.21701" lon="6.78869">
        <ele>633.17</ele>
        <time>2018-04-02T09:10:10Z</time>
      </trkpt>
      <trkpt lat="48.21712" lon="6.78881">
        <ele>633.17</ele>
        <time>2018-04-02T09:10:13Z</time>
      </trkpt>
      <trkpt lat="48.2172" lon="6.78893">
        <ele>633.17</ele>
        <time>2018-04-02T09:10:16Z</time>
      </trkpt>
      <trkpt lat="48.21728" lon="6.78909">
        <ele>632.2</ele>
        <time>2018-04-02T09:10:20Z</time>
      </trkpt>
      <trkpt lat="48.21738" lon="6.78926">
        <ele>632.2</ele>
        <time>2018-04-02T09:10:23Z</time>
      </trkpt>
      <trkpt lat="48.21747" lon="6.78941">
        <ele>631.72</ele>
        <time>2018-04-02T09:10:25Z</time>
      </trkpt>
      <trkpt lat="48.21756" lon="6.78958">
        <ele>631.24</ele>
        <time>2018-04-02T09:10:27Z</time>
      </trkpt>
      <trkpt lat="48.21765" lon="6.78977">
        <ele>630.76</ele>
        <time>2018-04-02T09:10:29Z</time>
      </trkpt>
      <trkpt lat="48.21775" lon="6.78997">
        <ele>630.28</ele>
        <time>2018-04-02T09:10:31Z</time>
      </trkpt>
      <trkpt lat="48.21787" lon="6.79014">
        <ele>629.32</ele>
        <time>2018-04-02T09:10:33Z</time>
      </trkpt>
      <trkpt lat="48.21798" lon="6.79032">
        <ele>629.32</ele>
        <time>2018-04-02T09:10:35Z</time>
      </trkpt>
      <trkpt lat="48.21807" lon="6.7905">
        <ele>629.32</ele>
        <time>2018-04-02T09:10:37Z</time>
      </trkpt>
      <trkpt lat="48.21817" lon="6.79065">
        <ele>629.32</ele>
        <time>2018-04-02T09:10:39Z</time>
      </trkpt>
      <trkpt lat="48.21827" lon="6.79076">
        <ele>629.8</ele>
        <time>2018-04-02T09:10:41Z</time>
      </trkpt>
      <trkpt lat="48.21839" lon="6.79085">
        <ele>630.28</ele>
        <time>2018-04-02T09:10:43Z</time>
      </trkpt>
      <trkpt lat="48.21855" lon="6.79091">
        <ele>629.8</ele>
        <time>2018-04-02T09:10:46Z</time>
      </trkpt>
      <trkpt lat="48.21867" lon="6.79093">
        <ele>629.32</ele>
        <time>2018-04-02T09:10:48Z</time>
      </trkpt>
      <trkpt lat="48.21879" lon="6.79094">
        <ele>628.36</ele>
        <time>2018-04-02T09:10:50Z</time>
      </trkpt>
      <trkpt lat="48.21892" lon="6.79093">
        <ele>627.88</ele>
        <time>2018-04-02T09:10:52Z</time>
      </trkpt>
      <trkpt lat="48.21906" lon="6.79092">
        <ele>627.4</ele>
        <time>2018-04-02T09:10:54Z</time>
      </trkpt>
      <trkpt lat="48.2192" lon="6.79091">
        <ele>626.92</ele>
        <time>2018-04-02T09:10:56Z</time>
      </trkpt>
      <trkpt lat="48.21935" lon="6.79095">
        <ele>625.47</ele>
        <time>2018-04-02T09:10:58Z</time>
      </trkpt>
      <trkpt lat="48.21944" lon="6.79098">
        <ele>624.03</ele>
        <time>2018-04-02T09:11:00Z</time>
      </trkpt>
      <trkpt lat="48.21958" lon="6.79105">
        <ele>623.55</ele>
        <time>2018-04-02T09:11:52Z</time>
      </trkpt>
      <trkpt lat="48.21965" lon="6.79109">
        <ele>624.51</ele>
        <time>2018-04-02T09:19:02Z</time>
      </trkpt>
      <trkpt lat="48.21976" lon="6.79115">
        <ele>624.03</ele>
        <time>2018-04-02T09:19:12Z</time>
      </trkpt>
      <trkpt lat="48.21987" lon="6.79125">
        <ele>624.03</ele>
        <time>2018-04-02T09:19:16Z</time>
      </trkpt>
      <trkpt lat="48.21997" lon="6.79132">
        <ele>624.51</ele>
        <time>2018-04-02T09:19:19Z</time>
      </trkpt>
      <trkpt lat="48.22006" lon="6.79141">
        <ele>626.44</ele>
        <time>2018-04-02T09:19:25Z</time>
      </trkpt>
      <trkpt lat="48.22026" lon="6.79149">
        <ele>628.36</ele>
        <time>2018-04-02T09:19:32Z</time>
      </trkpt>
      <trkpt lat="48.22042" lon="6.7915">
        <ele>629.8</ele>
        <time>2018-04-02T09:19:37Z</time>
      </trkpt>
      <trkpt lat="48.22051" lon="6.79152">
        <ele>630.76</ele>
        <time>2018-04-02T09:19:43Z</time>
      </trkpt>
      <trkpt lat="48.22065" lon="6.79156">
        <ele>632.2</ele>
        <time>2018-04-02T09:19:49Z</time>
      </trkpt>
      <trkpt lat="48.22074" lon="6.79161">
        <ele>633.65</ele>
        <time>2018-04-02T09:19:54Z</time>
      </trkpt>
      <trkpt lat="48.22085" lon="6.7917">
        <ele>634.13</ele>
        <time>2018-04-02T09:20:04Z</time>
      </trkpt>
      <trkpt lat="48.22102" lon="6.79182">
        <ele>634.13</ele>
        <time>2018-04-02T09:20:12Z</time>
      </trkpt>
      <trkpt lat="48.22116" lon="6.79191">
        <ele>634.13</ele>
        <time>2018-04-02T09:20:18Z</time>
      </trkpt>
      <trkpt lat="48.22128" lon="6.79202">
        <ele>634.13</ele>
        <time>2018-04-02T09:20:23Z</time>
      </trkpt>
      <trkpt lat="48.2214" lon="6.79211">
        <ele>633.65</ele>
        <time>2018-04-02T09:20:27Z</time>
      </trkpt>
      <trkpt lat="48.2215" lon="6.79219">
        <ele>633.65</ele>
        <time>2018-04-02T09:20:31Z</time>
      </trkpt>
      <trkpt lat="48.22162" lon="6.79224">
        <ele>633.17</ele>
        <time>2018-04-02T09:20:37Z</time>
      </trkpt>
      <trkpt lat="48.22176" lon="6.7923">
        <ele>632.2</ele>
        <time>2018-04-02T09:20:41Z</time>
      </trkpt>
      <trkpt lat="48.2219" lon="6.79231">
        <ele>632.2</ele>
        <time>2018-04-02T09:20:44Z</time>
      </trkpt>
      <trkpt lat="48.22203" lon="6.79235">
        <ele>631.72</ele>
        <time>2018-04-02T09:20:48Z</time>
      </trkpt>
      <trkpt lat="48.22214" lon="6.79241">
        <ele>631.24</ele>
        <time>2018-04-02T09:20:52Z</time>
      </trkpt>
      <trkpt lat="48.22224" lon="6.79247">
        <ele>631.24</ele>
        <time>2018-04-02T09:20:56Z</time>
      </trkpt>
      <trkpt lat="48.22237" lon="6.79253">
        <ele>631.24</ele>
        <time>2018-04-02T09:20:59Z</time>
      </trkpt>
      <trkpt lat="48.22248" lon="6.7926">
        <ele>631.72</ele>
        <time>2018-04-02T09:21:03Z</time>
      </trkpt>
      <trkpt lat="48.22256" lon="6.7927">
        <ele>631.72</ele>
        <time>2018-04-02T09:21:09Z</time>
      </trkpt>
      <trkpt lat="48.22264" lon="6.79283">
        <ele>631.72</ele>
        <time>2018-04-02T09:21:14Z</time>
      </trkpt>
      <trkpt lat="48.22271" lon="6.79295">
        <ele>631.24</ele>
        <time>2018-04-02T09:21:18Z</time>
      </trkpt>
      <trkpt lat="48.22281" lon="6.79313">
        <ele>631.24</ele>
        <time>2018-04-02T09:21:22Z</time>
      </trkpt>
      <trkpt lat="48.22287" lon="6.7933">
        <ele>631.24</ele>
        <time>2018-04-02T09:21:26Z</time>
      </trkpt>
      <trkpt lat="48.22295" lon="6.79343">
        <ele>630.28</ele>
        <time>2018-04-02T09:21:29Z</time>
      </trkpt>
      <trkpt lat="48.22306" lon="6.79354">
        <ele>630.76</ele>
        <time>2018-04-02T09:21:32Z</time>
      </trkpt>
      <trkpt lat="48.22319" lon="6.79349">
        <ele>630.28</ele>
        <time>2018-04-02T09:21:37Z</time>
      </trkpt>
      <trkpt lat="48.2233" lon="6.79337">
        <ele>629.8</ele>
        <time>2018-04-02T09:21:41Z</time>
      </trkpt>
      <trkpt lat="48.2234" lon="6.79326">
        <ele>629.32</ele>
        <time>2018-04-02T09:21:45Z</time>
      </trkpt>
      <trkpt lat="48.22351" lon="6.79315">
        <ele>628.36</ele>
        <time>2018-04-02T09:21:48Z</time>
      </trkpt>
      <trkpt lat="48.22368" lon="6.79304">
        <ele>628.36</ele>
        <time>2018-04-02T09:21:51Z</time>
      </trkpt>
      <trkpt lat="48.22385" lon="6.79288">
        <ele>626.92</ele>
        <time>2018-04-02T09:21:54Z</time>
      </trkpt>
      <trkpt lat="48.22391" lon="6.79276">
        <ele>626.92</ele>
        <time>2018-04-02T09:21:56Z</time>
      </trkpt>
      <trkpt lat="48.22401" lon="6.79262">
        <ele>626.92</ele>
        <time>2018-04-02T09:21:59Z</time>
      </trkpt>
      <trkpt lat="48.2241" lon="6.79249">
        <ele>625.96</ele>
        <time>2018-04-02T09:22:03Z</time>
      </trkpt>
      <trkpt lat="48.22424" lon="6.79226">
        <ele>625.47</ele>
        <time>2018-04-02T09:22:17Z</time>
      </trkpt>
      <trkpt lat="48.22432" lon="6.79204">
        <ele>624.99</ele>
        <time>2018-04-02T09:22:28Z</time>
      </trkpt>
      <trkpt lat="48.22442" lon="6.79197">
        <ele>624.99</ele>
        <time>2018-04-02T09:22:35Z</time>
      </trkpt>
      <trkpt lat="48.22448" lon="6.79184">
        <ele>624.03</ele>
        <time>2018-04-02T09:22:39Z</time>
      </trkpt>
      <trkpt lat="48.22454" lon="6.79172">
        <ele>623.55</ele>
        <time>2018-04-02T09:22:42Z</time>
      </trkpt>
      <trkpt lat="48.2246" lon="6.79154">
        <ele>621.63</ele>
        <time>2018-04-02T09:22:46Z</time>
      </trkpt>
      <trkpt lat="48.22465" lon="6.79136">
        <ele>620.67</ele>
        <time>2018-04-02T09:22:49Z</time>
      </trkpt>
      <trkpt lat="48.22468" lon="6.79122">
        <ele>619.23</ele>
        <time>2018-04-02T09:22:51Z</time>
      </trkpt>
      <trkpt lat="48.2247" lon="6.79108">
        <ele>618.75</ele>
        <time>2018-04-02T09:22:53Z</time>
      </trkpt>
      <trkpt lat="48.22474" lon="6.79094">
        <ele>618.75</ele>
        <time>2018-04-02T09:22:55Z</time>
      </trkpt>
      <trkpt lat="48.22479" lon="6.79074">
        <ele>617.78</ele>
        <time>2018-04-02T09:22:58Z</time>
      </trkpt>
      <trkpt lat="48.22485" lon="6.7906">
        <ele>617.3</ele>
        <time>2018-04-02T09:23:00Z</time>
      </trkpt>
      <trkpt lat="48.22491" lon="6.79045">
        <ele>615.86</ele>
        <time>2018-04-02T09:23:02Z</time>
      </trkpt>
      <trkpt lat="48.22499" lon="6.7903">
        <ele>615.86</ele>
        <time>2018-04-02T09:23:04Z</time>
      </trkpt>
      <trkpt lat="48.22504" lon="6.79012">
        <ele>615.38</ele>
        <time>2018-04-02T09:23:06Z</time>
      </trkpt>
      <trkpt lat="48.22507" lon="6.78994">
        <ele>614.42</ele>
        <time>2018-04-02T09:23:08Z</time>
      </trkpt>
      <trkpt lat="48.22513" lon="6.78975">
        <ele>612.5</ele>
        <time>2018-04-02T09:23:10Z</time>
      </trkpt>
      <trkpt lat="48.22518" lon="6.78957">
        <ele>611.54</ele>
        <time>2018-04-02T09:23:12Z</time>
      </trkpt>
      <trkpt lat="48.22521" lon="6.7894">
        <ele>611.54</ele>
        <time>2018-04-02T09:23:14Z</time>
      </trkpt>
      <trkpt lat="48.22524" lon="6.78926">
        <ele>611.06</ele>
        <time>2018-04-02T09:23:16Z</time>
      </trkpt>
      <trkpt lat="48.22528" lon="6.78913">
        <ele>610.57</ele>
        <time>2018-04-02T09:23:18Z</time>
      </trkpt>
      <trkpt lat="48.22533" lon="6.789">
        <ele>610.57</ele>
        <time>2018-04-02T09:23:20Z</time>
      </trkpt>
      <trkpt lat="48.22541" lon="6.78885">
        <ele>611.54</ele>
        <time>2018-04-02T09:23:23Z</time>
      </trkpt>
      <trkpt lat="48.22545" lon="6.78873">
        <ele>612.02</ele>
        <time>2018-04-02T09:23:26Z</time>
      </trkpt>
      <trkpt lat="48.2255" lon="6.78855">
        <ele>613.94</ele>
        <time>2018-04-02T09:23:30Z</time>
      </trkpt>
      <trkpt lat="48.22555" lon="6.78839">
        <ele>613.94</ele>
        <time>2018-04-02T09:23:34Z</time>
      </trkpt>
      <trkpt lat="48.2256" lon="6.78823">
        <ele>614.42</ele>
        <time>2018-04-02T09:23:38Z</time>
      </trkpt>
      <trkpt lat="48.22564" lon="6.78809">
        <ele>614.42</ele>
        <time>2018-04-02T09:23:41Z</time>
      </trkpt>
      <trkpt lat="48.22568" lon="6.78795">
        <ele>614.9</ele>
        <time>2018-04-02T09:23:45Z</time>
      </trkpt>
      <trkpt lat="48.22567" lon="6.78776">
        <ele>614.9</ele>
        <time>2018-04-02T09:23:50Z</time>
      </trkpt>
      <trkpt lat="48.22563" lon="6.78751">
        <ele>615.38</ele>
        <time>2018-04-02T09:24:03Z</time>
      </trkpt>
      <trkpt lat="48.22567" lon="6.78738">
        <ele>615.38</ele>
        <time>2018-04-02T09:24:13Z</time>
      </trkpt>
      <trkpt lat="48.22569" lon="6.78722">
        <ele>615.86</ele>
        <time>2018-04-02T09:24:20Z</time>
      </trkpt>
      <trkpt lat="48.22571" lon="6.78703">
        <ele>615.86</ele>
        <time>2018-04-02T09:24:25Z</time>
      </trkpt>
      <trkpt lat="48.22572" lon="6.78686">
        <ele>616.34</ele>
        <time>2018-04-02T09:24:29Z</time>
      </trkpt>
      <trkpt lat="48.22571" lon="6.7867">
        <ele>616.34</ele>
        <time>2018-04-02T09:24:33Z</time>
      </trkpt>
      <trkpt lat="48.22572" lon="6.7865">
        <ele>615.86</ele>
        <time>2018-04-02T09:24:38Z</time>
      </trkpt>
      <trkpt lat="48.22573" lon="6.78633">
        <ele>616.82</ele>
        <time>2018-04-02T09:24:42Z</time>
      </trkpt>
      <trkpt lat="48.22575" lon="6.78618">
        <ele>616.82</ele>
        <time>2018-04-02T09:24:46Z</time>
      </trkpt>
      <trkpt lat="48.22581" lon="6.78602">
        <ele>616.82</ele>
        <time>2018-04-02T09:24:51Z</time>
      </trkpt>
      <trkpt lat="48.22588" lon="6.78588">
        <ele>616.82</ele>
        <time>2018-04-02T09:24:55Z</time>
      </trkpt>
      <trkpt lat="48.22595" lon="6.78574">
        <ele>617.78</ele>
        <time>2018-04-02T09:24:59Z</time>
      </trkpt>
      <trkpt lat="48.22604" lon="6.78561">
        <ele>617.78</ele>
        <time>2018-04-02T09:25:03Z</time>
      </trkpt>
      <trkpt lat="48.22612" lon="6.78553">
        <ele>617.3</ele>
        <time>2018-04-02T09:25:06Z</time>
      </trkpt>
      <trkpt lat="48.22621" lon="6.78543">
        <ele>616.82</ele>
        <time>2018-04-02T09:25:10Z</time>
      </trkpt>
      <trkpt lat="48.2263" lon="6.78534">
        <ele>615.86</ele>
        <time>2018-04-02T09:25:13Z</time>
      </trkpt>
      <trkpt lat="48.22639" lon="6.78522">
        <ele>615.38</ele>
        <time>2018-04-02T09:25:16Z</time>
      </trkpt>
      <trkpt lat="48.2265" lon="6.78515">
        <ele>614.9</ele>
        <time>2018-04-02T09:25:19Z</time>
      </trkpt>
      <trkpt lat="48.22661" lon="6.7851">
        <ele>614.9</ele>
        <time>2018-04-02T09:25:22Z</time>
      </trkpt>
      <trkpt lat="48.22673" lon="6.78504">
        <ele>614.9</ele>
        <time>2018-04-02T09:25:25Z</time>
      </trkpt>
      <trkpt lat="48.22684" lon="6.78498">
        <ele>614.42</ele>
        <time>2018-04-02T09:25:27Z</time>
      </trkpt>
      <trkpt lat="48.22693" lon="6.78493">
        <ele>613.46</ele>
        <time>2018-04-02T09:25:29Z</time>
      </trkpt>
      <trkpt lat="48.22707" lon="6.78482">
        <ele>613.46</ele>
        <time>2018-04-02T09:25:32Z</time>
      </trkpt>
      <trkpt lat="48.2272" lon="6.78474">
        <ele>612.98</ele>
        <time>2018-04-02T09:25:35Z</time>
      </trkpt>
      <trkpt lat="48.22736" lon="6.78468">
        <ele>612.98</ele>
        <time>2018-04-02T09:25:38Z</time>
      </trkpt>
      <trkpt lat="48.2275" lon="6.78469">
        <ele>612.5</ele>
        <time>2018-04-02T09:25:41Z</time>
      </trkpt>
      <trkpt lat="48.2276" lon="6.78475">
        <ele>611.54</ele>
        <time>2018-04-02T09:25:44Z</time>
      </trkpt>
      <trkpt lat="48.22768" lon="6.78483">
        <ele>611.06</ele>
        <time>2018-04-02T09:25:47Z</time>
      </trkpt>
      <trkpt lat="48.22774" lon="6.78496">
        <ele>610.09</ele>
        <time>2018-04-02T09:25:50Z</time>
      </trkpt>
      <trkpt lat="48.22785" lon="6.78506">
        <ele>609.61</ele>
        <time>2018-04-02T09:25:52Z</time>
      </trkpt>
      <trkpt lat="48.22796" lon="6.78514">
        <ele>607.69</ele>
        <time>2018-04-02T09:25:54Z</time>
      </trkpt>
      <trkpt lat="48.22804" lon="6.78521">
        <ele>607.21</ele>
        <time>2018-04-02T09:25:56Z</time>
      </trkpt>
      <trkpt lat="48.22818" lon="6.78525">
        <ele>605.77</ele>
        <time>2018-04-02T09:26:00Z</time>
      </trkpt>
      <trkpt lat="48.22832" lon="6.78522">
        <ele>604.33</ele>
        <time>2018-04-02T09:26:03Z</time>
      </trkpt>
      <trkpt lat="48.22845" lon="6.78519">
        <ele>601.92</ele>
        <time>2018-04-02T09:26:06Z</time>
      </trkpt>
      <trkpt lat="48.22859" lon="6.78518">
        <ele>599.52</ele>
        <time>2018-04-02T09:26:09Z</time>
      </trkpt>
      <trkpt lat="48.22874" lon="6.78516">
        <ele>597.6</ele>
        <time>2018-04-02T09:26:13Z</time>
      </trkpt>
      <trkpt lat="48.22889" lon="6.78512">
        <ele>596.15</ele>
        <time>2018-04-02T09:26:16Z</time>
      </trkpt>
      <trkpt lat="48.22902" lon="6.78509">
        <ele>594.71</ele>
        <time>2018-04-02T09:26:18Z</time>
      </trkpt>
      <trkpt lat="48.22916" lon="6.78507">
        <ele>593.27</ele>
        <time>2018-04-02T09:26:20Z</time>
      </trkpt>
      <trkpt lat="48.22927" lon="6.78504">
        <ele>593.27</ele>
        <time>2018-04-02T09:26:22Z</time>
      </trkpt>
      <trkpt lat="48.22939" lon="6.78502">
        <ele>592.31</ele>
        <time>2018-04-02T09:26:25Z</time>
      </trkpt>
      <trkpt lat="48.22952" lon="6.78503">
        <ele>593.27</ele>
        <time>2018-04-02T09:26:29Z</time>
      </trkpt>
      <trkpt lat="48.22964" lon="6.78502">
        <ele>594.23</ele>
        <time>2018-04-02T09:26:33Z</time>
      </trkpt>
      <trkpt lat="48.22976" lon="6.78504">
        <ele>595.67</ele>
        <time>2018-04-02T09:26:37Z</time>
      </trkpt>
      <trkpt lat="48.22988" lon="6.78508">
        <ele>597.6</ele>
        <time>2018-04-02T09:26:44Z</time>
      </trkpt>
      <trkpt lat="48.22996" lon="6.78513">
        <ele>598.56</ele>
        <time>2018-04-02T09:27:05Z</time>
      </trkpt>
      <trkpt lat="48.23007" lon="6.78519">
        <ele>600.96</ele>
        <time>2018-04-02T09:27:17Z</time>
      </trkpt>
      <trkpt lat="48.23014" lon="6.78521">
        <ele>601.44</ele>
        <time>2018-04-02T09:27:40Z</time>
      </trkpt>
      <trkpt lat="48.23023" lon="6.78521">
        <ele>603.85</ele>
        <time>2018-04-02T09:28:12Z</time>
      </trkpt>
      <trkpt lat="48.23036" lon="6.78518">
        <ele>603.85</ele>
        <time>2018-04-02T09:28:21Z</time>
      </trkpt>
      <trkpt lat="48.23046" lon="6.78518">
        <ele>602.88</ele>
        <time>2018-04-02T09:28:27Z</time>
      </trkpt>
      <trkpt lat="48.23059" lon="6.78516">
        <ele>602.4</ele>
        <time>2018-04-02T09:28:33Z</time>
      </trkpt>
      <trkpt lat="48.23068" lon="6.78511">
        <ele>601.44</ele>
        <time>2018-04-02T09:28:36Z</time>
      </trkpt>
      <trkpt lat="48.23079" lon="6.78503">
        <ele>601.44</ele>
        <time>2018-04-02T09:28:39Z</time>
      </trkpt>
      <trkpt lat="48.23091" lon="6.78498">
        <ele>601.44</ele>
        <time>2018-04-02T09:28:42Z</time>
      </trkpt>
      <trkpt lat="48.23105" lon="6.78494">
        <ele>600.48</ele>
        <time>2018-04-02T09:28:45Z</time>
      </trkpt>
      <trkpt lat="48.2312" lon="6.78488">
        <ele>600.48</ele>
        <time>2018-04-02T09:28:48Z</time>
      </trkpt>
      <trkpt lat="48.23133" lon="6.78483">
        <ele>599.52</ele>
        <time>2018-04-02T09:28:51Z</time>
      </trkpt>
      <trkpt lat="48.23143" lon="6.78477">
        <ele>598.56</ele>
        <time>2018-04-02T09:28:54Z</time>
      </trkpt>
      <trkpt lat="48.23156" lon="6.78477">
        <ele>597.6</ele>
        <time>2018-04-02T09:28:57Z</time>
      </trkpt>
      <trkpt lat="48.23167" lon="6.78479">
        <ele>596.64</ele>
        <time>2018-04-02T09:28:59Z</time>
      </trkpt>
      <trkpt lat="48.23179" lon="6.78483">
        <ele>595.19</ele>
        <time>2018-04-02T09:29:01Z</time>
      </trkpt>
      <trkpt lat="48.23191" lon="6.78483">
        <ele>593.75</ele>
        <time>2018-04-02T09:29:04Z</time>
      </trkpt>
      <trkpt lat="48.2321" lon="6.78484">
        <ele>592.79</ele>
        <time>2018-04-02T09:29:18Z</time>
      </trkpt>
      <trkpt lat="48.23218" lon="6.78489">
        <ele>592.79</ele>
        <time>2018-04-02T09:29:50Z</time>
      </trkpt>
      <trkpt lat="48.23228" lon="6.78496">
        <ele>592.79</ele>
        <time>2018-04-02T09:30:07Z</time>
      </trkpt>
      <trkpt lat="48.23239" lon="6.78501">
        <ele>591.83</ele>
        <time>2018-04-02T09:30:21Z</time>
      </trkpt>
      <trkpt lat="48.23244" lon="6.78513">
        <ele>587.5</ele>
        <time>2018-04-02T09:30:38Z</time>
      </trkpt>
      <trkpt lat="48.23252" lon="6.78517">
        <ele>586.54</ele>
        <time>2018-04-02T09:30:50Z</time>
      </trkpt>
      <trkpt lat="48.23263" lon="6.78525">
        <ele>584.62</ele>
        <time>2018-04-02T09:30:56Z</time>
      </trkpt>
      <trkpt lat="48.23275" lon="6.78526">
        <ele>584.62</ele>
        <time>2018-04-02T09:31:03Z</time>
      </trkpt>
      <trkpt lat="48.23287" lon="6.78531">
        <ele>583.18</ele>
        <time>2018-04-02T09:31:07Z</time>
      </trkpt>
      <trkpt lat="48.23298" lon="6.78537">
        <ele>584.14</ele>
        <time>2018-04-02T09:31:11Z</time>
      </trkpt>
      <trkpt lat="48.23309" lon="6.7854">
        <ele>584.14</ele>
        <time>2018-04-02T09:31:15Z</time>
      </trkpt>
      <trkpt lat="48.2332" lon="6.78545">
        <ele>584.62</ele>
        <time>2018-04-02T09:31:19Z</time>
      </trkpt>
      <trkpt lat="48.23331" lon="6.7855">
        <ele>583.66</ele>
        <time>2018-04-02T09:31:23Z</time>
      </trkpt>
      <trkpt lat="48.23344" lon="6.78558">
        <ele>583.18</ele>
        <time>2018-04-02T09:31:27Z</time>
      </trkpt>
      <trkpt lat="48.23353" lon="6.78564">
        <ele>583.18</ele>
        <time>2018-04-02T09:31:30Z</time>
      </trkpt>
      <trkpt lat="48.23364" lon="6.78569">
        <ele>582.7</ele>
        <time>2018-04-02T09:31:35Z</time>
      </trkpt>
      <trkpt lat="48.23374" lon="6.78574">
        <ele>584.14</ele>
        <time>2018-04-02T09:31:40Z</time>
      </trkpt>
      <trkpt lat="48.23387" lon="6.78579">
        <ele>584.14</ele>
        <time>2018-04-02T09:31:46Z</time>
      </trkpt>
      <trkpt lat="48.23401" lon="6.78586">
        <ele>585.1</ele>
        <time>2018-04-02T09:31:53Z</time>
      </trkpt>
      <trkpt lat="48.23413" lon="6.78588">
        <ele>586.54</ele>
        <time>2018-04-02T09:32:01Z</time>
      </trkpt>
      <trkpt lat="48.23425" lon="6.786">
        <ele>587.02</ele>
        <time>2018-04-02T09:32:10Z</time>
      </trkpt>
      <trkpt lat="48.23435" lon="6.78611">
        <ele>590.39</ele>
        <time>2018-04-02T09:32:26Z</time>
      </trkpt>
      <trkpt lat="48.23446" lon="6.78611">
        <ele>590.87</ele>
        <time>2018-04-02T09:32:55Z</time>
      </trkpt>
      <trkpt lat="48.23453" lon="6.78602">
        <ele>590.39</ele>
        <time>2018-04-02T09:33:00Z</time>
      </trkpt>
      <trkpt lat="48.23463" lon="6.78594">
        <ele>589.91</ele>
        <time>2018-04-02T09:33:04Z</time>
      </trkpt>
      <trkpt lat="48.23473" lon="6.78589">
        <ele>589.43</ele>
        <time>2018-04-02T09:33:09Z</time>
      </trkpt>
      <trkpt lat="48.23484" lon="6.78586">
        <ele>589.43</ele>
        <time>2018-04-02T09:33:13Z</time>
      </trkpt>
      <trkpt lat="48.23495" lon="6.78582">
        <ele>588.46</ele>
        <time>2018-04-02T09:33:16Z</time>
      </trkpt>
      <trkpt lat="48.23506" lon="6.78575">
        <ele>588.46</ele>
        <time>2018-04-02T09:33:19Z</time>
      </trkpt>
      <trkpt lat="48.23515" lon="6.78566">
        <ele>587.5</ele>
        <time>2018-04-02T09:33:22Z</time>
      </trkpt>
      <trkpt lat="48.23523" lon="6.78555">
        <ele>587.5</ele>
        <time>2018-04-02T09:33:25Z</time>
      </trkpt>
      <trkpt lat="48.23532" lon="6.78542">
        <ele>588.46</ele>
        <time>2018-04-02T09:33:28Z</time>
      </trkpt>
      <trkpt lat="48.23539" lon="6.78532">
        <ele>587.5</ele>
        <time>2018-04-02T09:33:31Z</time>
      </trkpt>
      <trkpt lat="48.23548" lon="6.78524">
        <ele>587.98</ele>
        <time>2018-04-02T09:33:34Z</time>
      </trkpt>
      <trkpt lat="48.23559" lon="6.78517">
        <ele>587.98</ele>
        <time>2018-04-02T09:33:37Z</time>
      </trkpt>
      <trkpt lat="48.23569" lon="6.78509">
        <ele>588.46</ele>
        <time>2018-04-02T09:33:41Z</time>
      </trkpt>
      <trkpt lat="48.2358" lon="6.78506">
        <ele>587.98</ele>
        <time>2018-04-02T09:33:46Z</time>
      </trkpt>
      <trkpt lat="48.2359" lon="6.78503">
        <ele>588.46</ele>
        <time>2018-04-02T09:33:49Z</time>
      </trkpt>
      <trkpt lat="48.23601" lon="6.785">
        <ele>587.5</ele>
        <time>2018-04-02T09:33:52Z</time>
      </trkpt>
      <trkpt lat="48.23613" lon="6.78493">
        <ele>587.02</ele>
        <time>2018-04-02T09:33:55Z</time>
      </trkpt>
      <trkpt lat="48.23627" lon="6.78486">
        <ele>587.02</ele>
        <time>2018-04-02T09:33:58Z</time>
      </trkpt>
      <trkpt lat="48.23639" lon="6.78479">
        <ele>586.54</ele>
        <time>2018-04-02T09:34:01Z</time>
      </trkpt>
      <trkpt lat="48.23651" lon="6.78472">
        <ele>586.54</ele>
        <time>2018-04-02T09:34:04Z</time>
      </trkpt>
      <trkpt lat="48.23663" lon="6.78464">
        <ele>585.1</ele>
        <time>2018-04-02T09:34:06Z</time>
      </trkpt>
      <trkpt lat="48.23675" lon="6.78454">
        <ele>584.62</ele>
        <time>2018-04-02T09:34:08Z</time>
      </trkpt>
      <trkpt lat="48.23686" lon="6.78445">
        <ele>583.66</ele>
        <time>2018-04-02T09:34:10Z</time>
      </trkpt>
      <trkpt lat="48.23694" lon="6.78436">
        <ele>584.14</ele>
        <time>2018-04-02T09:34:12Z</time>
      </trkpt>
      <trkpt lat="48.23706" lon="6.78428">
        <ele>585.1</ele>
        <time>2018-04-02T09:34:14Z</time>
      </trkpt>
      <trkpt lat="48.23717" lon="6.78418">
        <ele>586.06</ele>
        <time>2018-04-02T09:34:17Z</time>
      </trkpt>
      <trkpt lat="48.23728" lon="6.78405">
        <ele>586.54</ele>
        <time>2018-04-02T09:34:21Z</time>
      </trkpt>
      <trkpt lat="48.23738" lon="6.78388">
        <ele>587.02</ele>
        <time>2018-04-02T09:34:26Z</time>
      </trkpt>
      <trkpt lat="48.23744" lon="6.78372">
        <ele>587.02</ele>
        <time>2018-04-02T09:34:40Z</time>
      </trkpt>
      <trkpt lat="48.23749" lon="6.78356">
        <ele>587.02</ele>
        <time>2018-04-02T09:34:46Z</time>
      </trkpt>
      <trkpt lat="48.23751" lon="6.78338">
        <ele>586.54</ele>
        <time>2018-04-02T09:34:56Z</time>
      </trkpt>
      <trkpt lat="48.23752" lon="6.78324">
        <ele>586.54</ele>
        <time>2018-04-02T09:35:02Z</time>
      </trkpt>
      <trkpt lat="48.23754" lon="6.78305">
        <ele>584.62</ele>
        <time>2018-04-02T09:35:10Z</time>
      </trkpt>
      <trkpt lat="48.23754" lon="6.78285">
        <ele>584.14</ele>
        <time>2018-04-02T09:35:15Z</time>
      </trkpt>
      <trkpt lat="48.23754" lon="6.78268">
        <ele>583.66</ele>
        <time>2018-04-02T09:35:19Z</time>
      </trkpt>
      <trkpt lat="48.23756" lon="6.78251">
        <ele>583.18</ele>
        <time>2018-04-02T09:35:22Z</time>
      </trkpt>
      <trkpt lat="48.23756" lon="6.78236">
        <ele>581.73</ele>
        <time>2018-04-02T09:35:25Z</time>
      </trkpt>
      <trkpt lat="48.2376" lon="6.7822">
        <ele>581.25</ele>
        <time>2018-04-02T09:35:28Z</time>
      </trkpt>
      <trkpt lat="48.23765" lon="6.78201">
        <ele>581.25</ele>
        <time>2018-04-02T09:35:31Z</time>
      </trkpt>
      <trkpt lat="48.23768" lon="6.7818">
        <ele>579.81</ele>
        <time>2018-04-02T09:35:34Z</time>
      </trkpt>
      <trkpt lat="48.23772" lon="6.78166">
        <ele>579.33</ele>
        <time>2018-04-02T09:35:36Z</time>
      </trkpt>
      <trkpt lat="48.23777" lon="6.78151">
        <ele>578.85</ele>
        <time>2018-04-02T09:35:38Z</time>
      </trkpt>
      <trkpt lat="48.23782" lon="6.78135">
        <ele>577.89</ele>
        <time>2018-04-02T09:35:40Z</time>
      </trkpt>
      <trkpt lat="48.23786" lon="6.78121">
        <ele>577.89</ele>
        <time>2018-04-02T09:35:42Z</time>
      </trkpt>
      <trkpt lat="48.23791" lon="6.78108">
        <ele>576.93</ele>
        <time>2018-04-02T09:35:44Z</time>
      </trkpt>
      <trkpt lat="48.23796" lon="6.78093">
        <ele>575.97</ele>
        <time>2018-04-02T09:35:46Z</time>
      </trkpt>
      <trkpt lat="48.23802" lon="6.78079">
        <ele>575.49</ele>
        <time>2018-04-02T09:35:48Z</time>
      </trkpt>
      <trkpt lat="48.23805" lon="6.78064">
        <ele>575.01</ele>
        <time>2018-04-02T09:35:53Z</time>
      </trkpt>
      <trkpt lat="48.23794" lon="6.78044">
        <ele>574.04</ele>
        <time>2018-04-02T09:36:12Z</time>
      </trkpt>
      <trkpt lat="48.23783" lon="6.78038">
        <ele>573.08</ele>
        <time>2018-04-02T09:36:16Z</time>
      </trkpt>
      <trkpt lat="48.23774" lon="6.78035">
        <ele>571.64</ele>
        <time>2018-04-02T09:36:18Z</time>
      </trkpt>
      <trkpt lat="48.23763" lon="6.78034">
        <ele>570.68</ele>
        <time>2018-04-02T09:36:20Z</time>
      </trkpt>
      <trkpt lat="48.23753" lon="6.78035">
        <ele>569.24</ele>
        <time>2018-04-02T09:36:22Z</time>
      </trkpt>
      <trkpt lat="48.23744" lon="6.78036">
        <ele>568.28</ele>
        <time>2018-04-02T09:36:24Z</time>
      </trkpt>
      <trkpt lat="48.23732" lon="6.78036">
        <ele>567.32</ele>
        <time>2018-04-02T09:36:26Z</time>
      </trkpt>
      <trkpt lat="48.23721" lon="6.78033">
        <ele>566.83</ele>
        <time>2018-04-02T09:36:27Z</time>
      </trkpt>
      <trkpt lat="48.23704" lon="6.78028">
        <ele>565.87</ele>
        <time>2018-04-02T09:36:29Z</time>
      </trkpt>
      <trkpt lat="48.23688" lon="6.78026">
        <ele>563.47</ele>
        <time>2018-04-02T09:36:31Z</time>
      </trkpt>
      <trkpt lat="48.23671" lon="6.78029">
        <ele>562.51</ele>
        <time>2018-04-02T09:36:33Z</time>
      </trkpt>
      <trkpt lat="48.23652" lon="6.78036">
        <ele>560.59</ele>
        <time>2018-04-02T09:36:35Z</time>
      </trkpt>
      <trkpt lat="48.23637" lon="6.78051">
        <ele>559.14</ele>
        <time>2018-04-02T09:36:37Z</time>
      </trkpt>
      <trkpt lat="48.23628" lon="6.78073">
        <ele>557.7</ele>
        <time>2018-04-02T09:36:39Z</time>
      </trkpt>
      <trkpt lat="48.23625" lon="6.78086">
        <ele>557.22</ele>
        <time>2018-04-02T09:36:40Z</time>
      </trkpt>
      <trkpt lat="48.23624" lon="6.781">
        <ele>556.26</ele>
        <time>2018-04-02T09:36:41Z</time>
      </trkpt>
      <trkpt lat="48.23625" lon="6.78128">
        <ele>554.82</ele>
        <time>2018-04-02T09:36:43Z</time>
      </trkpt>
      <trkpt lat="48.23627" lon="6.78144">
        <ele>553.86</ele>
        <time>2018-04-02T09:36:44Z</time>
      </trkpt>
      <trkpt lat="48.23628" lon="6.78159">
        <ele>552.41</ele>
        <time>2018-04-02T09:36:45Z</time>
      </trkpt>
      <trkpt lat="48.23629" lon="6.78175">
        <ele>551.45</ele>
        <time>2018-04-02T09:36:46Z</time>
      </trkpt>
      <trkpt lat="48.2363" lon="6.78192">
        <ele>550.97</ele>
        <time>2018-04-02T09:36:47Z</time>
      </trkpt>
      <trkpt lat="48.23629" lon="6.78208">
        <ele>550.01</ele>
        <time>2018-04-02T09:36:48Z</time>
      </trkpt>
      <trkpt lat="48.23629" lon="6.78224">
        <ele>549.53</ele>
        <time>2018-04-02T09:36:49Z</time>
      </trkpt>
      <trkpt lat="48.23628" lon="6.7824">
        <ele>548.57</ele>
        <time>2018-04-02T09:36:50Z</time>
      </trkpt>
      <trkpt lat="48.23626" lon="6.78257">
        <ele>547.61</ele>
        <time>2018-04-02T09:36:51Z</time>
      </trkpt>
      <trkpt lat="48.23624" lon="6.78272">
        <ele>547.13</ele>
        <time>2018-04-02T09:36:52Z</time>
      </trkpt>
      <trkpt lat="48.23622" lon="6.78285">
        <ele>545.69</ele>
        <time>2018-04-02T09:36:53Z</time>
      </trkpt>
      <trkpt lat="48.23614" lon="6.78306">
        <ele>544.24</ele>
        <time>2018-04-02T09:36:55Z</time>
      </trkpt>
      <trkpt lat="48.236" lon="6.78314">
        <ele>542.8</ele>
        <time>2018-04-02T09:36:57Z</time>
      </trkpt>
      <trkpt lat="48.23582" lon="6.78314">
        <ele>541.84</ele>
        <time>2018-04-02T09:36:59Z</time>
      </trkpt>
      <trkpt lat="48.23565" lon="6.78317">
        <ele>539.92</ele>
        <time>2018-04-02T09:37:01Z</time>
      </trkpt>
      <trkpt lat="48.23551" lon="6.78327">
        <ele>539.44</ele>
        <time>2018-04-02T09:37:03Z</time>
      </trkpt>
      <trkpt lat="48.23544" lon="6.78337">
        <ele>540.88</ele>
        <time>2018-04-02T09:37:05Z</time>
      </trkpt>
      <trkpt lat="48.23534" lon="6.78346">
        <ele>542.32</ele>
        <time>2018-04-02T09:37:13Z</time>
      </trkpt>
      <trkpt lat="48.23525" lon="6.78359">
        <ele>544.72</ele>
        <time>2018-04-02T09:37:30Z</time>
      </trkpt>
      <trkpt lat="48.23515" lon="6.78372">
        <ele>546.17</ele>
        <time>2018-04-02T09:37:37Z</time>
      </trkpt>
      <trkpt lat="48.23508" lon="6.78387">
        <ele>547.13</ele>
        <time>2018-04-02T09:37:42Z</time>
      </trkpt>
      <trkpt lat="48.235" lon="6.78402">
        <ele>548.09</ele>
        <time>2018-04-02T09:37:47Z</time>
      </trkpt>
      <trkpt lat="48.23492" lon="6.78416">
        <ele>548.57</ele>
        <time>2018-04-02T09:37:53Z</time>
      </trkpt>
      <trkpt lat="48.23482" lon="6.7843">
        <ele>549.53</ele>
        <time>2018-04-02T09:37:59Z</time>
      </trkpt>
      <trkpt lat="48.23466" lon="6.78445">
        <ele>550.49</ele>
        <time>2018-04-02T09:38:06Z</time>
      </trkpt>
      <trkpt lat="48.23452" lon="6.78455">
        <ele>550.49</ele>
        <time>2018-04-02T09:38:13Z</time>
      </trkpt>
      <trkpt lat="48.23439" lon="6.78463">
        <ele>550.97</ele>
        <time>2018-04-02T09:38:20Z</time>
      </trkpt>
      <trkpt lat="48.23428" lon="6.78472">
        <ele>551.93</ele>
        <time>2018-04-02T09:38:26Z</time>
      </trkpt>
      <trkpt lat="48.23418" lon="6.78478">
        <ele>553.38</ele>
        <time>2018-04-02T09:38:33Z</time>
      </trkpt>
      <trkpt lat="48.23407" lon="6.78482">
        <ele>554.82</ele>
        <time>2018-04-02T09:38:42Z</time>
      </trkpt>
      <trkpt lat="48.23395" lon="6.78481">
        <ele>554.82</ele>
        <time>2018-04-02T09:38:48Z</time>
      </trkpt>
      <trkpt lat="48.23382" lon="6.78479">
        <ele>555.78</ele>
        <time>2018-04-02T09:38:54Z</time>
      </trkpt>
      <trkpt lat="48.23371" lon="6.78478">
        <ele>557.22</ele>
        <time>2018-04-02T09:39:00Z</time>
      </trkpt>
      <trkpt lat="48.23361" lon="6.78475">
        <ele>557.22</ele>
        <time>2018-04-02T09:39:06Z</time>
      </trkpt>
      <trkpt lat="48.23352" lon="6.7847">
        <ele>557.22</ele>
        <time>2018-04-02T09:39:12Z</time>
      </trkpt>
      <trkpt lat="48.23341" lon="6.78464">
        <ele>558.66</ele>
        <time>2018-04-02T09:39:18Z</time>
      </trkpt>
      <trkpt lat="48.23329" lon="6.7846">
        <ele>559.62</ele>
        <time>2018-04-02T09:39:25Z</time>
      </trkpt>
      <trkpt lat="48.23319" lon="6.78454">
        <ele>559.62</ele>
        <time>2018-04-02T09:39:31Z</time>
      </trkpt>
      <trkpt lat="48.23309" lon="6.78447">
        <ele>560.59</ele>
        <time>2018-04-02T09:39:38Z</time>
      </trkpt>
      <trkpt lat="48.23299" lon="6.78441">
        <ele>561.07</ele>
        <time>2018-04-02T09:39:45Z</time>
      </trkpt>
      <trkpt lat="48.23289" lon="6.78431">
        <ele>561.55</ele>
        <time>2018-04-02T09:39:51Z</time>
      </trkpt>
      <trkpt lat="48.23279" lon="6.78422">
        <ele>560.59</ele>
        <time>2018-04-02T09:39:56Z</time>
      </trkpt>
      <trkpt lat="48.2327" lon="6.78416">
        <ele>561.07</ele>
        <time>2018-04-02T09:40:00Z</time>
      </trkpt>
      <trkpt lat="48.23262" lon="6.78408">
        <ele>561.07</ele>
        <time>2018-04-02T09:40:04Z</time>
      </trkpt>
      <trkpt lat="48.23253" lon="6.78398">
        <ele>562.51</ele>
        <time>2018-04-02T09:40:09Z</time>
      </trkpt>
      <trkpt lat="48.23241" lon="6.78388">
        <ele>562.99</ele>
        <time>2018-04-02T09:40:14Z</time>
      </trkpt>
      <trkpt lat="48.23232" lon="6.7838">
        <ele>563.95</ele>
        <time>2018-04-02T09:40:18Z</time>
      </trkpt>
      <trkpt lat="48.23224" lon="6.78371">
        <ele>564.91</ele>
        <time>2018-04-02T09:40:22Z</time>
      </trkpt>
      <trkpt lat="48.23214" lon="6.78365">
        <ele>565.87</ele>
        <time>2018-04-02T09:40:26Z</time>
      </trkpt>
      <trkpt lat="48.23203" lon="6.78361">
        <ele>567.32</ele>
        <time>2018-04-02T09:40:31Z</time>
      </trkpt>
      <trkpt lat="48.23195" lon="6.78352">
        <ele>568.76</ele>
        <time>2018-04-02T09:40:37Z</time>
      </trkpt>
      <trkpt lat="48.23182" lon="6.78344">
        <ele>569.24</ele>
        <time>2018-04-02T09:40:42Z</time>
      </trkpt>
      <trkpt lat="48.23172" lon="6.78338">
        <ele>570.2</ele>
        <time>2018-04-02T09:40:47Z</time>
      </trkpt>
      <trkpt lat="48.23161" lon="6.78334">
        <ele>572.6</ele>
        <time>2018-04-02T09:40:53Z</time>
      </trkpt>
      <trkpt lat="48.2315" lon="6.78331">
        <ele>573.56</ele>
        <time>2018-04-02T09:41:00Z</time>
      </trkpt>
      <trkpt lat="48.23139" lon="6.78332">
        <ele>575.49</ele>
        <time>2018-04-02T09:41:07Z</time>
      </trkpt>
      <trkpt lat="48.23129" lon="6.78333">
        <ele>576.93</ele>
        <time>2018-04-02T09:41:13Z</time>
      </trkpt>
      <trkpt lat="48.23119" lon="6.78336">
        <ele>578.85</ele>
        <time>2018-04-02T09:41:21Z</time>
      </trkpt>
      <trkpt lat="48.23108" lon="6.78344">
        <ele>578.85</ele>
        <time>2018-04-02T09:41:30Z</time>
      </trkpt>
      <trkpt lat="48.23096" lon="6.7835">
        <ele>579.81</ele>
        <time>2018-04-02T09:44:33Z</time>
      </trkpt>
      <trkpt lat="48.23088" lon="6.78354">
        <ele>579.81</ele>
        <time>2018-04-02T09:44:40Z</time>
      </trkpt>
      <trkpt lat="48.23078" lon="6.78359">
        <ele>579.33</ele>
        <time>2018-04-02T09:44:45Z</time>
      </trkpt>
      <trkpt lat="48.23067" lon="6.78366">
        <ele>579.33</ele>
        <time>2018-04-02T09:44:50Z</time>
      </trkpt>
      <trkpt lat="48.23056" lon="6.78374">
        <ele>578.37</ele>
        <time>2018-04-02T09:44:54Z</time>
      </trkpt>
      <trkpt lat="48.23047" lon="6.78382">
        <ele>578.37</ele>
        <time>2018-04-02T09:44:57Z</time>
      </trkpt>
      <trkpt lat="48.23035" lon="6.78391">
        <ele>578.37</ele>
        <time>2018-04-02T09:45:00Z</time>
      </trkpt>
      <trkpt lat="48.23024" lon="6.784">
        <ele>577.89</ele>
        <time>2018-04-02T09:45:03Z</time>
      </trkpt>
      <trkpt lat="48.2301" lon="6.78407">
        <ele>577.41</ele>
        <time>2018-04-02T09:45:06Z</time>
      </trkpt>
      <trkpt lat="48.23" lon="6.7841">
        <ele>576.93</ele>
        <time>2018-04-02T09:45:08Z</time>
      </trkpt>
      <trkpt lat="48.22987" lon="6.78413">
        <ele>575.97</ele>
        <time>2018-04-02T09:45:11Z</time>
      </trkpt>
      <trkpt lat="48.22976" lon="6.78415">
        <ele>576.45</ele>
        <time>2018-04-02T09:45:13Z</time>
      </trkpt>
      <trkpt lat="48.22963" lon="6.78415">
        <ele>575.97</ele>
        <time>2018-04-02T09:45:15Z</time>
      </trkpt>
      <trkpt lat="48.22953" lon="6.78417">
        <ele>575.49</ele>
        <time>2018-04-02T09:45:17Z</time>
      </trkpt>
      <trkpt lat="48.2294" lon="6.78416">
        <ele>575.01</ele>
        <time>2018-04-02T09:45:19Z</time>
      </trkpt>
      <trkpt lat="48.22926" lon="6.78413">
        <ele>574.53</ele>
        <time>2018-04-02T09:45:22Z</time>
      </trkpt>
      <trkpt lat="48.22913" lon="6.78409">
        <ele>574.53</ele>
        <time>2018-04-02T09:45:25Z</time>
      </trkpt>
      <trkpt lat="48.22902" lon="6.78406">
        <ele>575.01</ele>
        <time>2018-04-02T09:45:28Z</time>
      </trkpt>
      <trkpt lat="48.22889" lon="6.78399">
        <ele>574.04</ele>
        <time>2018-04-02T09:45:31Z</time>
      </trkpt>
      <trkpt lat="48.22882" lon="6.78391">
        <ele>573.56</ele>
        <time>2018-04-02T09:45:33Z</time>
      </trkpt>
      <trkpt lat="48.22872" lon="6.78377">
        <ele>573.56</ele>
        <time>2018-04-02T09:45:36Z</time>
      </trkpt>
      <trkpt lat="48.22863" lon="6.78361">
        <ele>572.12</ele>
        <time>2018-04-02T09:45:39Z</time>
      </trkpt>
      <trkpt lat="48.22857" lon="6.78351">
        <ele>572.12</ele>
        <time>2018-04-02T09:45:41Z</time>
      </trkpt>
      <trkpt lat="48.22849" lon="6.78335">
        <ele>571.64</ele>
        <time>2018-04-02T09:45:44Z</time>
      </trkpt>
      <trkpt lat="48.22844" lon="6.78323">
        <ele>571.16</ele>
        <time>2018-04-02T09:45:46Z</time>
      </trkpt>
      <trkpt lat="48.22837" lon="6.7831">
        <ele>571.16</ele>
        <time>2018-04-02T09:45:48Z</time>
      </trkpt>
      <trkpt lat="48.22831" lon="6.78298">
        <ele>569.72</ele>
        <time>2018-04-02T09:45:50Z</time>
      </trkpt>
      <trkpt lat="48.22822" lon="6.78286">
        <ele>569.72</ele>
        <time>2018-04-02T09:45:52Z</time>
      </trkpt>
      <trkpt lat="48.22813" lon="6.78273">
        <ele>568.76</ele>
        <time>2018-04-02T09:45:54Z</time>
      </trkpt>
      <trkpt lat="48.22803" lon="6.7826">
        <ele>567.32</ele>
        <time>2018-04-02T09:45:56Z</time>
      </trkpt>
      <trkpt lat="48.22791" lon="6.7825">
        <ele>566.83</ele>
        <time>2018-04-02T09:45:58Z</time>
      </trkpt>
      <trkpt lat="48.22779" lon="6.7824">
        <ele>565.87</ele>
        <time>2018-04-02T09:46:00Z</time>
      </trkpt>
      <trkpt lat="48.22768" lon="6.78232">
        <ele>564.43</ele>
        <time>2018-04-02T09:46:02Z</time>
      </trkpt>
      <trkpt lat="48.22757" lon="6.78229">
        <ele>563.47</ele>
        <time>2018-04-02T09:46:03Z</time>
      </trkpt>
      <trkpt lat="48.22744" lon="6.78227">
        <ele>562.99</ele>
        <time>2018-04-02T09:46:05Z</time>
      </trkpt>
      <trkpt lat="48.22727" lon="6.78225">
        <ele>562.03</ele>
        <time>2018-04-02T09:46:07Z</time>
      </trkpt>
      <trkpt lat="48.2271" lon="6.78222">
        <ele>560.59</ele>
        <time>2018-04-02T09:46:09Z</time>
      </trkpt>
      <trkpt lat="48.22695" lon="6.78217">
        <ele>560.11</ele>
        <time>2018-04-02T09:46:11Z</time>
      </trkpt>
      <trkpt lat="48.22682" lon="6.78212">
        <ele>559.14</ele>
        <time>2018-04-02T09:46:13Z</time>
      </trkpt>
      <trkpt lat="48.22669" lon="6.78207">
        <ele>558.18</ele>
        <time>2018-04-02T09:46:15Z</time>
      </trkpt>
      <trkpt lat="48.22659" lon="6.78201">
        <ele>557.7</ele>
        <time>2018-04-02T09:46:17Z</time>
      </trkpt>
      <trkpt lat="48.22649" lon="6.7819">
        <ele>556.74</ele>
        <time>2018-04-02T09:46:19Z</time>
      </trkpt>
      <trkpt lat="48.22638" lon="6.78179">
        <ele>555.78</ele>
        <time>2018-04-02T09:46:21Z</time>
      </trkpt>
      <trkpt lat="48.22623" lon="6.7817">
        <ele>554.34</ele>
        <time>2018-04-02T09:46:23Z</time>
      </trkpt>
      <trkpt lat="48.22615" lon="6.78166">
        <ele>554.34</ele>
        <time>2018-04-02T09:46:24Z</time>
      </trkpt>
      <trkpt lat="48.22599" lon="6.78162">
        <ele>553.86</ele>
        <time>2018-04-02T09:46:26Z</time>
      </trkpt>
      <trkpt lat="48.22588" lon="6.78161">
        <ele>551.93</ele>
        <time>2018-04-02T09:46:27Z</time>
      </trkpt>
      <trkpt lat="48.22577" lon="6.78162">
        <ele>550.97</ele>
        <time>2018-04-02T09:46:29Z</time>
      </trkpt>
      <trkpt lat="48.22565" lon="6.78166">
        <ele>550.49</ele>
        <time>2018-04-02T09:46:30Z</time>
      </trkpt>
      <trkpt lat="48.22557" lon="6.78171">
        <ele>549.53</ele>
        <time>2018-04-02T09:46:32Z</time>
      </trkpt>
      <trkpt lat="48.22545" lon="6.7818">
        <ele>547.61</ele>
        <time>2018-04-02T09:46:34Z</time>
      </trkpt>
      <trkpt lat="48.22535" lon="6.78189">
        <ele>546.17</ele>
        <time>2018-04-02T09:46:36Z</time>
      </trkpt>
      <trkpt lat="48.22526" lon="6.78201">
        <ele>545.2</ele>
        <time>2018-04-02T09:46:38Z</time>
      </trkpt>
      <trkpt lat="48.22518" lon="6.78214">
        <ele>543.76</ele>
        <time>2018-04-02T09:46:40Z</time>
      </trkpt>
      <trkpt lat="48.2251" lon="6.78229">
        <ele>540.88</ele>
        <time>2018-04-02T09:46:43Z</time>
      </trkpt>
      <trkpt lat="48.22501" lon="6.78242">
        <ele>539.44</ele>
        <time>2018-04-02T09:46:46Z</time>
      </trkpt>
      <trkpt lat="48.22489" lon="6.78255">
        <ele>536.55</ele>
        <time>2018-04-02T09:46:51Z</time>
      </trkpt>
      <trkpt lat="48.22487" lon="6.78251">
        <ele>535.11</ele>
        <time>2018-04-02T09:46:56Z</time>
      </trkpt>
      <trkpt lat="48.22491" lon="6.78237">
        <ele>534.15</ele>
        <time>2018-04-02T09:47:00Z</time>
      </trkpt>
      <trkpt lat="48.22496" lon="6.78226">
        <ele>533.19</ele>
        <time>2018-04-02T09:47:03Z</time>
      </trkpt>
      <trkpt lat="48.22501" lon="6.78212">
        <ele>532.23</ele>
        <time>2018-04-02T09:47:05Z</time>
      </trkpt>
      <trkpt lat="48.22506" lon="6.78199">
        <ele>531.75</ele>
        <time>2018-04-02T09:47:08Z</time>
      </trkpt>
      <trkpt lat="48.22512" lon="6.78181">
        <ele>530.3</ele>
        <time>2018-04-02T09:47:11Z</time>
      </trkpt>
      <trkpt lat="48.22516" lon="6.78168">
        <ele>529.34</ele>
        <time>2018-04-02T09:47:13Z</time>
      </trkpt>
      <trkpt lat="48.22522" lon="6.78155">
        <ele>528.86</ele>
        <time>2018-04-02T09:47:15Z</time>
      </trkpt>
      <trkpt lat="48.22528" lon="6.78143">
        <ele>527.42</ele>
        <time>2018-04-02T09:47:17Z</time>
      </trkpt>
      <trkpt lat="48.22537" lon="6.78132">
        <ele>526.46</ele>
        <time>2018-04-02T09:47:19Z</time>
      </trkpt>
      <trkpt lat="48.22547" lon="6.7812">
        <ele>525.98</ele>
        <time>2018-04-02T09:47:21Z</time>
      </trkpt>
      <trkpt lat="48.22559" lon="6.78108">
        <ele>525.02</ele>
        <time>2018-04-02T09:47:23Z</time>
      </trkpt>
      <trkpt lat="48.22574" lon="6.78098">
        <ele>523.58</ele>
        <time>2018-04-02T09:47:25Z</time>
      </trkpt>
      <trkpt lat="48.2259" lon="6.78091">
        <ele>522.61</ele>
        <time>2018-04-02T09:47:27Z</time>
      </trkpt>
      <trkpt lat="48.22607" lon="6.78085">
        <ele>520.69</ele>
        <time>2018-04-02T09:47:29Z</time>
      </trkpt>
      <trkpt lat="48.22617" lon="6.78083">
        <ele>520.21</ele>
        <time>2018-04-02T09:47:30Z</time>
      </trkpt>
      <trkpt lat="48.22635" lon="6.78082">
        <ele>518.77</ele>
        <time>2018-04-02T09:47:32Z</time>
      </trkpt>
      <trkpt lat="48.22648" lon="6.78083">
        <ele>517.33</ele>
        <time>2018-04-02T09:47:33Z</time>
      </trkpt>
      <trkpt lat="48.2266" lon="6.78086">
        <ele>515.88</ele>
        <time>2018-04-02T09:47:35Z</time>
      </trkpt>
      <trkpt lat="48.22679" lon="6.78087">
        <ele>514.92</ele>
        <time>2018-04-02T09:47:37Z</time>
      </trkpt>
      <trkpt lat="48.22688" lon="6.78087">
        <ele>514.44</ele>
        <time>2018-04-02T09:47:38Z</time>
      </trkpt>
      <trkpt lat="48.22706" lon="6.78086">
        <ele>513</ele>
        <time>2018-04-02T09:47:40Z</time>
      </trkpt>
      <trkpt lat="48.22722" lon="6.78085">
        <ele>510.6</ele>
        <time>2018-04-02T09:47:42Z</time>
      </trkpt>
      <trkpt lat="48.22735" lon="6.78083">
        <ele>509.64</ele>
        <time>2018-04-02T09:47:44Z</time>
      </trkpt>
      <trkpt lat="48.22746" lon="6.78081">
        <ele>509.16</ele>
        <time>2018-04-02T09:47:45Z</time>
      </trkpt>
      <trkpt lat="48.22763" lon="6.78079">
        <ele>507.23</ele>
        <time>2018-04-02T09:47:47Z</time>
      </trkpt>
      <trkpt lat="48.22779" lon="6.78078">
        <ele>505.79</ele>
        <time>2018-04-02T09:47:49Z</time>
      </trkpt>
      <trkpt lat="48.22791" lon="6.78078">
        <ele>504.35</ele>
        <time>2018-04-02T09:47:51Z</time>
      </trkpt>
      <trkpt lat="48.22801" lon="6.7808">
        <ele>503.39</ele>
        <time>2018-04-02T09:47:53Z</time>
      </trkpt>
      <trkpt lat="48.22812" lon="6.78081">
        <ele>501.95</ele>
        <time>2018-04-02T09:47:55Z</time>
      </trkpt>
      <trkpt lat="48.22823" lon="6.78081">
        <ele>501.46</ele>
        <time>2018-04-02T09:47:57Z</time>
      </trkpt>
      <trkpt lat="48.22832" lon="6.78082">
        <ele>499.54</ele>
        <time>2018-04-02T09:47:59Z</time>
      </trkpt>
      <trkpt lat="48.22842" lon="6.78085">
        <ele>499.06</ele>
        <time>2018-04-02T09:48:01Z</time>
      </trkpt>
      <trkpt lat="48.22853" lon="6.78088">
        <ele>498.1</ele>
        <time>2018-04-02T09:48:03Z</time>
      </trkpt>
      <trkpt lat="48.22861" lon="6.78094">
        <ele>497.14</ele>
        <time>2018-04-02T09:48:05Z</time>
      </trkpt>
      <trkpt lat="48.2288" lon="6.78112">
        <ele>496.18</ele>
        <time>2018-04-02T09:48:07Z</time>
      </trkpt>
      <trkpt lat="48.22896" lon="6.78132">
        <ele>494.74</ele>
        <time>2018-04-02T09:48:09Z</time>
      </trkpt>
      <trkpt lat="48.22909" lon="6.78148">
        <ele>493.29</ele>
        <time>2018-04-02T09:48:11Z</time>
      </trkpt>
      <trkpt lat="48.2292" lon="6.7816">
        <ele>492.33</ele>
        <time>2018-04-02T09:48:13Z</time>
      </trkpt>
      <trkpt lat="48.22931" lon="6.78162">
        <ele>491.37</ele>
        <time>2018-04-02T09:48:16Z</time>
      </trkpt>
      <trkpt lat="48.22936" lon="6.78151">
        <ele>489.45</ele>
        <time>2018-04-02T09:48:20Z</time>
      </trkpt>
      <trkpt lat="48.22944" lon="6.78149">
        <ele>490.89</ele>
        <time>2018-04-02T09:50:03Z</time>
      </trkpt>
      <trkpt lat="48.22939" lon="6.78151">
        <ele>492.33</ele>
        <time>2018-04-02T09:52:42Z</time>
      </trkpt>
      <trkpt lat="48.22933" lon="6.78137">
        <ele>490.89</ele>
        <time>2018-04-02T09:52:47Z</time>
      </trkpt>
      <trkpt lat="48.22925" lon="6.78122">
        <ele>489.93</ele>
        <time>2018-04-02T09:52:51Z</time>
      </trkpt>
      <trkpt lat="48.22921" lon="6.78109">
        <ele>488.97</ele>
        <time>2018-04-02T09:52:53Z</time>
      </trkpt>
      <trkpt lat="48.22915" lon="6.78095">
        <ele>488.49</ele>
        <time>2018-04-02T09:52:55Z</time>
      </trkpt>
      <trkpt lat="48.22905" lon="6.78082">
        <ele>487.05</ele>
        <time>2018-04-02T09:52:57Z</time>
      </trkpt>
      <trkpt lat="48.22896" lon="6.78069">
        <ele>486.08</ele>
        <time>2018-04-02T09:52:59Z</time>
      </trkpt>
      <trkpt lat="48.22886" lon="6.78055">
        <ele>485.6</ele>
        <time>2018-04-02T09:53:01Z</time>
      </trkpt>
      <trkpt lat="48.22875" lon="6.78042">
        <ele>484.16</ele>
        <time>2018-04-02T09:53:03Z</time>
      </trkpt>
      <trkpt lat="48.22864" lon="6.78029">
        <ele>483.2</ele>
        <time>2018-04-02T09:53:05Z</time>
      </trkpt>
      <trkpt lat="48.22854" lon="6.78018">
        <ele>481.76</ele>
        <time>2018-04-02T09:53:07Z</time>
      </trkpt>
      <trkpt lat="48.22842" lon="6.78007">
        <ele>480.8</ele>
        <time>2018-04-02T09:53:09Z</time>
      </trkpt>
      <trkpt lat="48.22831" lon="6.77997">
        <ele>480.32</ele>
        <time>2018-04-02T09:53:11Z</time>
      </trkpt>
      <trkpt lat="48.22821" lon="6.77989">
        <ele>477.91</ele>
        <time>2018-04-02T09:53:13Z</time>
      </trkpt>
      <trkpt lat="48.22809" lon="6.77977">
        <ele>476.95</ele>
        <time>2018-04-02T09:53:15Z</time>
      </trkpt>
      <trkpt lat="48.228" lon="6.77967">
        <ele>475.51</ele>
        <time>2018-04-02T09:53:17Z</time>
      </trkpt>
      <trkpt lat="48.22789" lon="6.77957">
        <ele>474.55</ele>
        <time>2018-04-02T09:53:19Z</time>
      </trkpt>
      <trkpt lat="48.2278" lon="6.77947">
        <ele>473.59</ele>
        <time>2018-04-02T09:53:21Z</time>
      </trkpt>
      <trkpt lat="48.22769" lon="6.77934">
        <ele>471.18</ele>
        <time>2018-04-02T09:53:23Z</time>
      </trkpt>
      <trkpt lat="48.22756" lon="6.77922">
        <ele>469.74</ele>
        <time>2018-04-02T09:53:25Z</time>
      </trkpt>
      <trkpt lat="48.22742" lon="6.77911">
        <ele>466.86</ele>
        <time>2018-04-02T09:53:27Z</time>
      </trkpt>
      <trkpt lat="48.22731" lon="6.77903">
        <ele>464.93</ele>
        <time>2018-04-02T09:53:29Z</time>
      </trkpt>
      <trkpt lat="48.2272" lon="6.77897">
        <ele>463.01</ele>
        <time>2018-04-02T09:53:31Z</time>
      </trkpt>
      <trkpt lat="48.22712" lon="6.7789">
        <ele>462.05</ele>
        <time>2018-04-02T09:53:33Z</time>
      </trkpt>
      <trkpt lat="48.22702" lon="6.77884">
        <ele>461.09</ele>
        <time>2018-04-02T09:53:34Z</time>
      </trkpt>
      <trkpt lat="48.22689" lon="6.77881">
        <ele>459.65</ele>
        <time>2018-04-02T09:53:36Z</time>
      </trkpt>
      <trkpt lat="48.22679" lon="6.77878">
        <ele>457.72</ele>
        <time>2018-04-02T09:53:38Z</time>
      </trkpt>
      <trkpt lat="48.22667" lon="6.77873">
        <ele>456.76</ele>
        <time>2018-04-02T09:53:40Z</time>
      </trkpt>
      <trkpt lat="48.22656" lon="6.77869">
        <ele>457.24</ele>
        <time>2018-04-02T09:53:42Z</time>
      </trkpt>
      <trkpt lat="48.22647" lon="6.77866">
        <ele>456.28</ele>
        <time>2018-04-02T09:53:44Z</time>
      </trkpt>
      <trkpt lat="48.22637" lon="6.7786">
        <ele>456.28</ele>
        <time>2018-04-02T09:53:46Z</time>
      </trkpt>
      <trkpt lat="48.22624" lon="6.7785">
        <ele>456.28</ele>
        <time>2018-04-02T09:53:48Z</time>
      </trkpt>
      <trkpt lat="48.22615" lon="6.7784">
        <ele>456.76</ele>
        <time>2018-04-02T09:53:50Z</time>
      </trkpt>
      <trkpt lat="48.22605" lon="6.77827">
        <ele>456.28</ele>
        <time>2018-04-02T09:53:52Z</time>
      </trkpt>
      <trkpt lat="48.22596" lon="6.77813">
        <ele>457.24</ele>
        <time>2018-04-02T09:53:54Z</time>
      </trkpt>
      <trkpt lat="48.22586" lon="6.77801">
        <ele>457.72</ele>
        <time>2018-04-02T09:53:56Z</time>
      </trkpt>
      <trkpt lat="48.22575" lon="6.77793">
        <ele>458.21</ele>
        <time>2018-04-02T09:53:58Z</time>
      </trkpt>
      <trkpt lat="48.22564" lon="6.77787">
        <ele>458.69</ele>
        <time>2018-04-02T09:54:00Z</time>
      </trkpt>
      <trkpt lat="48.22546" lon="6.77784">
        <ele>459.17</ele>
        <time>2018-04-02T09:54:04Z</time>
      </trkpt>
      <trkpt lat="48.22534" lon="6.77786">
        <ele>459.65</ele>
        <time>2018-04-02T09:54:07Z</time>
      </trkpt>
      <trkpt lat="48.22521" lon="6.77792">
        <ele>459.65</ele>
        <time>2018-04-02T09:54:11Z</time>
      </trkpt>
      <trkpt lat="48.22507" lon="6.77801">
        <ele>459.65</ele>
        <time>2018-04-02T09:54:17Z</time>
      </trkpt>
      <trkpt lat="48.22498" lon="6.77812">
        <ele>459.17</ele>
        <time>2018-04-02T09:54:53Z</time>
      </trkpt>
      <trkpt lat="48.22492" lon="6.77814">
        <ele>460.13</ele>
        <time>2018-04-02T09:56:54Z</time>
      </trkpt>
      <trkpt lat="48.22491" lon="6.77811">
        <ele>461.09</ele>
        <time>2018-04-02T09:59:42Z</time>
      </trkpt>
      <trkpt lat="48.22489" lon="6.7782">
        <ele>460.13</ele>
        <time>2018-04-02T10:00:15Z</time>
      </trkpt>
      <trkpt lat="48.22485" lon="6.77831">
        <ele>460.13</ele>
        <time>2018-04-02T10:01:54Z</time>
      </trkpt>
      <trkpt lat="48.22477" lon="6.77842">
        <ele>458.21</ele>
        <time>2018-04-02T10:01:58Z</time>
      </trkpt>
      <trkpt lat="48.2247" lon="6.77854">
        <ele>458.21</ele>
        <time>2018-04-02T10:02:00Z</time>
      </trkpt>
      <trkpt lat="48.22462" lon="6.77864">
        <ele>457.24</ele>
        <time>2018-04-02T10:02:02Z</time>
      </trkpt>
      <trkpt lat="48.22453" lon="6.77873">
        <ele>457.72</ele>
        <time>2018-04-02T10:02:04Z</time>
      </trkpt>
      <trkpt lat="48.22441" lon="6.77881">
        <ele>457.24</ele>
        <time>2018-04-02T10:02:06Z</time>
      </trkpt>
      <trkpt lat="48.22429" lon="6.77887">
        <ele>455.8</ele>
        <time>2018-04-02T10:02:08Z</time>
      </trkpt>
      <trkpt lat="48.22417" lon="6.77892">
        <ele>454.36</ele>
        <time>2018-04-02T10:02:10Z</time>
      </trkpt>
      <trkpt lat="48.22404" lon="6.77899">
        <ele>451.96</ele>
        <time>2018-04-02T10:02:12Z</time>
      </trkpt>
      <trkpt lat="48.22392" lon="6.77911">
        <ele>450.03</ele>
        <time>2018-04-02T10:02:14Z</time>
      </trkpt>
      <trkpt lat="48.2238" lon="6.77926">
        <ele>448.59</ele>
        <time>2018-04-02T10:02:16Z</time>
      </trkpt>
      <trkpt lat="48.22365" lon="6.77936">
        <ele>445.23</ele>
        <time>2018-04-02T10:02:18Z</time>
      </trkpt>
      <trkpt lat="48.22347" lon="6.77935">
        <ele>444.27</ele>
        <time>2018-04-02T10:02:20Z</time>
      </trkpt>
      <trkpt lat="48.22337" lon="6.77932">
        <ele>443.79</ele>
        <time>2018-04-02T10:02:21Z</time>
      </trkpt>
      <trkpt lat="48.22318" lon="6.77931">
        <ele>442.34</ele>
        <time>2018-04-02T10:02:23Z</time>
      </trkpt>
      <trkpt lat="48.22299" lon="6.77941">
        <ele>440.42</ele>
        <time>2018-04-02T10:02:25Z</time>
      </trkpt>
      <trkpt lat="48.22283" lon="6.77956">
        <ele>438.5</ele>
        <time>2018-04-02T10:02:27Z</time>
      </trkpt>
      <trkpt lat="48.22263" lon="6.77974">
        <ele>436.58</ele>
        <time>2018-04-02T10:02:29Z</time>
      </trkpt>
      <trkpt lat="48.22252" lon="6.77984">
        <ele>435.61</ele>
        <time>2018-04-02T10:02:30Z</time>
      </trkpt>
      <trkpt lat="48.22237" lon="6.77989">
        <ele>434.17</ele>
        <time>2018-04-02T10:02:32Z</time>
      </trkpt>
      <trkpt lat="48.22224" lon="6.77983">
        <ele>432.73</ele>
        <time>2018-04-02T10:02:34Z</time>
      </trkpt>
      <trkpt lat="48.22215" lon="6.77964">
        <ele>432.25</ele>
        <time>2018-04-02T10:02:36Z</time>
      </trkpt>
      <trkpt lat="48.22213" lon="6.7794">
        <ele>432.25</ele>
        <time>2018-04-02T10:02:38Z</time>
      </trkpt>
      <trkpt lat="48.22214" lon="6.77917">
        <ele>431.77</ele>
        <time>2018-04-02T10:02:40Z</time>
      </trkpt>
      <trkpt lat="48.22217" lon="6.77898">
        <ele>431.77</ele>
        <time>2018-04-02T10:02:42Z</time>
      </trkpt>
      <trkpt lat="48.22221" lon="6.77885">
        <ele>431.29</ele>
        <time>2018-04-02T10:02:44Z</time>
      </trkpt>
      <trkpt lat="48.2222" lon="6.77871">
        <ele>431.29</ele>
        <time>2018-04-02T10:02:46Z</time>
      </trkpt>
      <trkpt lat="48.22214" lon="6.77862">
        <ele>432.25</ele>
        <time>2018-04-02T10:02:48Z</time>
      </trkpt>
      <trkpt lat="48.22204" lon="6.77863">
        <ele>433.69</ele>
        <time>2018-04-02T10:02:51Z</time>
      </trkpt>
      <trkpt lat="48.22197" lon="6.77868">
        <ele>434.17</ele>
        <time>2018-04-02T10:02:56Z</time>
      </trkpt>
      <trkpt lat="48.22189" lon="6.77878">
        <ele>435.13</ele>
        <time>2018-04-02T10:03:01Z</time>
      </trkpt>
      <trkpt lat="48.2218" lon="6.77889">
        <ele>436.58</ele>
        <time>2018-04-02T10:03:06Z</time>
      </trkpt>
      <trkpt lat="48.22173" lon="6.77897">
        <ele>438.02</ele>
        <time>2018-04-02T10:03:11Z</time>
      </trkpt>
      <trkpt lat="48.22164" lon="6.77906">
        <ele>438.5</ele>
        <time>2018-04-02T10:03:16Z</time>
      </trkpt>
      <trkpt lat="48.22158" lon="6.77917">
        <ele>439.94</ele>
        <time>2018-04-02T10:03:21Z</time>
      </trkpt>
      <trkpt lat="48.22148" lon="6.77923">
        <ele>441.38</ele>
        <time>2018-04-02T10:03:26Z</time>
      </trkpt>
      <trkpt lat="48.22139" lon="6.77932">
        <ele>441.86</ele>
        <time>2018-04-02T10:03:31Z</time>
      </trkpt>
      <trkpt lat="48.22128" lon="6.77939">
        <ele>442.82</ele>
        <time>2018-04-02T10:03:36Z</time>
      </trkpt>
      <trkpt lat="48.2212" lon="6.77944">
        <ele>443.79</ele>
        <time>2018-04-02T10:03:40Z</time>
      </trkpt>
      <trkpt lat="48.2211" lon="6.77946">
        <ele>444.75</ele>
        <time>2018-04-02T10:03:45Z</time>
      </trkpt>
      <trkpt lat="48.22099" lon="6.77948">
        <ele>445.71</ele>
        <time>2018-04-02T10:03:50Z</time>
      </trkpt>
      <trkpt lat="48.22089" lon="6.77948">
        <ele>446.19</ele>
        <time>2018-04-02T10:03:54Z</time>
      </trkpt>
      <trkpt lat="48.22078" lon="6.77951">
        <ele>448.59</ele>
        <time>2018-04-02T10:04:01Z</time>
      </trkpt>
      <trkpt lat="48.22066" lon="6.77955">
        <ele>449.07</ele>
        <time>2018-04-02T10:04:07Z</time>
      </trkpt>
      <trkpt lat="48.22056" lon="6.77956">
        <ele>449.55</ele>
        <time>2018-04-02T10:04:11Z</time>
      </trkpt>
      <trkpt lat="48.22047" lon="6.77959">
        <ele>450.03</ele>
        <time>2018-04-02T10:04:15Z</time>
      </trkpt>
      <trkpt lat="48.22036" lon="6.77964">
        <ele>451</ele>
        <time>2018-04-02T10:04:19Z</time>
      </trkpt>
      <trkpt lat="48.22026" lon="6.77968">
        <ele>451.96</ele>
        <time>2018-04-02T10:04:24Z</time>
      </trkpt>
      <trkpt lat="48.22016" lon="6.77973">
        <ele>452.44</ele>
        <time>2018-04-02T10:04:29Z</time>
      </trkpt>
      <trkpt lat="48.22006" lon="6.77975">
        <ele>452.92</ele>
        <time>2018-04-02T10:04:34Z</time>
      </trkpt>
      <trkpt lat="48.21996" lon="6.77982">
        <ele>452.92</ele>
        <time>2018-04-02T10:04:42Z</time>
      </trkpt>
      <trkpt lat="48.21981" lon="6.77991">
        <ele>452.44</ele>
        <time>2018-04-02T10:04:53Z</time>
      </trkpt>
      <trkpt lat="48.21968" lon="6.77999">
        <ele>450.52</ele>
        <time>2018-04-02T10:05:01Z</time>
      </trkpt>
      <trkpt lat="48.21955" lon="6.77996">
        <ele>448.59</ele>
        <time>2018-04-02T10:05:04Z</time>
      </trkpt>
      <trkpt lat="48.21945" lon="6.77982">
        <ele>447.15</ele>
        <time>2018-04-02T10:05:06Z</time>
      </trkpt>
      <trkpt lat="48.21937" lon="6.77965">
        <ele>446.19</ele>
        <time>2018-04-02T10:05:08Z</time>
      </trkpt>
      <trkpt lat="48.21929" lon="6.77945">
        <ele>445.71</ele>
        <time>2018-04-02T10:05:10Z</time>
      </trkpt>
      <trkpt lat="48.21925" lon="6.77926">
        <ele>446.19</ele>
        <time>2018-04-02T10:05:12Z</time>
      </trkpt>
      <trkpt lat="48.21922" lon="6.77909">
        <ele>446.67</ele>
        <time>2018-04-02T10:05:14Z</time>
      </trkpt>
      <trkpt lat="48.21919" lon="6.77895">
        <ele>446.67</ele>
        <time>2018-04-02T10:05:16Z</time>
      </trkpt>
      <trkpt lat="48.21915" lon="6.77883">
        <ele>447.15</ele>
        <time>2018-04-02T10:05:18Z</time>
      </trkpt>
      <trkpt lat="48.21914" lon="6.77864">
        <ele>447.15</ele>
        <time>2018-04-02T10:05:21Z</time>
      </trkpt>
      <trkpt lat="48.21914" lon="6.7785">
        <ele>448.59</ele>
        <time>2018-04-02T10:05:24Z</time>
      </trkpt>
      <trkpt lat="48.21916" lon="6.77837">
        <ele>450.03</ele>
        <time>2018-04-02T10:05:28Z</time>
      </trkpt>
      <trkpt lat="48.21914" lon="6.77819">
        <ele>450.52</ele>
        <time>2018-04-02T10:05:32Z</time>
      </trkpt>
      <trkpt lat="48.2191" lon="6.77802">
        <ele>451</ele>
        <time>2018-04-02T10:05:36Z</time>
      </trkpt>
      <trkpt lat="48.21904" lon="6.77791">
        <ele>451.96</ele>
        <time>2018-04-02T10:05:40Z</time>
      </trkpt>
      <trkpt lat="48.21892" lon="6.77793">
        <ele>453.4</ele>
        <time>2018-04-02T10:05:45Z</time>
      </trkpt>
      <trkpt lat="48.21884" lon="6.778">
        <ele>454.36</ele>
        <time>2018-04-02T10:05:50Z</time>
      </trkpt>
      <trkpt lat="48.21872" lon="6.77804">
        <ele>456.28</ele>
        <time>2018-04-02T10:05:56Z</time>
      </trkpt>
      <trkpt lat="48.21863" lon="6.77805">
        <ele>458.21</ele>
        <time>2018-04-02T10:06:01Z</time>
      </trkpt>
      <trkpt lat="48.21853" lon="6.77802">
        <ele>458.69</ele>
        <time>2018-04-02T10:06:06Z</time>
      </trkpt>
      <trkpt lat="48.21843" lon="6.77795">
        <ele>460.61</ele>
        <time>2018-04-02T10:06:12Z</time>
      </trkpt>
      <trkpt lat="48.21832" lon="6.77783">
        <ele>462.53</ele>
        <time>2018-04-02T10:06:17Z</time>
      </trkpt>
      <trkpt lat="48.21823" lon="6.7777">
        <ele>463.49</ele>
        <time>2018-04-02T10:06:22Z</time>
      </trkpt>
      <trkpt lat="48.21815" lon="6.77759">
        <ele>464.45</ele>
        <time>2018-04-02T10:06:27Z</time>
      </trkpt>
      <trkpt lat="48.21807" lon="6.77748">
        <ele>465.42</ele>
        <time>2018-04-02T10:06:33Z</time>
      </trkpt>
      <trkpt lat="48.21798" lon="6.77739">
        <ele>466.38</ele>
        <time>2018-04-02T10:06:38Z</time>
      </trkpt>
      <trkpt lat="48.21791" lon="6.77728">
        <ele>467.34</ele>
        <time>2018-04-02T10:06:44Z</time>
      </trkpt>
      <trkpt lat="48.21782" lon="6.77717">
        <ele>467.82</ele>
        <time>2018-04-02T10:06:50Z</time>
      </trkpt>
      <trkpt lat="48.21776" lon="6.77706">
        <ele>469.26</ele>
        <time>2018-04-02T10:06:56Z</time>
      </trkpt>
      <trkpt lat="48.2177" lon="6.77693">
        <ele>469.74</ele>
        <time>2018-04-02T10:07:02Z</time>
      </trkpt>
      <trkpt lat="48.21764" lon="6.77681">
        <ele>471.66</ele>
        <time>2018-04-02T10:07:08Z</time>
      </trkpt>
      <trkpt lat="48.21757" lon="6.77669">
        <ele>472.63</ele>
        <time>2018-04-02T10:07:14Z</time>
      </trkpt>
      <trkpt lat="48.2175" lon="6.77659">
        <ele>473.59</ele>
        <time>2018-04-02T10:07:19Z</time>
      </trkpt>
      <trkpt lat="48.21743" lon="6.77649">
        <ele>473.59</ele>
        <time>2018-04-02T10:07:25Z</time>
      </trkpt>
      <trkpt lat="48.21735" lon="6.77638">
        <ele>473.59</ele>
        <time>2018-04-02T10:07:30Z</time>
      </trkpt>
      <trkpt lat="48.21727" lon="6.7763">
        <ele>473.59</ele>
        <time>2018-04-02T10:07:35Z</time>
      </trkpt>
      <trkpt lat="48.2172" lon="6.77623">
        <ele>473.11</ele>
        <time>2018-04-02T10:07:39Z</time>
      </trkpt>
      <trkpt lat="48.21707" lon="6.77611">
        <ele>472.14</ele>
        <time>2018-04-02T10:07:43Z</time>
      </trkpt>
      <trkpt lat="48.21699" lon="6.776">
        <ele>471.18</ele>
        <time>2018-04-02T10:07:46Z</time>
      </trkpt>
      <trkpt lat="48.21691" lon="6.77588">
        <ele>471.66</ele>
        <time>2018-04-02T10:07:48Z</time>
      </trkpt>
      <trkpt lat="48.21684" lon="6.77579">
        <ele>469.74</ele>
        <time>2018-04-02T10:07:50Z</time>
      </trkpt>
      <trkpt lat="48.2167" lon="6.77573">
        <ele>466.86</ele>
        <time>2018-04-02T10:07:52Z</time>
      </trkpt>
      <trkpt lat="48.21652" lon="6.77573">
        <ele>465.42</ele>
        <time>2018-04-02T10:07:54Z</time>
      </trkpt>
      <trkpt lat="48.21635" lon="6.77573">
        <ele>464.45</ele>
        <time>2018-04-02T10:07:56Z</time>
      </trkpt>
      <trkpt lat="48.21626" lon="6.77573">
        <ele>463.49</ele>
        <time>2018-04-02T10:07:57Z</time>
      </trkpt>
      <trkpt lat="48.21617" lon="6.77573">
        <ele>463.97</ele>
        <time>2018-04-02T10:07:58Z</time>
      </trkpt>
      <trkpt lat="48.21602" lon="6.77567">
        <ele>463.97</ele>
        <time>2018-04-02T10:08:00Z</time>
      </trkpt>
      <trkpt lat="48.21591" lon="6.77559">
        <ele>463.49</ele>
        <time>2018-04-02T10:08:02Z</time>
      </trkpt>
      <trkpt lat="48.21586" lon="6.77546">
        <ele>463.01</ele>
        <time>2018-04-02T10:08:03Z</time>
      </trkpt>
      <trkpt lat="48.21587" lon="6.77528">
        <ele>462.05</ele>
        <time>2018-04-02T10:08:05Z</time>
      </trkpt>
      <trkpt lat="48.21589" lon="6.77512">
        <ele>460.61</ele>
        <time>2018-04-02T10:08:06Z</time>
      </trkpt>
      <trkpt lat="48.21592" lon="6.77494">
        <ele>459.65</ele>
        <time>2018-04-02T10:08:08Z</time>
      </trkpt>
      <trkpt lat="48.21596" lon="6.77477">
        <ele>459.17</ele>
        <time>2018-04-02T10:08:09Z</time>
      </trkpt>
      <trkpt lat="48.21602" lon="6.77456">
        <ele>458.69</ele>
        <time>2018-04-02T10:08:11Z</time>
      </trkpt>
      <trkpt lat="48.21603" lon="6.77438">
        <ele>457.24</ele>
        <time>2018-04-02T10:08:13Z</time>
      </trkpt>
      <trkpt lat="48.21597" lon="6.77426">
        <ele>456.76</ele>
        <time>2018-04-02T10:08:15Z</time>
      </trkpt>
      <trkpt lat="48.21587" lon="6.77419">
        <ele>455.8</ele>
        <time>2018-04-02T10:08:17Z</time>
      </trkpt>
      <trkpt lat="48.21575" lon="6.77415">
        <ele>454.84</ele>
        <time>2018-04-02T10:08:19Z</time>
      </trkpt>
      <trkpt lat="48.21562" lon="6.7741">
        <ele>453.88</ele>
        <time>2018-04-02T10:08:21Z</time>
      </trkpt>
      <trkpt lat="48.21551" lon="6.77404">
        <ele>453.88</ele>
        <time>2018-04-02T10:08:23Z</time>
      </trkpt>
      <trkpt lat="48.21544" lon="6.7739">
        <ele>453.4</ele>
        <time>2018-04-02T10:08:24Z</time>
      </trkpt>
      <trkpt lat="48.2154" lon="6.77375">
        <ele>453.4</ele>
        <time>2018-04-02T10:08:26Z</time>
      </trkpt>
      <trkpt lat="48.21545" lon="6.77359">
        <ele>453.4</ele>
        <time>2018-04-02T10:08:28Z</time>
      </trkpt>
      <trkpt lat="48.21553" lon="6.77349">
        <ele>452.44</ele>
        <time>2018-04-02T10:08:30Z</time>
      </trkpt>
      <trkpt lat="48.21566" lon="6.7734">
        <ele>451</ele>
        <time>2018-04-02T10:08:32Z</time>
      </trkpt>
      <trkpt lat="48.21577" lon="6.77333">
        <ele>449.55</ele>
        <time>2018-04-02T10:08:34Z</time>
      </trkpt>
      <trkpt lat="48.2159" lon="6.77334">
        <ele>448.59</ele>
        <time>2018-04-02T10:08:36Z</time>
      </trkpt>
      <trkpt lat="48.21602" lon="6.77339">
        <ele>447.63</ele>
        <time>2018-04-02T10:08:38Z</time>
      </trkpt>
      <trkpt lat="48.21614" lon="6.77347">
        <ele>445.71</ele>
        <time>2018-04-02T10:08:40Z</time>
      </trkpt>
      <trkpt lat="48.21628" lon="6.77352">
        <ele>444.27</ele>
        <time>2018-04-02T10:08:42Z</time>
      </trkpt>
      <trkpt lat="48.21638" lon="6.77351">
        <ele>442.82</ele>
        <time>2018-04-02T10:08:44Z</time>
      </trkpt>
      <trkpt lat="48.21649" lon="6.77348">
        <ele>441.38</ele>
        <time>2018-04-02T10:08:46Z</time>
      </trkpt>
      <trkpt lat="48.21659" lon="6.77342">
        <ele>440.9</ele>
        <time>2018-04-02T10:08:48Z</time>
      </trkpt>
      <trkpt lat="48.21669" lon="6.77333">
        <ele>439.94</ele>
        <time>2018-04-02T10:08:50Z</time>
      </trkpt>
      <trkpt lat="48.21682" lon="6.77323">
        <ele>437.54</ele>
        <time>2018-04-02T10:08:52Z</time>
      </trkpt>
      <trkpt lat="48.21695" lon="6.77315">
        <ele>437.06</ele>
        <time>2018-04-02T10:08:54Z</time>
      </trkpt>
      <trkpt lat="48.21706" lon="6.77305">
        <ele>436.1</ele>
        <time>2018-04-02T10:08:56Z</time>
      </trkpt>
      <trkpt lat="48.21715" lon="6.77293">
        <ele>437.54</ele>
        <time>2018-04-02T10:08:59Z</time>
      </trkpt>
      <trkpt lat="48.21726" lon="6.7728">
        <ele>437.54</ele>
        <time>2018-04-02T10:09:02Z</time>
      </trkpt>
      <trkpt lat="48.21736" lon="6.77269">
        <ele>436.58</ele>
        <time>2018-04-02T10:09:04Z</time>
      </trkpt>
      <trkpt lat="48.21746" lon="6.77256">
        <ele>435.61</ele>
        <time>2018-04-02T10:09:06Z</time>
      </trkpt>
      <trkpt lat="48.21755" lon="6.77241">
        <ele>435.13</ele>
        <time>2018-04-02T10:09:08Z</time>
      </trkpt>
      <trkpt lat="48.21761" lon="6.77231">
        <ele>434.17</ele>
        <time>2018-04-02T10:09:09Z</time>
      </trkpt>
      <trkpt lat="48.21769" lon="6.77221">
        <ele>434.17</ele>
        <time>2018-04-02T10:09:11Z</time>
      </trkpt>
      <trkpt lat="48.21776" lon="6.7721">
        <ele>434.65</ele>
        <time>2018-04-02T10:09:12Z</time>
      </trkpt>
      <trkpt lat="48.21783" lon="6.77195">
        <ele>435.13</ele>
        <time>2018-04-02T10:09:14Z</time>
      </trkpt>
      <trkpt lat="48.2179" lon="6.77179">
        <ele>434.65</ele>
        <time>2018-04-02T10:09:16Z</time>
      </trkpt>
      <trkpt lat="48.21796" lon="6.77164">
        <ele>434.65</ele>
        <time>2018-04-02T10:09:18Z</time>
      </trkpt>
      <trkpt lat="48.21803" lon="6.77149">
        <ele>434.65</ele>
        <time>2018-04-02T10:09:20Z</time>
      </trkpt>
      <trkpt lat="48.21792" lon="6.77121">
        <ele>434.17</ele>
        <time>2018-04-02T10:09:22Z</time>
      </trkpt>
      <trkpt lat="48.21777" lon="6.771">
        <ele>433.69</ele>
        <time>2018-04-02T10:09:26Z</time>
      </trkpt>
      <trkpt lat="48.21776" lon="6.77102">
        <ele>434.17</ele>
        <time>2018-04-02T10:09:36Z</time>
      </trkpt>
      <trkpt lat="48.21776" lon="6.77093">
        <ele>433.21</ele>
        <time>2018-04-02T10:09:43Z</time>
      </trkpt>
      <trkpt lat="48.21768" lon="6.77096">
        <ele>434.17</ele>
        <time>2018-04-02T10:09:50Z</time>
      </trkpt>
      <trkpt lat="48.21759" lon="6.77102">
        <ele>435.13</ele>
        <time>2018-04-02T10:10:04Z</time>
      </trkpt>
      <trkpt lat="48.21751" lon="6.77109">
        <ele>436.1</ele>
        <time>2018-04-02T10:10:12Z</time>
      </trkpt>
      <trkpt lat="48.21742" lon="6.77115">
        <ele>437.06</ele>
        <time>2018-04-02T10:10:20Z</time>
      </trkpt>
      <trkpt lat="48.21733" lon="6.77122">
        <ele>438.5</ele>
        <time>2018-04-02T10:10:25Z</time>
      </trkpt>
      <trkpt lat="48.21725" lon="6.77129">
        <ele>440.42</ele>
        <time>2018-04-02T10:10:32Z</time>
      </trkpt>
      <trkpt lat="48.21715" lon="6.77135">
        <ele>441.86</ele>
        <time>2018-04-02T10:10:39Z</time>
      </trkpt>
      <trkpt lat="48.21705" lon="6.77141">
        <ele>443.79</ele>
        <time>2018-04-02T10:10:46Z</time>
      </trkpt>
      <trkpt lat="48.21695" lon="6.77146">
        <ele>444.27</ele>
        <time>2018-04-02T10:10:52Z</time>
      </trkpt>
      <trkpt lat="48.21685" lon="6.7715">
        <ele>445.71</ele>
        <time>2018-04-02T10:10:59Z</time>
      </trkpt>
      <trkpt lat="48.21676" lon="6.77154">
        <ele>445.71</ele>
        <time>2018-04-02T10:11:04Z</time>
      </trkpt>
      <trkpt lat="48.21665" lon="6.77159">
        <ele>447.15</ele>
        <time>2018-04-02T10:11:10Z</time>
      </trkpt>
      <trkpt lat="48.21656" lon="6.77163">
        <ele>447.63</ele>
        <time>2018-04-02T10:11:15Z</time>
      </trkpt>
      <trkpt lat="48.21647" lon="6.77168">
        <ele>448.59</ele>
        <time>2018-04-02T10:11:20Z</time>
      </trkpt>
      <trkpt lat="48.21638" lon="6.77175">
        <ele>449.07</ele>
        <time>2018-04-02T10:11:26Z</time>
      </trkpt>
      <trkpt lat="48.2163" lon="6.7718">
        <ele>449.07</ele>
        <time>2018-04-02T10:11:31Z</time>
      </trkpt>
      <trkpt lat="48.21622" lon="6.77185">
        <ele>449.55</ele>
        <time>2018-04-02T10:11:38Z</time>
      </trkpt>
      <trkpt lat="48.2161" lon="6.77191">
        <ele>450.03</ele>
        <time>2018-04-02T10:11:45Z</time>
      </trkpt>
      <trkpt lat="48.21593" lon="6.77194">
        <ele>450.03</ele>
        <time>2018-04-02T10:13:08Z</time>
      </trkpt>
      <trkpt lat="48.21586" lon="6.77199">
        <ele>450.52</ele>
        <time>2018-04-02T10:13:14Z</time>
      </trkpt>
      <trkpt lat="48.21576" lon="6.77203">
        <ele>450.52</ele>
        <time>2018-04-02T10:13:18Z</time>
      </trkpt>
      <trkpt lat="48.21567" lon="6.77207">
        <ele>451</ele>
        <time>2018-04-02T10:13:22Z</time>
      </trkpt>
      <trkpt lat="48.21559" lon="6.77211">
        <ele>451.96</ele>
        <time>2018-04-02T10:13:26Z</time>
      </trkpt>
      <trkpt lat="48.2155" lon="6.77214">
        <ele>452.44</ele>
        <time>2018-04-02T10:13:31Z</time>
      </trkpt>
      <trkpt lat="48.21541" lon="6.77216">
        <ele>453.88</ele>
        <time>2018-04-02T10:13:37Z</time>
      </trkpt>
      <trkpt lat="48.21532" lon="6.77219">
        <ele>455.8</ele>
        <time>2018-04-02T10:13:44Z</time>
      </trkpt>
      <trkpt lat="48.21523" lon="6.77218">
        <ele>456.76</ele>
        <time>2018-04-02T10:13:52Z</time>
      </trkpt>
      <trkpt lat="48.21514" lon="6.77214">
        <ele>457.72</ele>
        <time>2018-04-02T10:14:01Z</time>
      </trkpt>
      <trkpt lat="48.21505" lon="6.77207">
        <ele>458.21</ele>
        <time>2018-04-02T10:14:09Z</time>
      </trkpt>
      <trkpt lat="48.21495" lon="6.77202">
        <ele>459.17</ele>
        <time>2018-04-02T10:14:17Z</time>
      </trkpt>
      <trkpt lat="48.21484" lon="6.77196">
        <ele>460.61</ele>
        <time>2018-04-02T10:14:26Z</time>
      </trkpt>
      <trkpt lat="48.21476" lon="6.77185">
        <ele>461.09</ele>
        <time>2018-04-02T10:14:35Z</time>
      </trkpt>
      <trkpt lat="48.21472" lon="6.77171">
        <ele>461.57</ele>
        <time>2018-04-02T10:14:44Z</time>
      </trkpt>
      <trkpt lat="48.21463" lon="6.77156">
        <ele>462.53</ele>
        <time>2018-04-02T10:14:55Z</time>
      </trkpt>
      <trkpt lat="48.21453" lon="6.77147">
        <ele>464.93</ele>
        <time>2018-04-02T10:15:03Z</time>
      </trkpt>
      <trkpt lat="48.21443" lon="6.77136">
        <ele>467.34</ele>
        <time>2018-04-02T10:15:12Z</time>
      </trkpt>
      <trkpt lat="48.21434" lon="6.7712">
        <ele>469.26</ele>
        <time>2018-04-02T10:15:18Z</time>
      </trkpt>
      <trkpt lat="48.21427" lon="6.77103">
        <ele>470.22</ele>
        <time>2018-04-02T10:15:26Z</time>
      </trkpt>
      <trkpt lat="48.21418" lon="6.77088">
        <ele>471.18</ele>
        <time>2018-04-02T10:15:32Z</time>
      </trkpt>
      <trkpt lat="48.21409" lon="6.77075">
        <ele>472.63</ele>
        <time>2018-04-02T10:15:38Z</time>
      </trkpt>
      <trkpt lat="48.214" lon="6.77066">
        <ele>473.59</ele>
        <time>2018-04-02T10:15:44Z</time>
      </trkpt>
      <trkpt lat="48.2139" lon="6.77059">
        <ele>474.55</ele>
        <time>2018-04-02T10:15:50Z</time>
      </trkpt>
      <trkpt lat="48.21382" lon="6.77051">
        <ele>475.03</ele>
        <time>2018-04-02T10:15:56Z</time>
      </trkpt>
      <trkpt lat="48.21372" lon="6.77044">
        <ele>475.51</ele>
        <time>2018-04-02T10:16:02Z</time>
      </trkpt>
      <trkpt lat="48.21363" lon="6.77038">
        <ele>475.99</ele>
        <time>2018-04-02T10:16:07Z</time>
      </trkpt>
      <trkpt lat="48.21353" lon="6.77032">
        <ele>475.03</ele>
        <time>2018-04-02T10:16:12Z</time>
      </trkpt>
      <trkpt lat="48.21342" lon="6.77023">
        <ele>474.55</ele>
        <time>2018-04-02T10:16:16Z</time>
      </trkpt>
      <trkpt lat="48.21334" lon="6.77017">
        <ele>473.59</ele>
        <time>2018-04-02T10:16:18Z</time>
      </trkpt>
      <trkpt lat="48.21326" lon="6.77009">
        <ele>473.11</ele>
        <time>2018-04-02T10:16:20Z</time>
      </trkpt>
      <trkpt lat="48.21318" lon="6.76997">
        <ele>473.11</ele>
        <time>2018-04-02T10:16:22Z</time>
      </trkpt>
      <trkpt lat="48.21315" lon="6.76983">
        <ele>473.11</ele>
        <time>2018-04-02T10:16:24Z</time>
      </trkpt>
      <trkpt lat="48.21314" lon="6.76968">
        <ele>473.11</ele>
        <time>2018-04-02T10:16:26Z</time>
      </trkpt>
      <trkpt lat="48.21313" lon="6.76949">
        <ele>473.59</ele>
        <time>2018-04-02T10:16:29Z</time>
      </trkpt>
      <trkpt lat="48.21308" lon="6.7693">
        <ele>474.07</ele>
        <time>2018-04-02T10:16:32Z</time>
      </trkpt>
      <trkpt lat="48.21302" lon="6.76919">
        <ele>474.55</ele>
        <time>2018-04-02T10:16:34Z</time>
      </trkpt>
      <trkpt lat="48.21291" lon="6.76907">
        <ele>474.55</ele>
        <time>2018-04-02T10:16:37Z</time>
      </trkpt>
      <trkpt lat="48.21282" lon="6.769">
        <ele>475.03</ele>
        <time>2018-04-02T10:16:39Z</time>
      </trkpt>
      <trkpt lat="48.2127" lon="6.76892">
        <ele>475.99</ele>
        <time>2018-04-02T10:16:42Z</time>
      </trkpt>
      <trkpt lat="48.21261" lon="6.7688">
        <ele>476.47</ele>
        <time>2018-04-02T10:16:45Z</time>
      </trkpt>
      <trkpt lat="48.21254" lon="6.76863">
        <ele>476.95</ele>
        <time>2018-04-02T10:16:48Z</time>
      </trkpt>
      <trkpt lat="48.21248" lon="6.76846">
        <ele>477.43</ele>
        <time>2018-04-02T10:16:51Z</time>
      </trkpt>
      <trkpt lat="48.21243" lon="6.76831">
        <ele>478.39</ele>
        <time>2018-04-02T10:16:54Z</time>
      </trkpt>
      <trkpt lat="48.21238" lon="6.76818">
        <ele>478.39</ele>
        <time>2018-04-02T10:16:57Z</time>
      </trkpt>
      <trkpt lat="48.21234" lon="6.76806">
        <ele>479.35</ele>
        <time>2018-04-02T10:17:00Z</time>
      </trkpt>
      <trkpt lat="48.21229" lon="6.76793">
        <ele>479.84</ele>
        <time>2018-04-02T10:17:03Z</time>
      </trkpt>
      <trkpt lat="48.21222" lon="6.76779">
        <ele>480.32</ele>
        <time>2018-04-02T10:17:07Z</time>
      </trkpt>
      <trkpt lat="48.21211" lon="6.76771">
        <ele>481.76</ele>
        <time>2018-04-02T10:17:12Z</time>
      </trkpt>
      <trkpt lat="48.21202" lon="6.76771">
        <ele>482.72</ele>
        <time>2018-04-02T10:17:16Z</time>
      </trkpt>
      <trkpt lat="48.21192" lon="6.76774">
        <ele>483.68</ele>
        <time>2018-04-02T10:17:21Z</time>
      </trkpt>
      <trkpt lat="48.21182" lon="6.76777">
        <ele>484.64</ele>
        <time>2018-04-02T10:17:26Z</time>
      </trkpt>
      <trkpt lat="48.21171" lon="6.76781">
        <ele>485.6</ele>
        <time>2018-04-02T10:17:31Z</time>
      </trkpt>
      <trkpt lat="48.21161" lon="6.76784">
        <ele>486.08</ele>
        <time>2018-04-02T10:17:35Z</time>
      </trkpt>
      <trkpt lat="48.21152" lon="6.76791">
        <ele>485.12</ele>
        <time>2018-04-02T10:17:40Z</time>
      </trkpt>
      <trkpt lat="48.2114" lon="6.76793">
        <ele>484.16</ele>
        <time>2018-04-02T10:17:43Z</time>
      </trkpt>
      <trkpt lat="48.21131" lon="6.76788">
        <ele>483.68</ele>
        <time>2018-04-02T10:17:45Z</time>
      </trkpt>
      <trkpt lat="48.21126" lon="6.76773">
        <ele>481.76</ele>
        <time>2018-04-02T10:17:47Z</time>
      </trkpt>
      <trkpt lat="48.21122" lon="6.76752">
        <ele>481.28</ele>
        <time>2018-04-02T10:17:49Z</time>
      </trkpt>
      <trkpt lat="48.21117" lon="6.76732">
        <ele>480.32</ele>
        <time>2018-04-02T10:17:51Z</time>
      </trkpt>
      <trkpt lat="48.21112" lon="6.76713">
        <ele>479.84</ele>
        <time>2018-04-02T10:17:53Z</time>
      </trkpt>
      <trkpt lat="48.21105" lon="6.76696">
        <ele>478.87</ele>
        <time>2018-04-02T10:17:55Z</time>
      </trkpt>
      <trkpt lat="48.21097" lon="6.76679">
        <ele>478.39</ele>
        <time>2018-04-02T10:17:57Z</time>
      </trkpt>
      <trkpt lat="48.21088" lon="6.76664">
        <ele>477.91</ele>
        <time>2018-04-02T10:17:59Z</time>
      </trkpt>
      <trkpt lat="48.21077" lon="6.7665">
        <ele>477.43</ele>
        <time>2018-04-02T10:18:01Z</time>
      </trkpt>
      <trkpt lat="48.21068" lon="6.76637">
        <ele>477.91</ele>
        <time>2018-04-02T10:18:03Z</time>
      </trkpt>
      <trkpt lat="48.21058" lon="6.76624">
        <ele>476.47</ele>
        <time>2018-04-02T10:18:05Z</time>
      </trkpt>
      <trkpt lat="48.21047" lon="6.76612">
        <ele>476.47</ele>
        <time>2018-04-02T10:18:07Z</time>
      </trkpt>
      <trkpt lat="48.21037" lon="6.766">
        <ele>476.47</ele>
        <time>2018-04-02T10:18:09Z</time>
      </trkpt>
      <trkpt lat="48.21027" lon="6.76587">
        <ele>475.99</ele>
        <time>2018-04-02T10:18:11Z</time>
      </trkpt>
      <trkpt lat="48.21019" lon="6.76573">
        <ele>475.99</ele>
        <time>2018-04-02T10:18:13Z</time>
      </trkpt>
      <trkpt lat="48.2101" lon="6.76555">
        <ele>474.07</ele>
        <time>2018-04-02T10:18:15Z</time>
      </trkpt>
      <trkpt lat="48.21002" lon="6.76538">
        <ele>472.63</ele>
        <time>2018-04-02T10:18:17Z</time>
      </trkpt>
      <trkpt lat="48.20993" lon="6.76521">
        <ele>473.59</ele>
        <time>2018-04-02T10:18:19Z</time>
      </trkpt>
      <trkpt lat="48.20982" lon="6.76506">
        <ele>472.14</ele>
        <time>2018-04-02T10:18:21Z</time>
      </trkpt>
      <trkpt lat="48.20969" lon="6.76495">
        <ele>471.66</ele>
        <time>2018-04-02T10:18:23Z</time>
      </trkpt>
      <trkpt lat="48.20955" lon="6.76492">
        <ele>470.22</ele>
        <time>2018-04-02T10:18:25Z</time>
      </trkpt>
      <trkpt lat="48.2094" lon="6.76493">
        <ele>469.26</ele>
        <time>2018-04-02T10:18:27Z</time>
      </trkpt>
      <trkpt lat="48.20928" lon="6.76484">
        <ele>469.74</ele>
        <time>2018-04-02T10:18:29Z</time>
      </trkpt>
      <trkpt lat="48.20915" lon="6.76472">
        <ele>468.78</ele>
        <time>2018-04-02T10:18:31Z</time>
      </trkpt>
      <trkpt lat="48.20903" lon="6.76461">
        <ele>468.78</ele>
        <time>2018-04-02T10:18:33Z</time>
      </trkpt>
      <trkpt lat="48.2089" lon="6.76452">
        <ele>468.3</ele>
        <time>2018-04-02T10:18:35Z</time>
      </trkpt>
      <trkpt lat="48.20879" lon="6.7644">
        <ele>468.78</ele>
        <time>2018-04-02T10:18:37Z</time>
      </trkpt>
      <trkpt lat="48.20872" lon="6.76425">
        <ele>469.74</ele>
        <time>2018-04-02T10:18:39Z</time>
      </trkpt>
      <trkpt lat="48.20871" lon="6.76409">
        <ele>470.22</ele>
        <time>2018-04-02T10:18:41Z</time>
      </trkpt>
      <trkpt lat="48.20873" lon="6.76394">
        <ele>470.22</ele>
        <time>2018-04-02T10:18:43Z</time>
      </trkpt>
      <trkpt lat="48.20876" lon="6.76378">
        <ele>470.22</ele>
        <time>2018-04-02T10:18:45Z</time>
      </trkpt>
      <trkpt lat="48.20879" lon="6.76364">
        <ele>470.22</ele>
        <time>2018-04-02T10:18:47Z</time>
      </trkpt>
      <trkpt lat="48.20884" lon="6.76351">
        <ele>469.74</ele>
        <time>2018-04-02T10:18:49Z</time>
      </trkpt>
      <trkpt lat="48.2089" lon="6.76335">
        <ele>470.7</ele>
        <time>2018-04-02T10:18:52Z</time>
      </trkpt>
      <trkpt lat="48.20894" lon="6.76319">
        <ele>471.18</ele>
        <time>2018-04-02T10:18:55Z</time>
      </trkpt>
      <trkpt lat="48.20898" lon="6.76304">
        <ele>470.7</ele>
        <time>2018-04-02T10:18:58Z</time>
      </trkpt>
      <trkpt lat="48.20901" lon="6.76287">
        <ele>470.22</ele>
        <time>2018-04-02T10:19:01Z</time>
      </trkpt>
      <trkpt lat="48.20904" lon="6.76269">
        <ele>469.74</ele>
        <time>2018-04-02T10:19:04Z</time>
      </trkpt>
      <trkpt lat="48.20905" lon="6.76255">
        <ele>469.74</ele>
        <time>2018-04-02T10:19:06Z</time>
      </trkpt>
      <trkpt lat="48.20906" lon="6.76234">
        <ele>469.26</ele>
        <time>2018-04-02T10:19:09Z</time>
      </trkpt>
      <trkpt lat="48.20905" lon="6.7622">
        <ele>468.78</ele>
        <time>2018-04-02T10:19:11Z</time>
      </trkpt>
      <trkpt lat="48.20904" lon="6.76206">
        <ele>468.78</ele>
        <time>2018-04-02T10:19:13Z</time>
      </trkpt>
      <trkpt lat="48.20902" lon="6.76191">
        <ele>468.78</ele>
        <time>2018-04-02T10:19:15Z</time>
      </trkpt>
      <trkpt lat="48.20901" lon="6.76175">
        <ele>468.3</ele>
        <time>2018-04-02T10:19:17Z</time>
      </trkpt>
      <trkpt lat="48.209" lon="6.76159">
        <ele>467.34</ele>
        <time>2018-04-02T10:19:19Z</time>
      </trkpt>
      <trkpt lat="48.209" lon="6.76142">
        <ele>466.86</ele>
        <time>2018-04-02T10:19:21Z</time>
      </trkpt>
      <trkpt lat="48.20901" lon="6.76124">
        <ele>466.38</ele>
        <time>2018-04-02T10:19:23Z</time>
      </trkpt>
      <trkpt lat="48.20902" lon="6.76108">
        <ele>465.9</ele>
        <time>2018-04-02T10:19:25Z</time>
      </trkpt>
      <trkpt lat="48.209" lon="6.76093">
        <ele>465.42</ele>
        <time>2018-04-02T10:19:27Z</time>
      </trkpt>
      <trkpt lat="48.20896" lon="6.76079">
        <ele>465.9</ele>
        <time>2018-04-02T10:19:29Z</time>
      </trkpt>
      <trkpt lat="48.2089" lon="6.76066">
        <ele>465.9</ele>
        <time>2018-04-02T10:19:31Z</time>
      </trkpt>
      <trkpt lat="48.20883" lon="6.76054">
        <ele>465.42</ele>
        <time>2018-04-02T10:19:33Z</time>
      </trkpt>
      <trkpt lat="48.20877" lon="6.76043">
        <ele>465.9</ele>
        <time>2018-04-02T10:19:35Z</time>
      </trkpt>
      <trkpt lat="48.20869" lon="6.76033">
        <ele>465.42</ele>
        <time>2018-04-02T10:19:37Z</time>
      </trkpt>
      <trkpt lat="48.20862" lon="6.76024">
        <ele>465.9</ele>
        <time>2018-04-02T10:19:39Z</time>
      </trkpt>
      <trkpt lat="48.20856" lon="6.76014">
        <ele>465.42</ele>
        <time>2018-04-02T10:19:41Z</time>
      </trkpt>
      <trkpt lat="48.2085" lon="6.76003">
        <ele>465.9</ele>
        <time>2018-04-02T10:19:43Z</time>
      </trkpt>
      <trkpt lat="48.20845" lon="6.75991">
        <ele>465.9</ele>
        <time>2018-04-02T10:19:46Z</time>
      </trkpt>
      <trkpt lat="48.20837" lon="6.75982">
        <ele>465.42</ele>
        <time>2018-04-02T10:19:49Z</time>
      </trkpt>
      <trkpt lat="48.20828" lon="6.75972">
        <ele>464.93</ele>
        <time>2018-04-02T10:19:52Z</time>
      </trkpt>
      <trkpt lat="48.20817" lon="6.75963">
        <ele>464.45</ele>
        <time>2018-04-02T10:19:55Z</time>
      </trkpt>
      <trkpt lat="48.20809" lon="6.75957">
        <ele>463.01</ele>
        <time>2018-04-02T10:19:57Z</time>
      </trkpt>
      <trkpt lat="48.20797" lon="6.75949">
        <ele>462.53</ele>
        <time>2018-04-02T10:20:00Z</time>
      </trkpt>
      <trkpt lat="48.20787" lon="6.75944">
        <ele>462.05</ele>
        <time>2018-04-02T10:20:02Z</time>
      </trkpt>
      <trkpt lat="48.20777" lon="6.75942">
        <ele>462.05</ele>
        <time>2018-04-02T10:20:04Z</time>
      </trkpt>
      <trkpt lat="48.20767" lon="6.75937">
        <ele>461.57</ele>
        <time>2018-04-02T10:20:06Z</time>
      </trkpt>
      <trkpt lat="48.20756" lon="6.75931">
        <ele>460.13</ele>
        <time>2018-04-02T10:20:08Z</time>
      </trkpt>
      <trkpt lat="48.20743" lon="6.75922">
        <ele>459.65</ele>
        <time>2018-04-02T10:20:10Z</time>
      </trkpt>
      <trkpt lat="48.20732" lon="6.75907">
        <ele>459.17</ele>
        <time>2018-04-02T10:20:12Z</time>
      </trkpt>
      <trkpt lat="48.20724" lon="6.75889">
        <ele>459.17</ele>
        <time>2018-04-02T10:20:14Z</time>
      </trkpt>
      <trkpt lat="48.20714" lon="6.75876">
        <ele>459.17</ele>
        <time>2018-04-02T10:20:16Z</time>
      </trkpt>
      <trkpt lat="48.20704" lon="6.75866">
        <ele>459.17</ele>
        <time>2018-04-02T10:20:18Z</time>
      </trkpt>
      <trkpt lat="48.20697" lon="6.75853">
        <ele>459.17</ele>
        <time>2018-04-02T10:20:20Z</time>
      </trkpt>
      <trkpt lat="48.2069" lon="6.75839">
        <ele>459.17</ele>
        <time>2018-04-02T10:20:22Z</time>
      </trkpt>
      <trkpt lat="48.20685" lon="6.75825">
        <ele>458.69</ele>
        <time>2018-04-02T10:20:24Z</time>
      </trkpt>
      <trkpt lat="48.20677" lon="6.75813">
        <ele>457.72</ele>
        <time>2018-04-02T10:20:26Z</time>
      </trkpt>
      <trkpt lat="48.20666" lon="6.758">
        <ele>456.28</ele>
        <time>2018-04-02T10:20:28Z</time>
      </trkpt>
      <trkpt lat="48.20654" lon="6.75787">
        <ele>454.36</ele>
        <time>2018-04-02T10:20:30Z</time>
      </trkpt>
      <trkpt lat="48.20642" lon="6.75778">
        <ele>454.84</ele>
        <time>2018-04-02T10:20:32Z</time>
      </trkpt>
      <trkpt lat="48.2063" lon="6.75772">
        <ele>454.84</ele>
        <time>2018-04-02T10:20:34Z</time>
      </trkpt>
      <trkpt lat="48.2062" lon="6.75768">
        <ele>455.32</ele>
        <time>2018-04-02T10:20:36Z</time>
      </trkpt>
      <trkpt lat="48.20609" lon="6.75765">
        <ele>455.32</ele>
        <time>2018-04-02T10:20:38Z</time>
      </trkpt>
      <trkpt lat="48.20596" lon="6.75761">
        <ele>455.32</ele>
        <time>2018-04-02T10:20:41Z</time>
      </trkpt>
      <trkpt lat="48.20587" lon="6.75758">
        <ele>455.8</ele>
        <time>2018-04-02T10:20:43Z</time>
      </trkpt>
      <trkpt lat="48.20576" lon="6.75755">
        <ele>456.28</ele>
        <time>2018-04-02T10:20:47Z</time>
      </trkpt>
      <trkpt lat="48.20565" lon="6.75751">
        <ele>456.28</ele>
        <time>2018-04-02T10:20:50Z</time>
      </trkpt>
      <trkpt lat="48.20557" lon="6.75739">
        <ele>455.8</ele>
        <time>2018-04-02T10:20:53Z</time>
      </trkpt>
      <trkpt lat="48.20553" lon="6.75719">
        <ele>455.32</ele>
        <time>2018-04-02T10:20:56Z</time>
      </trkpt>
      <trkpt lat="48.20551" lon="6.75701">
        <ele>455.32</ele>
        <time>2018-04-02T10:20:59Z</time>
      </trkpt>
      <trkpt lat="48.20548" lon="6.75687">
        <ele>456.28</ele>
        <time>2018-04-02T10:21:03Z</time>
      </trkpt>
      <trkpt lat="48.20543" lon="6.75668">
        <ele>459.17</ele>
        <time>2018-04-02T10:21:14Z</time>
      </trkpt>
      <trkpt lat="48.20533" lon="6.75651">
        <ele>461.09</ele>
        <time>2018-04-02T10:21:23Z</time>
      </trkpt>
      <trkpt lat="48.20527" lon="6.75636">
        <ele>463.01</ele>
        <time>2018-04-02T10:21:32Z</time>
      </trkpt>
      <trkpt lat="48.20521" lon="6.75618">
        <ele>464.45</ele>
        <time>2018-04-02T10:21:43Z</time>
      </trkpt>
      <trkpt lat="48.20519" lon="6.75594">
        <ele>465.9</ele>
        <time>2018-04-02T10:21:53Z</time>
      </trkpt>
      <trkpt lat="48.20516" lon="6.75577">
        <ele>466.86</ele>
        <time>2018-04-02T10:22:02Z</time>
      </trkpt>
      <trkpt lat="48.20515" lon="6.75559">
        <ele>468.78</ele>
        <time>2018-04-02T10:22:11Z</time>
      </trkpt>
      <trkpt lat="48.20507" lon="6.75541">
        <ele>469.74</ele>
        <time>2018-04-02T10:22:18Z</time>
      </trkpt>
      <trkpt lat="48.20502" lon="6.75522">
        <ele>471.18</ele>
        <time>2018-04-02T10:22:26Z</time>
      </trkpt>
      <trkpt lat="48.20495" lon="6.75507">
        <ele>472.63</ele>
        <time>2018-04-02T10:22:33Z</time>
      </trkpt>
      <trkpt lat="48.20489" lon="6.75493">
        <ele>473.59</ele>
        <time>2018-04-02T10:22:39Z</time>
      </trkpt>
      <trkpt lat="48.20487" lon="6.75479">
        <ele>474.55</ele>
        <time>2018-04-02T10:22:46Z</time>
      </trkpt>
      <trkpt lat="48.20486" lon="6.75464">
        <ele>475.51</ele>
        <time>2018-04-02T10:22:54Z</time>
      </trkpt>
      <trkpt lat="48.20494" lon="6.75452">
        <ele>475.99</ele>
        <time>2018-04-02T10:23:02Z</time>
      </trkpt>
      <trkpt lat="48.20502" lon="6.75444">
        <ele>476.47</ele>
        <time>2018-04-02T10:23:08Z</time>
      </trkpt>
      <trkpt lat="48.20512" lon="6.75438">
        <ele>477.91</ele>
        <time>2018-04-02T10:23:14Z</time>
      </trkpt>
      <trkpt lat="48.20521" lon="6.75433">
        <ele>478.39</ele>
        <time>2018-04-02T10:23:18Z</time>
      </trkpt>
      <trkpt lat="48.20527" lon="6.75424">
        <ele>479.35</ele>
        <time>2018-04-02T10:23:23Z</time>
      </trkpt>
      <trkpt lat="48.20532" lon="6.75416">
        <ele>480.32</ele>
        <time>2018-04-02T10:23:28Z</time>
      </trkpt>
      <trkpt lat="48.20532" lon="6.75401">
        <ele>480.8</ele>
        <time>2018-04-02T10:23:34Z</time>
      </trkpt>
      <trkpt lat="48.20526" lon="6.75379">
        <ele>481.76</ele>
        <time>2018-04-02T10:23:42Z</time>
      </trkpt>
      <trkpt lat="48.20523" lon="6.75362">
        <ele>482.72</ele>
        <time>2018-04-02T10:23:50Z</time>
      </trkpt>
      <trkpt lat="48.20511" lon="6.75351">
        <ele>486.08</ele>
        <time>2018-04-02T10:24:03Z</time>
      </trkpt>
      <trkpt lat="48.20495" lon="6.7534">
        <ele>487.05</ele>
        <time>2018-04-02T10:24:11Z</time>
      </trkpt>
      <trkpt lat="48.20478" lon="6.75329">
        <ele>487.53</ele>
        <time>2018-04-02T10:24:18Z</time>
      </trkpt>
      <trkpt lat="48.20465" lon="6.75326">
        <ele>488.01</ele>
        <time>2018-04-02T10:24:27Z</time>
      </trkpt>
      <trkpt lat="48.20463" lon="6.75325">
        <ele>488.49</ele>
        <time>2018-04-02T10:25:04Z</time>
      </trkpt>
      <trkpt lat="48.20464" lon="6.75324">
        <ele>488.49</ele>
        <time>2018-04-02T10:26:22Z</time>
      </trkpt>
      <trkpt lat="48.20456" lon="6.75319">
        <ele>489.93</ele>
        <time>2018-04-02T10:27:50Z</time>
      </trkpt>
      <trkpt lat="48.20442" lon="6.75313">
        <ele>490.41</ele>
        <time>2018-04-02T10:28:01Z</time>
      </trkpt>
      <trkpt lat="48.20421" lon="6.75313">
        <ele>489.93</ele>
        <time>2018-04-02T10:28:12Z</time>
      </trkpt>
      <trkpt lat="48.20405" lon="6.75316">
        <ele>490.41</ele>
        <time>2018-04-02T10:28:18Z</time>
      </trkpt>
      <trkpt lat="48.20391" lon="6.75318">
        <ele>490.41</ele>
        <time>2018-04-02T10:28:23Z</time>
      </trkpt>
      <trkpt lat="48.20378" lon="6.75319">
        <ele>490.41</ele>
        <time>2018-04-02T10:28:28Z</time>
      </trkpt>
      <trkpt lat="48.20361" lon="6.75319">
        <ele>491.85</ele>
        <time>2018-04-02T10:28:37Z</time>
      </trkpt>
      <trkpt lat="48.20342" lon="6.75328">
        <ele>493.77</ele>
        <time>2018-04-02T10:28:46Z</time>
      </trkpt>
      <trkpt lat="48.20331" lon="6.75321">
        <ele>493.77</ele>
        <time>2018-04-02T10:28:55Z</time>
      </trkpt>
      <trkpt lat="48.20324" lon="6.75307">
        <ele>494.26</ele>
        <time>2018-04-02T10:29:00Z</time>
      </trkpt>
      <trkpt lat="48.20317" lon="6.75288">
        <ele>493.77</ele>
        <time>2018-04-02T10:29:04Z</time>
      </trkpt>
      <trkpt lat="48.20314" lon="6.75271">
        <ele>493.77</ele>
        <time>2018-04-02T10:29:07Z</time>
      </trkpt>
      <trkpt lat="48.2031" lon="6.75254">
        <ele>493.77</ele>
        <time>2018-04-02T10:29:10Z</time>
      </trkpt>
      <trkpt lat="48.20304" lon="6.7524">
        <ele>493.29</ele>
        <time>2018-04-02T10:29:13Z</time>
      </trkpt>
      <trkpt lat="48.20298" lon="6.75223">
        <ele>493.77</ele>
        <time>2018-04-02T10:29:16Z</time>
      </trkpt>
      <trkpt lat="48.20285" lon="6.7521">
        <ele>493.77</ele>
        <time>2018-04-02T10:29:20Z</time>
      </trkpt>
      <trkpt lat="48.20269" lon="6.75196">
        <ele>492.33</ele>
        <time>2018-04-02T10:29:30Z</time>
      </trkpt>
      <trkpt lat="48.20261" lon="6.75184">
        <ele>491.37</ele>
        <time>2018-04-02T10:29:36Z</time>
      </trkpt>
      <trkpt lat="48.20253" lon="6.7517">
        <ele>490.41</ele>
        <time>2018-04-02T10:29:40Z</time>
      </trkpt>
      <trkpt lat="48.20248" lon="6.75156">
        <ele>488.49</ele>
        <time>2018-04-02T10:29:43Z</time>
      </trkpt>
      <trkpt lat="48.20244" lon="6.75134">
        <ele>485.6</ele>
        <time>2018-04-02T10:29:46Z</time>
      </trkpt>
      <trkpt lat="48.20242" lon="6.75118">
        <ele>483.2</ele>
        <time>2018-04-02T10:29:48Z</time>
      </trkpt>
      <trkpt lat="48.20239" lon="6.75095">
        <ele>480.32</ele>
        <time>2018-04-02T10:29:50Z</time>
      </trkpt>
      <trkpt lat="48.20237" lon="6.7507">
        <ele>478.39</ele>
        <time>2018-04-02T10:29:52Z</time>
      </trkpt>
      <trkpt lat="48.20236" lon="6.75051">
        <ele>477.43</ele>
        <time>2018-04-02T10:29:53Z</time>
      </trkpt>
      <trkpt lat="48.20235" lon="6.75032">
        <ele>475.51</ele>
        <time>2018-04-02T10:29:55Z</time>
      </trkpt>
      <trkpt lat="48.20237" lon="6.75003">
        <ele>474.55</ele>
        <time>2018-04-02T10:29:57Z</time>
      </trkpt>
      <trkpt lat="48.20238" lon="6.74988">
        <ele>474.55</ele>
        <time>2018-04-02T10:29:58Z</time>
      </trkpt>
      <trkpt lat="48.20239" lon="6.74973">
        <ele>474.07</ele>
        <time>2018-04-02T10:29:59Z</time>
      </trkpt>
      <trkpt lat="48.20248" lon="6.74947">
        <ele>473.59</ele>
        <time>2018-04-02T10:30:01Z</time>
      </trkpt>
      <trkpt lat="48.20256" lon="6.74925">
        <ele>473.59</ele>
        <time>2018-04-02T10:30:03Z</time>
      </trkpt>
      <trkpt lat="48.20261" lon="6.74905">
        <ele>473.59</ele>
        <time>2018-04-02T10:30:05Z</time>
      </trkpt>
      <trkpt lat="48.20264" lon="6.74892">
        <ele>474.07</ele>
        <time>2018-04-02T10:30:07Z</time>
      </trkpt>
      <trkpt lat="48.20269" lon="6.74874">
        <ele>475.51</ele>
        <time>2018-04-02T10:30:11Z</time>
      </trkpt>
      <trkpt lat="48.20274" lon="6.74851">
        <ele>476.95</ele>
        <time>2018-04-02T10:30:16Z</time>
      </trkpt>
      <trkpt lat="48.20274" lon="6.74822">
        <ele>478.39</ele>
        <time>2018-04-02T10:30:22Z</time>
      </trkpt>
      <trkpt lat="48.20278" lon="6.74793">
        <ele>478.87</ele>
        <time>2018-04-02T10:30:26Z</time>
      </trkpt>
      <trkpt lat="48.20278" lon="6.74768">
        <ele>478.87</ele>
        <time>2018-04-02T10:30:30Z</time>
      </trkpt>
      <trkpt lat="48.20277" lon="6.74744">
        <ele>479.84</ele>
        <time>2018-04-02T10:30:34Z</time>
      </trkpt>
      <trkpt lat="48.20282" lon="6.74715">
        <ele>480.32</ele>
        <time>2018-04-02T10:30:39Z</time>
      </trkpt>
      <trkpt lat="48.20292" lon="6.74702">
        <ele>479.84</ele>
        <time>2018-04-02T10:30:43Z</time>
      </trkpt>
      <trkpt lat="48.20294" lon="6.74686">
        <ele>482.24</ele>
        <time>2018-04-02T10:30:49Z</time>
      </trkpt>
      <trkpt lat="48.20299" lon="6.74681">
        <ele>483.68</ele>
        <time>2018-04-02T10:30:55Z</time>
      </trkpt>
      <trkpt lat="48.20305" lon="6.74662">
        <ele>484.64</ele>
        <time>2018-04-02T10:31:03Z</time>
      </trkpt>
      <trkpt lat="48.20311" lon="6.74646">
        <ele>484.16</ele>
        <time>2018-04-02T10:31:10Z</time>
      </trkpt>
      <trkpt lat="48.20315" lon="6.74632">
        <ele>484.16</ele>
        <time>2018-04-02T10:31:15Z</time>
      </trkpt>
      <trkpt lat="48.20323" lon="6.74618">
        <ele>483.68</ele>
        <time>2018-04-02T10:31:21Z</time>
      </trkpt>
      <trkpt lat="48.20331" lon="6.74608">
        <ele>483.2</ele>
        <time>2018-04-02T10:31:25Z</time>
      </trkpt>
      <trkpt lat="48.20339" lon="6.74596">
        <ele>483.2</ele>
        <time>2018-04-02T10:31:29Z</time>
      </trkpt>
      <trkpt lat="48.20346" lon="6.74586">
        <ele>483.2</ele>
        <time>2018-04-02T10:31:32Z</time>
      </trkpt>
      <trkpt lat="48.20353" lon="6.74575">
        <ele>482.72</ele>
        <time>2018-04-02T10:31:35Z</time>
      </trkpt>
      <trkpt lat="48.20361" lon="6.74566">
        <ele>482.72</ele>
        <time>2018-04-02T10:31:38Z</time>
      </trkpt>
      <trkpt lat="48.20367" lon="6.74555">
        <ele>482.24</ele>
        <time>2018-04-02T10:31:41Z</time>
      </trkpt>
      <trkpt lat="48.20369" lon="6.74539">
        <ele>482.72</ele>
        <time>2018-04-02T10:31:44Z</time>
      </trkpt>
      <trkpt lat="48.2037" lon="6.74523">
        <ele>482.72</ele>
        <time>2018-04-02T10:31:47Z</time>
      </trkpt>
      <trkpt lat="48.20367" lon="6.74504">
        <ele>482.24</ele>
        <time>2018-04-02T10:31:51Z</time>
      </trkpt>
      <trkpt lat="48.20363" lon="6.74473">
        <ele>482.24</ele>
        <time>2018-04-02T10:31:55Z</time>
      </trkpt>
      <trkpt lat="48.20362" lon="6.74456">
        <ele>482.24</ele>
        <time>2018-04-02T10:31:58Z</time>
      </trkpt>
      <trkpt lat="48.2036" lon="6.74434">
        <ele>482.72</ele>
        <time>2018-04-02T10:32:01Z</time>
      </trkpt>
      <trkpt lat="48.2036" lon="6.7441">
        <ele>482.24</ele>
        <time>2018-04-02T10:32:04Z</time>
      </trkpt>
      <trkpt lat="48.20359" lon="6.74388">
        <ele>482.72</ele>
        <time>2018-04-02T10:32:07Z</time>
      </trkpt>
      <trkpt lat="48.20358" lon="6.74366">
        <ele>482.72</ele>
        <time>2018-04-02T10:32:10Z</time>
      </trkpt>
      <trkpt lat="48.20356" lon="6.74345">
        <ele>481.76</ele>
        <time>2018-04-02T10:32:13Z</time>
      </trkpt>
      <trkpt lat="48.20355" lon="6.74329">
        <ele>480.8</ele>
        <time>2018-04-02T10:32:15Z</time>
      </trkpt>
      <trkpt lat="48.20355" lon="6.74309">
        <ele>480.8</ele>
        <time>2018-04-02T10:32:18Z</time>
      </trkpt>
      <trkpt lat="48.20354" lon="6.74282">
        <ele>479.84</ele>
        <time>2018-04-02T10:32:21Z</time>
      </trkpt>
      <trkpt lat="48.20353" lon="6.74265">
        <ele>479.84</ele>
        <time>2018-04-02T10:32:23Z</time>
      </trkpt>
      <trkpt lat="48.20351" lon="6.74243">
        <ele>478.87</ele>
        <time>2018-04-02T10:32:26Z</time>
      </trkpt>
      <trkpt lat="48.2035" lon="6.74222">
        <ele>479.35</ele>
        <time>2018-04-02T10:32:29Z</time>
      </trkpt>
      <trkpt lat="48.20341" lon="6.74192">
        <ele>479.35</ele>
        <time>2018-04-02T10:32:33Z</time>
      </trkpt>
      <trkpt lat="48.20323" lon="6.74185">
        <ele>480.32</ele>
        <time>2018-04-02T10:32:38Z</time>
      </trkpt>
      <trkpt lat="48.20309" lon="6.74181">
        <ele>480.8</ele>
        <time>2018-04-02T10:32:42Z</time>
      </trkpt>
      <trkpt lat="48.20295" lon="6.74194">
        <ele>481.28</ele>
        <time>2018-04-02T10:33:02Z</time>
      </trkpt>
      <trkpt lat="48.20285" lon="6.74191">
        <ele>481.76</ele>
        <time>2018-04-02T10:33:07Z</time>
      </trkpt>
      <trkpt lat="48.20274" lon="6.74189">
        <ele>482.72</ele>
        <time>2018-04-02T10:33:12Z</time>
      </trkpt>
      <trkpt lat="48.20263" lon="6.74187">
        <ele>483.2</ele>
        <time>2018-04-02T10:33:16Z</time>
      </trkpt>
      <trkpt lat="48.20253" lon="6.74186">
        <ele>484.16</ele>
        <time>2018-04-02T10:33:20Z</time>
      </trkpt>
      <trkpt lat="48.20242" lon="6.74185">
        <ele>485.12</ele>
        <time>2018-04-02T10:33:24Z</time>
      </trkpt>
      <trkpt lat="48.20231" lon="6.74184">
        <ele>485.6</ele>
        <time>2018-04-02T10:33:28Z</time>
      </trkpt>
      <trkpt lat="48.20222" lon="6.74179">
        <ele>486.08</ele>
        <time>2018-04-02T10:33:32Z</time>
      </trkpt>
      <trkpt lat="48.20218" lon="6.74167">
        <ele>486.56</ele>
        <time>2018-04-02T10:33:36Z</time>
      </trkpt>
      <trkpt lat="48.20214" lon="6.74151">
        <ele>487.05</ele>
        <time>2018-04-02T10:33:40Z</time>
      </trkpt>
      <trkpt lat="48.20209" lon="6.74136">
        <ele>486.56</ele>
        <time>2018-04-02T10:33:44Z</time>
      </trkpt>
      <trkpt lat="48.20206" lon="6.74123">
        <ele>486.08</ele>
        <time>2018-04-02T10:33:47Z</time>
      </trkpt>
      <trkpt lat="48.20202" lon="6.74107">
        <ele>486.08</ele>
        <time>2018-04-02T10:33:50Z</time>
      </trkpt>
      <trkpt lat="48.20198" lon="6.7409">
        <ele>485.6</ele>
        <time>2018-04-02T10:33:53Z</time>
      </trkpt>
      <trkpt lat="48.20196" lon="6.74077">
        <ele>485.12</ele>
        <time>2018-04-02T10:33:55Z</time>
      </trkpt>
      <trkpt lat="48.20194" lon="6.74063">
        <ele>484.64</ele>
        <time>2018-04-02T10:33:57Z</time>
      </trkpt>
      <trkpt lat="48.20192" lon="6.74046">
        <ele>484.16</ele>
        <time>2018-04-02T10:34:00Z</time>
      </trkpt>
      <trkpt lat="48.20191" lon="6.74031">
        <ele>483.2</ele>
        <time>2018-04-02T10:34:03Z</time>
      </trkpt>
      <trkpt lat="48.20189" lon="6.74016">
        <ele>483.2</ele>
        <time>2018-04-02T10:34:07Z</time>
      </trkpt>
      <trkpt lat="48.20187" lon="6.74004">
        <ele>482.24</ele>
        <time>2018-04-02T10:34:13Z</time>
      </trkpt>
      <trkpt lat="48.20189" lon="6.73991">
        <ele>482.24</ele>
        <time>2018-04-02T10:34:31Z</time>
      </trkpt>
      <trkpt lat="48.20191" lon="6.73976">
        <ele>481.28</ele>
        <time>2018-04-02T10:34:36Z</time>
      </trkpt>
      <trkpt lat="48.20188" lon="6.73962">
        <ele>480.8</ele>
        <time>2018-04-02T10:34:40Z</time>
      </trkpt>
      <trkpt lat="48.20185" lon="6.73948">
        <ele>480.8</ele>
        <time>2018-04-02T10:34:44Z</time>
      </trkpt>
      <trkpt lat="48.20185" lon="6.73935">
        <ele>480.32</ele>
        <time>2018-04-02T10:34:48Z</time>
      </trkpt>
      <trkpt lat="48.20186" lon="6.73921">
        <ele>479.84</ele>
        <time>2018-04-02T10:34:51Z</time>
      </trkpt>
      <trkpt lat="48.20186" lon="6.73907">
        <ele>478.87</ele>
        <time>2018-04-02T10:34:54Z</time>
      </trkpt>
      <trkpt lat="48.20184" lon="6.7389">
        <ele>477.91</ele>
        <time>2018-04-02T10:34:57Z</time>
      </trkpt>
      <trkpt lat="48.2018" lon="6.73874">
        <ele>477.91</ele>
        <time>2018-04-02T10:35:00Z</time>
      </trkpt>
      <trkpt lat="48.20175" lon="6.73858">
        <ele>476.95</ele>
        <time>2018-04-02T10:35:03Z</time>
      </trkpt>
      <trkpt lat="48.20171" lon="6.7384">
        <ele>476.47</ele>
        <time>2018-04-02T10:35:06Z</time>
      </trkpt>
      <trkpt lat="48.20166" lon="6.73823">
        <ele>475.51</ele>
        <time>2018-04-02T10:35:09Z</time>
      </trkpt>
      <trkpt lat="48.20163" lon="6.73806">
        <ele>475.51</ele>
        <time>2018-04-02T10:35:12Z</time>
      </trkpt>
      <trkpt lat="48.20161" lon="6.73791">
        <ele>475.03</ele>
        <time>2018-04-02T10:35:15Z</time>
      </trkpt>
      <trkpt lat="48.20162" lon="6.73774">
        <ele>474.55</ele>
        <time>2018-04-02T10:35:18Z</time>
      </trkpt>
      <trkpt lat="48.20163" lon="6.73758">
        <ele>473.11</ele>
        <time>2018-04-02T10:35:21Z</time>
      </trkpt>
      <trkpt lat="48.20161" lon="6.73741">
        <ele>472.14</ele>
        <time>2018-04-02T10:35:24Z</time>
      </trkpt>
      <trkpt lat="48.20157" lon="6.73726">
        <ele>471.18</ele>
        <time>2018-04-02T10:35:27Z</time>
      </trkpt>
      <trkpt lat="48.20152" lon="6.7371">
        <ele>469.74</ele>
        <time>2018-04-02T10:35:30Z</time>
      </trkpt>
      <trkpt lat="48.20149" lon="6.73693">
        <ele>468.78</ele>
        <time>2018-04-02T10:35:34Z</time>
      </trkpt>
      <trkpt lat="48.20148" lon="6.73678">
        <ele>468.3</ele>
        <time>2018-04-02T10:35:39Z</time>
      </trkpt>
      <trkpt lat="48.20146" lon="6.73663">
        <ele>468.3</ele>
        <time>2018-04-02T10:35:45Z</time>
      </trkpt>
      <trkpt lat="48.20143" lon="6.73648">
        <ele>467.34</ele>
        <time>2018-04-02T10:35:50Z</time>
      </trkpt>
      <trkpt lat="48.20137" lon="6.73635">
        <ele>467.34</ele>
        <time>2018-04-02T10:35:55Z</time>
      </trkpt>
      <trkpt lat="48.20132" lon="6.73623">
        <ele>467.34</ele>
        <time>2018-04-02T10:36:00Z</time>
      </trkpt>
      <trkpt lat="48.20126" lon="6.73611">
        <ele>467.34</ele>
        <time>2018-04-02T10:36:07Z</time>
      </trkpt>
      <trkpt lat="48.20124" lon="6.73599">
        <ele>467.82</ele>
        <time>2018-04-02T10:36:13Z</time>
      </trkpt>
      <trkpt lat="48.2012" lon="6.73584">
        <ele>467.34</ele>
        <time>2018-04-02T10:36:18Z</time>
      </trkpt>
      <trkpt lat="48.20117" lon="6.73568">
        <ele>467.82</ele>
        <time>2018-04-02T10:36:23Z</time>
      </trkpt>
      <trkpt lat="48.20113" lon="6.73556">
        <ele>467.82</ele>
        <time>2018-04-02T10:36:27Z</time>
      </trkpt>
      <trkpt lat="48.20109" lon="6.73543">
        <ele>467.34</ele>
        <time>2018-04-02T10:36:31Z</time>
      </trkpt>
      <trkpt lat="48.20103" lon="6.73529">
        <ele>467.82</ele>
        <time>2018-04-02T10:36:36Z</time>
      </trkpt>
      <trkpt lat="48.20098" lon="6.73518">
        <ele>467.82</ele>
        <time>2018-04-02T10:36:41Z</time>
      </trkpt>
      <trkpt lat="48.20099" lon="6.73504">
        <ele>466.86</ele>
        <time>2018-04-02T10:36:46Z</time>
      </trkpt>
      <trkpt lat="48.20092" lon="6.73493">
        <ele>467.34</ele>
        <time>2018-04-02T10:36:50Z</time>
      </trkpt>
      <trkpt lat="48.20084" lon="6.73482">
        <ele>466.86</ele>
        <time>2018-04-02T10:36:55Z</time>
      </trkpt>
      <trkpt lat="48.20076" lon="6.73472">
        <ele>467.82</ele>
        <time>2018-04-02T10:37:00Z</time>
      </trkpt>
      <trkpt lat="48.20069" lon="6.73462">
        <ele>468.78</ele>
        <time>2018-04-02T10:37:05Z</time>
      </trkpt>
      <trkpt lat="48.20062" lon="6.73452">
        <ele>469.26</ele>
        <time>2018-04-02T10:37:10Z</time>
      </trkpt>
      <trkpt lat="48.20056" lon="6.73439">
        <ele>470.22</ele>
        <time>2018-04-02T10:37:16Z</time>
      </trkpt>
      <trkpt lat="48.20049" lon="6.7343">
        <ele>469.74</ele>
        <time>2018-04-02T10:37:22Z</time>
      </trkpt>
      <trkpt lat="48.20042" lon="6.7342">
        <ele>470.22</ele>
        <time>2018-04-02T10:37:28Z</time>
      </trkpt>
      <trkpt lat="48.20033" lon="6.73411">
        <ele>470.22</ele>
        <time>2018-04-02T10:37:34Z</time>
      </trkpt>
      <trkpt lat="48.20025" lon="6.73401">
        <ele>470.22</ele>
        <time>2018-04-02T10:37:40Z</time>
      </trkpt>
      <trkpt lat="48.20016" lon="6.73391">
        <ele>470.22</ele>
        <time>2018-04-02T10:37:46Z</time>
      </trkpt>
      <trkpt lat="48.20008" lon="6.73387">
        <ele>470.7</ele>
        <time>2018-04-02T10:37:51Z</time>
      </trkpt>
      <trkpt lat="48.19998" lon="6.73382">
        <ele>470.22</ele>
        <time>2018-04-02T10:37:56Z</time>
      </trkpt>
      <trkpt lat="48.19989" lon="6.73377">
        <ele>470.7</ele>
        <time>2018-04-02T10:38:02Z</time>
      </trkpt>
      <trkpt lat="48.1998" lon="6.73372">
        <ele>470.7</ele>
        <time>2018-04-02T10:38:08Z</time>
      </trkpt>
      <trkpt lat="48.19971" lon="6.73368">
        <ele>470.7</ele>
        <time>2018-04-02T10:38:13Z</time>
      </trkpt>
      <trkpt lat="48.19963" lon="6.7336">
        <ele>470.7</ele>
        <time>2018-04-02T10:38:20Z</time>
      </trkpt>
      <trkpt lat="48.19956" lon="6.7335">
        <ele>471.18</ele>
        <time>2018-04-02T10:38:26Z</time>
      </trkpt>
      <trkpt lat="48.19947" lon="6.73337">
        <ele>471.18</ele>
        <time>2018-04-02T10:38:34Z</time>
      </trkpt>
      <trkpt lat="48.19938" lon="6.73326">
        <ele>470.7</ele>
        <time>2018-04-02T10:38:42Z</time>
      </trkpt>
      <trkpt lat="48.19928" lon="6.73328">
        <ele>471.66</ele>
        <time>2018-04-02T10:38:48Z</time>
      </trkpt>
      <trkpt lat="48.19918" lon="6.73323">
        <ele>471.66</ele>
        <time>2018-04-02T10:38:55Z</time>
      </trkpt>
      <trkpt lat="48.19907" lon="6.73321">
        <ele>472.14</ele>
        <time>2018-04-02T10:39:01Z</time>
      </trkpt>
      <trkpt lat="48.19897" lon="6.73315">
        <ele>472.14</ele>
        <time>2018-04-02T10:39:09Z</time>
      </trkpt>
      <trkpt lat="48.19886" lon="6.73313">
        <ele>474.07</ele>
        <time>2018-04-02T10:39:15Z</time>
      </trkpt>
      <trkpt lat="48.19877" lon="6.73303">
        <ele>474.55</ele>
        <time>2018-04-02T10:39:22Z</time>
      </trkpt>
      <trkpt lat="48.19866" lon="6.73292">
        <ele>472.63</ele>
        <time>2018-04-02T10:39:26Z</time>
      </trkpt>
      <trkpt lat="48.19857" lon="6.73284">
        <ele>473.11</ele>
        <time>2018-04-02T10:39:29Z</time>
      </trkpt>
      <trkpt lat="48.19849" lon="6.73276">
        <ele>473.11</ele>
        <time>2018-04-02T10:39:34Z</time>
      </trkpt>
      <trkpt lat="48.1984" lon="6.73268">
        <ele>473.11</ele>
        <time>2018-04-02T10:39:42Z</time>
      </trkpt>
      <trkpt lat="48.19831" lon="6.73268">
        <ele>474.55</ele>
        <time>2018-04-02T10:39:51Z</time>
      </trkpt>
      <trkpt lat="48.19822" lon="6.73273">
        <ele>474.55</ele>
        <time>2018-04-02T10:39:58Z</time>
      </trkpt>
      <trkpt lat="48.19811" lon="6.73275">
        <ele>475.03</ele>
        <time>2018-04-02T10:40:04Z</time>
      </trkpt>
      <trkpt lat="48.19802" lon="6.73277">
        <ele>474.55</ele>
        <time>2018-04-02T10:40:09Z</time>
      </trkpt>
      <trkpt lat="48.19793" lon="6.73285">
        <ele>475.99</ele>
        <time>2018-04-02T10:40:15Z</time>
      </trkpt>
      <trkpt lat="48.19792" lon="6.733">
        <ele>475.99</ele>
        <time>2018-04-02T10:40:21Z</time>
      </trkpt>
      <trkpt lat="48.19794" lon="6.73315">
        <ele>476.95</ele>
        <time>2018-04-02T10:40:26Z</time>
      </trkpt>
      <trkpt lat="48.19797" lon="6.7333">
        <ele>476.95</ele>
        <time>2018-04-02T10:40:31Z</time>
      </trkpt>
      <trkpt lat="48.19798" lon="6.73346">
        <ele>476.95</ele>
        <time>2018-04-02T10:40:36Z</time>
      </trkpt>
      <trkpt lat="48.198" lon="6.73362">
        <ele>476.95</ele>
        <time>2018-04-02T10:40:41Z</time>
      </trkpt>
      <trkpt lat="48.19803" lon="6.73377">
        <ele>477.91</ele>
        <time>2018-04-02T10:40:46Z</time>
      </trkpt>
      <trkpt lat="48.19804" lon="6.73392">
        <ele>478.87</ele>
        <time>2018-04-02T10:40:52Z</time>
      </trkpt>
      <trkpt lat="48.19803" lon="6.73409">
        <ele>479.35</ele>
        <time>2018-04-02T10:40:59Z</time>
      </trkpt>
      <trkpt lat="48.19801" lon="6.73422">
        <ele>479.84</ele>
        <time>2018-04-02T10:41:05Z</time>
      </trkpt>
      <trkpt lat="48.19796" lon="6.73436">
        <ele>480.8</ele>
        <time>2018-04-02T10:41:11Z</time>
      </trkpt>
    </trkseg>
  </trk>
</gpx>